<?xml version="1.0" encoding="UTF-8" standalone="no" ?>
<gpx xmlns="http://www.topografix.com/GPX/1/1" xmlns:xsi="http://www.w3.org/2001/XMLSchema-instance" xsi:schemaLocation="http://www.topografix.com/GPX/1/1 http://www.topografix.com/GPX/1/1/gpx.xsd" version="1.1" creator="VisuGPX - https://www.visugpx.com">
  <metadata>
    <name>qcc 08-05-25</name>
  </metadata>
  <trk>
    <name><![CDATA[qcc 08-065-24_1]]></name>
    <extensions>
      <line xmlns="http://www.topografix.com/GPX/gpx_style/0/2">
        <color>0000FF</color>
        <opacity>1</opacity>
        <width>4</width>
      </line>
    </extensions>
    <trkseg>
      <trkpt lat="48.0073" lon="-4.11584">
        <ele>6</ele>
        <time>2024-04-10T17:44:34.000Z</time>
      </trkpt>
      <trkpt lat="48.00721" lon="-4.11592">
        <ele>6.3</ele>
        <time>2024-04-10T17:44:36.253Z</time>
      </trkpt>
      <trkpt lat="48.0071" lon="-4.11595">
        <ele>6.4</ele>
        <time>2024-04-10T17:44:38.248Z</time>
      </trkpt>
      <trkpt lat="48.00698" lon="-4.11599">
        <ele>6.6</ele>
        <time>2024-04-10T17:44:40.614Z</time>
      </trkpt>
      <trkpt lat="48.00683" lon="-4.11606">
        <ele>6.5</ele>
        <time>2024-04-10T17:44:43.035Z</time>
      </trkpt>
      <trkpt lat="48.00657" lon="-4.11625">
        <ele>6.3</ele>
        <time>2024-04-10T17:44:47.471Z</time>
      </trkpt>
      <trkpt lat="48.00649" lon="-4.11631">
        <ele>6.3</ele>
        <time>2024-04-10T17:44:48.934Z</time>
      </trkpt>
      <trkpt lat="48.00643" lon="-4.11635">
        <ele>6.1</ele>
        <time>2024-04-10T17:44:49.760Z</time>
      </trkpt>
      <trkpt lat="48.00638" lon="-4.11642">
        <ele>6</ele>
        <time>2024-04-10T17:44:50.741Z</time>
      </trkpt>
      <trkpt lat="48.00633" lon="-4.11645">
        <ele>6</ele>
        <time>2024-04-10T17:44:51.622Z</time>
      </trkpt>
      <trkpt lat="48.00626" lon="-4.11648">
        <ele>6.2</ele>
        <time>2024-04-10T17:44:53.205Z</time>
      </trkpt>
      <trkpt lat="48.00619" lon="-4.11646">
        <ele>6.2</ele>
        <time>2024-04-10T17:44:54.370Z</time>
      </trkpt>
      <trkpt lat="48.00613" lon="-4.11648">
        <ele>6.3</ele>
        <time>2024-04-10T17:44:55.553Z</time>
      </trkpt>
      <trkpt lat="48.00596" lon="-4.11658">
        <ele>6.3</ele>
        <time>2024-04-10T17:44:58.539Z</time>
      </trkpt>
      <trkpt lat="48.00537" lon="-4.117">
        <ele>6.5</ele>
        <time>2024-04-10T17:45:09.540Z</time>
      </trkpt>
      <trkpt lat="48.00511" lon="-4.11712">
        <ele>6.6</ele>
        <time>2024-04-10T17:45:14.148Z</time>
      </trkpt>
      <trkpt lat="48.00484" lon="-4.11719">
        <ele>7.5</ele>
        <time>2024-04-10T17:45:20.485Z</time>
      </trkpt>
      <trkpt lat="48.00478" lon="-4.11721">
        <ele>7.7</ele>
        <time>2024-04-10T17:45:21.902Z</time>
      </trkpt>
      <trkpt lat="48.00469" lon="-4.11731">
        <ele>8</ele>
        <time>2024-04-10T17:45:24.321Z</time>
      </trkpt>
      <trkpt lat="48.00459" lon="-4.11758">
        <ele>9.1</ele>
        <time>2024-04-10T17:45:30.461Z</time>
      </trkpt>
      <trkpt lat="48.00423" lon="-4.11729">
        <ele>8.2</ele>
        <time>2024-04-10T17:45:35.962Z</time>
      </trkpt>
      <trkpt lat="48.00419" lon="-4.11734">
        <ele>8.4</ele>
        <time>2024-04-10T17:45:37.250Z</time>
      </trkpt>
      <trkpt lat="48.00416" lon="-4.11732">
        <ele>8.4</ele>
        <time>2024-04-10T17:45:37.787Z</time>
      </trkpt>
      <trkpt lat="48.00415" lon="-4.11728">
        <ele>8.2</ele>
        <time>2024-04-10T17:45:38.067Z</time>
      </trkpt>
      <trkpt lat="48.00393" lon="-4.1169">
        <ele>7</ele>
        <time>2024-04-10T17:45:42.129Z</time>
      </trkpt>
      <trkpt lat="48.00384" lon="-4.11673">
        <ele>7</ele>
        <time>2024-04-10T17:45:44.500Z</time>
      </trkpt>
      <trkpt lat="48.00362" lon="-4.11617">
        <ele>6</ele>
        <time>2024-04-10T17:45:50.297Z</time>
      </trkpt>
      <trkpt lat="48.00361" lon="-4.11614">
        <ele>6</ele>
        <time>2024-04-10T17:45:50.664Z</time>
      </trkpt>
      <trkpt lat="48.00357" lon="-4.11609">
        <ele>6</ele>
        <time>2024-04-10T17:45:51.516Z</time>
      </trkpt>
      <trkpt lat="48.00351" lon="-4.11597">
        <ele>6</ele>
        <time>2024-04-10T17:45:53.155Z</time>
      </trkpt>
      <trkpt lat="48.00346" lon="-4.11582">
        <ele>6</ele>
        <time>2024-04-10T17:45:54.987Z</time>
      </trkpt>
      <trkpt lat="48.00343" lon="-4.11572">
        <ele>5.9</ele>
        <time>2024-04-10T17:45:56.046Z</time>
      </trkpt>
      <trkpt lat="48.00343" lon="-4.1157">
        <ele>5.8</ele>
        <time>2024-04-10T17:45:56.177Z</time>
      </trkpt>
      <trkpt lat="48.00304" lon="-4.11477">
        <ele>5</ele>
        <time>2024-04-10T17:46:07.039Z</time>
      </trkpt>
      <trkpt lat="48.003" lon="-4.1147">
        <ele>4.9</ele>
        <time>2024-04-10T17:46:07.909Z</time>
      </trkpt>
      <trkpt lat="48.00268" lon="-4.11444">
        <ele>5</ele>
        <time>2024-04-10T17:46:14.021Z</time>
      </trkpt>
      <trkpt lat="48.00252" lon="-4.11432">
        <ele>5</ele>
        <time>2024-04-10T17:46:16.947Z</time>
      </trkpt>
      <trkpt lat="48.00244" lon="-4.11423">
        <ele>5.2</ele>
        <time>2024-04-10T17:46:18.952Z</time>
      </trkpt>
      <trkpt lat="48.00234" lon="-4.11417">
        <ele>5.6</ele>
        <time>2024-04-10T17:46:21.573Z</time>
      </trkpt>
      <trkpt lat="48.0023" lon="-4.11419">
        <ele>5.7</ele>
        <time>2024-04-10T17:46:22.452Z</time>
      </trkpt>
      <trkpt lat="48.00225" lon="-4.11417">
        <ele>5.9</ele>
        <time>2024-04-10T17:46:23.734Z</time>
      </trkpt>
      <trkpt lat="48.00222" lon="-4.11414">
        <ele>6</ele>
        <time>2024-04-10T17:46:24.521Z</time>
      </trkpt>
      <trkpt lat="48.0022" lon="-4.11407">
        <ele>6</ele>
        <time>2024-04-10T17:46:25.354Z</time>
      </trkpt>
      <trkpt lat="48.00201" lon="-4.11391">
        <ele>6</ele>
        <time>2024-04-10T17:46:28.918Z</time>
      </trkpt>
      <trkpt lat="48.00196" lon="-4.11386">
        <ele>6.1</ele>
        <time>2024-04-10T17:46:30.080Z</time>
      </trkpt>
      <trkpt lat="48.0019" lon="-4.1138">
        <ele>6.6</ele>
        <time>2024-04-10T17:46:32.735Z</time>
      </trkpt>
      <trkpt lat="48.00156" lon="-4.11352">
        <ele>10</ele>
        <time>2024-04-10T17:46:51.036Z</time>
      </trkpt>
      <trkpt lat="48.00136" lon="-4.11337">
        <ele>11.4</ele>
        <time>2024-04-10T17:46:58.555Z</time>
      </trkpt>
      <trkpt lat="48.00103" lon="-4.1131">
        <ele>13.7</ele>
        <time>2024-04-10T17:47:10.958Z</time>
      </trkpt>
      <trkpt lat="48.00095" lon="-4.11303">
        <ele>14.2</ele>
        <time>2024-04-10T17:47:13.738Z</time>
      </trkpt>
      <trkpt lat="48.00084" lon="-4.11294">
        <ele>15</ele>
        <time>2024-04-10T17:47:18.022Z</time>
      </trkpt>
      <trkpt lat="48.00056" lon="-4.11273">
        <ele>17.1</ele>
        <time>2024-04-10T17:47:29.200Z</time>
      </trkpt>
      <trkpt lat="48.00047" lon="-4.11264">
        <ele>18.3</ele>
        <time>2024-04-10T17:47:35.916Z</time>
      </trkpt>
      <trkpt lat="48.00013" lon="-4.11239">
        <ele>21.6</ele>
        <time>2024-04-10T17:47:53.662Z</time>
      </trkpt>
      <trkpt lat="48.00012" lon="-4.11256">
        <ele>21.8</ele>
        <time>2024-04-10T17:47:55.889Z</time>
      </trkpt>
      <trkpt lat="48.00003" lon="-4.11294">
        <ele>24.2</ele>
        <time>2024-04-10T17:48:08.841Z</time>
      </trkpt>
      <trkpt lat="47.99984" lon="-4.11345">
        <ele>26</ele>
        <time>2024-04-10T17:48:19.442Z</time>
        <extensions>
          <visugpx:TrkExtension xmlns:visugpx="https://www.visugpx.com/editgpx/">
            <visugpx:node>1</visugpx:node>
            </visugpx:TrkExtension>
        </extensions>
      </trkpt>
      <trkpt lat="47.99982" lon="-4.1135">
        <ele>26.1</ele>
        <time>2024-04-10T17:48:20.272Z</time>
      </trkpt>
      <trkpt lat="47.99975" lon="-4.11369">
        <ele>26.7</ele>
        <time>2024-04-10T17:48:23.987Z</time>
      </trkpt>
      <trkpt lat="47.99952" lon="-4.11427">
        <ele>28.2</ele>
        <time>2024-04-10T17:48:34.470Z</time>
      </trkpt>
      <trkpt lat="47.9995" lon="-4.11432">
        <ele>28.4</ele>
        <time>2024-04-10T17:48:35.600Z</time>
      </trkpt>
      <trkpt lat="47.99948" lon="-4.11444">
        <ele>28.6</ele>
        <time>2024-04-10T17:48:37.334Z</time>
      </trkpt>
      <trkpt lat="47.99941" lon="-4.11463">
        <ele>29.2</ele>
        <time>2024-04-10T17:48:41.049Z</time>
      </trkpt>
      <trkpt lat="47.99905" lon="-4.11553">
        <ele>31.4</ele>
        <time>2024-04-10T17:48:56.998Z</time>
      </trkpt>
      <trkpt lat="47.99894" lon="-4.11576">
        <ele>31.7</ele>
        <time>2024-04-10T17:49:00.622Z</time>
      </trkpt>
      <trkpt lat="47.99881" lon="-4.11608">
        <ele>32.6</ele>
        <time>2024-04-10T17:49:06.629Z</time>
      </trkpt>
      <trkpt lat="47.99865" lon="-4.11632">
        <ele>33.6</ele>
        <time>2024-04-10T17:49:12.632Z</time>
      </trkpt>
      <trkpt lat="47.99806" lon="-4.11701">
        <ele>35.7</ele>
        <time>2024-04-10T17:49:29.026Z</time>
      </trkpt>
      <trkpt lat="47.99784" lon="-4.11737">
        <ele>36.4</ele>
        <time>2024-04-10T17:49:35.663Z</time>
      </trkpt>
      <trkpt lat="47.99771" lon="-4.11765">
        <ele>37.5</ele>
        <time>2024-04-10T17:49:42.021Z</time>
      </trkpt>
      <trkpt lat="47.99759" lon="-4.11796">
        <ele>38.4</ele>
        <time>2024-04-10T17:49:47.881Z</time>
      </trkpt>
      <trkpt lat="47.99754" lon="-4.11818">
        <ele>39.1</ele>
        <time>2024-04-10T17:49:52.045Z</time>
      </trkpt>
      <trkpt lat="47.99751" lon="-4.11847">
        <ele>39.9</ele>
        <time>2024-04-10T17:49:57.034Z</time>
      </trkpt>
      <trkpt lat="47.9975" lon="-4.11934">
        <ele>41.6</ele>
        <time>2024-04-10T17:50:09.945Z</time>
      </trkpt>
      <trkpt lat="47.9975" lon="-4.11946">
        <ele>42</ele>
        <time>2024-04-10T17:50:12.230Z</time>
      </trkpt>
      <trkpt lat="47.99748" lon="-4.12057">
        <ele>44.3</ele>
        <time>2024-04-10T17:50:29.042Z</time>
      </trkpt>
      <trkpt lat="47.99752" lon="-4.12101">
        <ele>45.3</ele>
        <time>2024-04-10T17:50:35.979Z</time>
      </trkpt>
      <trkpt lat="47.99758" lon="-4.1213">
        <ele>45.2</ele>
        <time>2024-04-10T17:50:39.150Z</time>
      </trkpt>
      <trkpt lat="47.99763" lon="-4.12151">
        <ele>46.2</ele>
        <time>2024-04-10T17:50:44.473Z</time>
      </trkpt>
      <trkpt lat="47.99769" lon="-4.12164">
        <ele>46.7</ele>
        <time>2024-04-10T17:50:47.385Z</time>
      </trkpt>
      <trkpt lat="47.99786" lon="-4.12194">
        <ele>47.1</ele>
        <time>2024-04-10T17:50:52.390Z</time>
      </trkpt>
      <trkpt lat="47.99816" lon="-4.12232">
        <ele>48</ele>
        <time>2024-04-10T17:51:00.516Z</time>
      </trkpt>
      <trkpt lat="47.99829" lon="-4.12253">
        <ele>49.9</ele>
        <time>2024-04-10T17:51:10.987Z</time>
      </trkpt>
      <trkpt lat="47.99841" lon="-4.12271">
        <ele>49.8</ele>
        <time>2024-04-10T17:51:13.618Z</time>
      </trkpt>
      <trkpt lat="47.99851" lon="-4.12292">
        <ele>50.4</ele>
        <time>2024-04-10T17:51:17.699Z</time>
      </trkpt>
      <trkpt lat="47.9986" lon="-4.12319">
        <ele>50.7</ele>
        <time>2024-04-10T17:51:21.525Z</time>
      </trkpt>
      <trkpt lat="47.99898" lon="-4.12551">
        <ele>57.1</ele>
        <time>2024-04-10T17:52:01.792Z</time>
      </trkpt>
      <trkpt lat="47.999" lon="-4.12571">
        <ele>57.8</ele>
        <time>2024-04-10T17:52:05.736Z</time>
      </trkpt>
      <trkpt lat="47.99898" lon="-4.12592">
        <ele>58.1</ele>
        <time>2024-04-10T17:52:08.613Z</time>
      </trkpt>
      <trkpt lat="47.99894" lon="-4.12613">
        <ele>57.7</ele>
        <time>2024-04-10T17:52:10.496Z</time>
      </trkpt>
      <trkpt lat="47.9988" lon="-4.12644">
        <ele>57.7</ele>
        <time>2024-04-10T17:52:14.586Z</time>
      </trkpt>
      <trkpt lat="47.99848" lon="-4.12701">
        <ele>58.4</ele>
        <time>2024-04-10T17:52:23.947Z</time>
      </trkpt>
      <trkpt lat="47.9984" lon="-4.12725">
        <ele>58</ele>
        <time>2024-04-10T17:52:26.355Z</time>
      </trkpt>
      <trkpt lat="47.99837" lon="-4.12744">
        <ele>60.4</ele>
        <time>2024-04-10T17:52:35.505Z</time>
      </trkpt>
      <trkpt lat="47.99839" lon="-4.12765">
        <ele>62</ele>
        <time>2024-04-10T17:52:44.465Z</time>
      </trkpt>
      <trkpt lat="47.99849" lon="-4.1279">
        <ele>63.7</ele>
        <time>2024-04-10T17:52:53.609Z</time>
      </trkpt>
      <trkpt lat="47.99856" lon="-4.128">
        <ele>64.1</ele>
        <time>2024-04-10T17:52:56.087Z</time>
      </trkpt>
      <trkpt lat="47.99893" lon="-4.12842">
        <ele>66.7</ele>
        <time>2024-04-10T17:53:10.394Z</time>
      </trkpt>
      <trkpt lat="47.99906" lon="-4.12867">
        <ele>68</ele>
        <time>2024-04-10T17:53:17.399Z</time>
      </trkpt>
      <trkpt lat="47.99906" lon="-4.12867">
        <ele>68</ele>
        <time>2024-04-10T17:53:17.399Z</time>
        <extensions>
          <visugpx:TrkExtension xmlns:visugpx="https://www.visugpx.com/editgpx/">
            <visugpx:node>2</visugpx:node>
            </visugpx:TrkExtension>
        </extensions>
      </trkpt>
      <trkpt lat="47.99916" lon="-4.12891">
        <ele>68.2</ele>
        <time>2024-04-10T17:53:20.831Z</time>
      </trkpt>
      <trkpt lat="47.99923" lon="-4.12912">
        <ele>67.8</ele>
        <time>2024-04-10T17:53:22.884Z</time>
      </trkpt>
      <trkpt lat="47.99931" lon="-4.12948">
        <ele>69.6</ele>
        <time>2024-04-10T17:53:32.430Z</time>
      </trkpt>
      <trkpt lat="47.99934" lon="-4.12991">
        <ele>71</ele>
        <time>2024-04-10T17:53:40.512Z</time>
      </trkpt>
      <trkpt lat="47.99932" lon="-4.13028">
        <ele>70.6</ele>
        <time>2024-04-10T17:53:44.023Z</time>
      </trkpt>
      <trkpt lat="47.99927" lon="-4.13054">
        <ele>71.7</ele>
        <time>2024-04-10T17:53:49.962Z</time>
      </trkpt>
      <trkpt lat="47.99914" lon="-4.13094">
        <ele>74</ele>
        <time>2024-04-10T17:54:02.170Z</time>
      </trkpt>
      <trkpt lat="47.99886" lon="-4.13159">
        <ele>76</ele>
        <time>2024-04-10T17:54:14.987Z</time>
      </trkpt>
      <trkpt lat="47.99882" lon="-4.1317">
        <ele>76.6</ele>
        <time>2024-04-10T17:54:18.168Z</time>
      </trkpt>
      <trkpt lat="47.99879" lon="-4.13188">
        <ele>77</ele>
        <time>2024-04-10T17:54:21.018Z</time>
      </trkpt>
      <trkpt lat="47.9988" lon="-4.13205">
        <ele>77.3</ele>
        <time>2024-04-10T17:54:23.468Z</time>
      </trkpt>
      <trkpt lat="47.99884" lon="-4.13224">
        <ele>77.9</ele>
        <time>2024-04-10T17:54:27.037Z</time>
      </trkpt>
      <trkpt lat="47.99916" lon="-4.13305">
        <ele>80</ele>
        <time>2024-04-10T17:54:41.682Z</time>
      </trkpt>
      <trkpt lat="47.99921" lon="-4.13321">
        <ele>79.6</ele>
        <time>2024-04-10T17:54:43.130Z</time>
      </trkpt>
      <trkpt lat="47.99924" lon="-4.13337">
        <ele>79.7</ele>
        <time>2024-04-10T17:54:45.115Z</time>
      </trkpt>
      <trkpt lat="47.99924" lon="-4.13354">
        <ele>80</ele>
        <time>2024-04-10T17:54:47.558Z</time>
      </trkpt>
      <trkpt lat="47.99919" lon="-4.13382">
        <ele>80.7</ele>
        <time>2024-04-10T17:54:52.218Z</time>
      </trkpt>
      <trkpt lat="47.99898" lon="-4.1345">
        <ele>81.4</ele>
        <time>2024-04-10T17:55:01.630Z</time>
      </trkpt>
      <trkpt lat="47.99894" lon="-4.13472">
        <ele>82.3</ele>
        <time>2024-04-10T17:55:06.519Z</time>
      </trkpt>
      <trkpt lat="47.99893" lon="-4.13496">
        <ele>81.8</ele>
        <time>2024-04-10T17:55:08.533Z</time>
      </trkpt>
      <trkpt lat="47.99894" lon="-4.13522">
        <ele>81.8</ele>
        <time>2024-04-10T17:55:11.381Z</time>
      </trkpt>
      <trkpt lat="47.99909" lon="-4.13679">
        <ele>83.1</ele>
        <time>2024-04-10T17:55:30.963Z</time>
      </trkpt>
      <trkpt lat="47.99912" lon="-4.1373">
        <ele>84.6</ele>
        <time>2024-04-10T17:55:39.998Z</time>
      </trkpt>
      <trkpt lat="47.99913" lon="-4.13738">
        <ele>84.8</ele>
        <time>2024-04-10T17:55:41.316Z</time>
      </trkpt>
      <trkpt lat="47.99914" lon="-4.13792">
        <ele>85.7</ele>
        <time>2024-04-10T17:55:48.953Z</time>
      </trkpt>
      <trkpt lat="47.99906" lon="-4.13939">
        <ele>89.5</ele>
        <time>2024-04-10T17:56:13.359Z</time>
      </trkpt>
      <trkpt lat="47.99903" lon="-4.14035">
        <ele>89.4</ele>
        <time>2024-04-10T17:56:23.717Z</time>
      </trkpt>
      <trkpt lat="47.99903" lon="-4.14063">
        <ele>89</ele>
        <time>2024-04-10T17:56:26.251Z</time>
      </trkpt>
      <trkpt lat="47.99904" lon="-4.14112">
        <ele>89.5</ele>
        <time>2024-04-10T17:56:32.495Z</time>
      </trkpt>
      <trkpt lat="47.99907" lon="-4.1418">
        <ele>89</ele>
        <time>2024-04-10T17:56:39.235Z</time>
      </trkpt>
      <trkpt lat="47.99911" lon="-4.14231">
        <ele>89.3</ele>
        <time>2024-04-10T17:56:45.352Z</time>
      </trkpt>
      <trkpt lat="47.99915" lon="-4.1426">
        <ele>90</ele>
        <time>2024-04-10T17:56:50.070Z</time>
      </trkpt>
      <trkpt lat="47.99924" lon="-4.14306">
        <ele>91</ele>
        <time>2024-04-10T17:56:57.346Z</time>
      </trkpt>
      <trkpt lat="47.9997" lon="-4.14526">
        <ele>95.2</ele>
        <time>2024-04-10T17:57:30.792Z</time>
      </trkpt>
      <trkpt lat="47.99974" lon="-4.14558">
        <ele>96</ele>
        <time>2024-04-10T17:57:36.066Z</time>
      </trkpt>
      <trkpt lat="47.99974" lon="-4.14558">
        <ele>96</ele>
        <time>2024-04-10T17:57:36.066Z</time>
        <extensions>
          <visugpx:TrkExtension xmlns:visugpx="https://www.visugpx.com/editgpx/">
            <visugpx:node>3</visugpx:node>
            </visugpx:TrkExtension>
        </extensions>
      </trkpt>
      <trkpt lat="47.99975" lon="-4.14587">
        <ele>96.9</ele>
        <time>2024-04-10T17:57:41.354Z</time>
      </trkpt>
      <trkpt lat="47.99974" lon="-4.14612">
        <ele>97</ele>
        <time>2024-04-10T17:57:44.257Z</time>
      </trkpt>
      <trkpt lat="47.9997" lon="-4.14643">
        <ele>98.2</ele>
        <time>2024-04-10T17:57:50.834Z</time>
      </trkpt>
      <trkpt lat="47.99957" lon="-4.1471">
        <ele>99.2</ele>
        <time>2024-04-10T17:58:00.326Z</time>
      </trkpt>
      <trkpt lat="47.99952" lon="-4.14744">
        <ele>98.4</ele>
        <time>2024-04-10T17:58:03.169Z</time>
      </trkpt>
      <trkpt lat="47.99951" lon="-4.14764">
        <ele>98.6</ele>
        <time>2024-04-10T17:58:05.714Z</time>
      </trkpt>
      <trkpt lat="47.99956" lon="-4.14768">
        <ele>98.8</ele>
        <time>2024-04-10T17:58:07.064Z</time>
      </trkpt>
      <trkpt lat="47.99962" lon="-4.14781">
        <ele>99</ele>
        <time>2024-04-10T17:58:09.155Z</time>
      </trkpt>
      <trkpt lat="47.99963" lon="-4.14792">
        <ele>99</ele>
        <time>2024-04-10T17:58:10.369Z</time>
      </trkpt>
      <trkpt lat="47.99963" lon="-4.14803">
        <ele>99</ele>
        <time>2024-04-10T17:58:11.573Z</time>
      </trkpt>
      <trkpt lat="47.99966" lon="-4.14816">
        <ele>98.9</ele>
        <time>2024-04-10T17:58:12.934Z</time>
      </trkpt>
      <trkpt lat="47.99973" lon="-4.14835">
        <ele>98.9</ele>
        <time>2024-04-10T17:58:15.306Z</time>
      </trkpt>
      <trkpt lat="47.99985" lon="-4.14857">
        <ele>96.3</ele>
        <time>2024-04-10T17:58:17.169Z</time>
      </trkpt>
      <trkpt lat="48.00005" lon="-4.14884">
        <ele>94</ele>
        <time>2024-04-10T17:58:19.812Z</time>
      </trkpt>
      <trkpt lat="48.00019" lon="-4.14908">
        <ele>97.6</ele>
        <time>2024-04-10T17:58:34.737Z</time>
      </trkpt>
      <trkpt lat="48.00032" lon="-4.14931">
        <ele>100.6</ele>
        <time>2024-04-10T17:58:48.849Z</time>
      </trkpt>
      <trkpt lat="48.00042" lon="-4.14947">
        <ele>101</ele>
        <time>2024-04-10T17:58:52.029Z</time>
      </trkpt>
      <trkpt lat="48.00049" lon="-4.14968">
        <ele>101</ele>
        <time>2024-04-10T17:58:54.595Z</time>
      </trkpt>
      <trkpt lat="48.00066" lon="-4.15076">
        <ele>102</ele>
        <time>2024-04-10T17:59:08.467Z</time>
      </trkpt>
      <trkpt lat="48.00072" lon="-4.15141">
        <ele>101</ele>
        <time>2024-04-10T17:59:14.336Z</time>
      </trkpt>
      <trkpt lat="48.00075" lon="-4.15159">
        <ele>101</ele>
        <time>2024-04-10T17:59:16.365Z</time>
      </trkpt>
      <trkpt lat="48.00082" lon="-4.15167">
        <ele>101</ele>
        <time>2024-04-10T17:59:17.805Z</time>
      </trkpt>
      <trkpt lat="48.00085" lon="-4.15178">
        <ele>100.5</ele>
        <time>2024-04-10T17:59:18.603Z</time>
      </trkpt>
      <trkpt lat="48.00085" lon="-4.15184">
        <ele>100.3</ele>
        <time>2024-04-10T17:59:19.042Z</time>
      </trkpt>
      <trkpt lat="48.00083" lon="-4.15193">
        <ele>100.1</ele>
        <time>2024-04-10T17:59:19.833Z</time>
      </trkpt>
      <trkpt lat="48.00083" lon="-4.15211">
        <ele>100</ele>
        <time>2024-04-10T17:59:21.656Z</time>
      </trkpt>
      <trkpt lat="48.00091" lon="-4.15304">
        <ele>97.8</ele>
        <time>2024-04-10T17:59:29.273Z</time>
      </trkpt>
      <trkpt lat="48.00092" lon="-4.15414">
        <ele>95.1</ele>
        <time>2024-04-10T17:59:38.102Z</time>
      </trkpt>
      <trkpt lat="48.00095" lon="-4.15439">
        <ele>95.3</ele>
        <time>2024-04-10T17:59:41.222Z</time>
      </trkpt>
      <trkpt lat="48.00101" lon="-4.15465">
        <ele>94.6</ele>
        <time>2024-04-10T17:59:43.408Z</time>
      </trkpt>
      <trkpt lat="48.00117" lon="-4.15502">
        <ele>93.4</ele>
        <time>2024-04-10T17:59:46.840Z</time>
      </trkpt>
      <trkpt lat="48.00179" lon="-4.15592">
        <ele>93.2</ele>
        <time>2024-04-10T18:00:00.663Z</time>
      </trkpt>
      <trkpt lat="48.00186" lon="-4.15607">
        <ele>92.9</ele>
        <time>2024-04-10T18:00:02.276Z</time>
      </trkpt>
      <trkpt lat="48.00188" lon="-4.15626">
        <ele>92.1</ele>
        <time>2024-04-10T18:00:03.574Z</time>
      </trkpt>
      <trkpt lat="48.00188" lon="-4.15661">
        <ele>89.5</ele>
        <time>2024-04-10T18:00:05.870Z</time>
      </trkpt>
      <trkpt lat="48.00191" lon="-4.15672">
        <ele>88.8</ele>
        <time>2024-04-10T18:00:06.650Z</time>
      </trkpt>
      <trkpt lat="48.00199" lon="-4.15686">
        <ele>88.8</ele>
        <time>2024-04-10T18:00:08.663Z</time>
      </trkpt>
      <trkpt lat="48.00203" lon="-4.157">
        <ele>88.2</ele>
        <time>2024-04-10T18:00:09.712Z</time>
      </trkpt>
      <trkpt lat="48.00203" lon="-4.15714">
        <ele>88.9</ele>
        <time>2024-04-10T18:00:13.423Z</time>
      </trkpt>
      <trkpt lat="48.00201" lon="-4.15726">
        <ele>88.9</ele>
        <time>2024-04-10T18:00:14.775Z</time>
      </trkpt>
      <trkpt lat="48.00197" lon="-4.15737">
        <ele>88.3</ele>
        <time>2024-04-10T18:00:15.597Z</time>
      </trkpt>
      <trkpt lat="48.00191" lon="-4.15746">
        <ele>88</ele>
        <time>2024-04-10T18:00:16.627Z</time>
      </trkpt>
      <trkpt lat="48.00184" lon="-4.15752">
        <ele>87.9</ele>
        <time>2024-04-10T18:00:17.805Z</time>
      </trkpt>
      <trkpt lat="48.00173" lon="-4.15755">
        <ele>87.8</ele>
        <time>2024-04-10T18:00:19.488Z</time>
      </trkpt>
      <trkpt lat="48.00161" lon="-4.1577">
        <ele>87.1</ele>
        <time>2024-04-10T18:00:21.258Z</time>
      </trkpt>
      <trkpt lat="48.00158" lon="-4.15778">
        <ele>86.7</ele>
        <time>2024-04-10T18:00:21.865Z</time>
      </trkpt>
      <trkpt lat="48.00149" lon="-4.1581">
        <ele>85.7</ele>
        <time>2024-04-10T18:00:24.525Z</time>
      </trkpt>
      <trkpt lat="48.0014" lon="-4.15832">
        <ele>86</ele>
        <time>2024-04-10T18:00:27.884Z</time>
      </trkpt>
      <trkpt lat="48.00127" lon="-4.15851">
        <ele>85.6</ele>
        <time>2024-04-10T18:00:30.330Z</time>
      </trkpt>
      <trkpt lat="48.00106" lon="-4.15875">
        <ele>86.1</ele>
        <time>2024-04-10T18:00:35.562Z</time>
      </trkpt>
      <trkpt lat="48.00091" lon="-4.15888">
        <ele>86.5</ele>
        <time>2024-04-10T18:00:39.152Z</time>
      </trkpt>
      <trkpt lat="48.00015" lon="-4.15965">
        <ele>90.1</ele>
        <time>2024-04-10T18:01:02.052Z</time>
      </trkpt>
      <trkpt lat="47.99984" lon="-4.16002">
        <ele>92.5</ele>
        <time>2024-04-10T18:01:15.020Z</time>
      </trkpt>
      <trkpt lat="47.99955" lon="-4.16046">
        <ele>94.7</ele>
        <time>2024-04-10T18:01:27.303Z</time>
      </trkpt>
      <trkpt lat="47.99938" lon="-4.1608">
        <ele>96</ele>
        <time>2024-04-10T18:01:34.981Z</time>
      </trkpt>
      <trkpt lat="47.99926" lon="-4.16117">
        <ele>98.1</ele>
        <time>2024-04-10T18:01:46.121Z</time>
      </trkpt>
      <trkpt lat="47.9992" lon="-4.16149">
        <ele>99</ele>
        <time>2024-04-10T18:01:51.752Z</time>
      </trkpt>
      <trkpt lat="47.99917" lon="-4.16187">
        <ele>100.5</ele>
        <time>2024-04-10T18:01:59.913Z</time>
      </trkpt>
      <trkpt lat="47.99913" lon="-4.16364">
        <ele>104.6</ele>
        <time>2024-04-10T18:02:27.888Z</time>
      </trkpt>
      <trkpt lat="47.99913" lon="-4.16384">
        <ele>104.7</ele>
        <time>2024-04-10T18:02:30.241Z</time>
      </trkpt>
      <trkpt lat="47.99915" lon="-4.16466">
        <ele>106.9</ele>
        <time>2024-04-10T18:02:44.078Z</time>
      </trkpt>
      <trkpt lat="47.99924" lon="-4.16561">
        <ele>110</ele>
        <time>2024-04-10T18:03:01.991Z</time>
      </trkpt>
      <trkpt lat="47.99964" lon="-4.16813">
        <ele>119.7</ele>
        <time>2024-04-10T18:03:55.364Z</time>
      </trkpt>
      <trkpt lat="47.99975" lon="-4.16864">
        <ele>121.5</ele>
        <time>2024-04-10T18:04:05.614Z</time>
      </trkpt>
      <trkpt lat="48.00003" lon="-4.16955">
        <ele>126.2</ele>
        <time>2024-04-10T18:04:30.552Z</time>
      </trkpt>
      <trkpt lat="48.00033" lon="-4.17092">
        <ele>130.6</ele>
        <time>2024-04-10T18:04:56.577Z</time>
      </trkpt>
      <trkpt lat="48.00081" lon="-4.17249">
        <ele>135.7</ele>
        <time>2024-04-10T18:05:27.179Z</time>
        <extensions>
          <visugpx:TrkExtension xmlns:visugpx="https://www.visugpx.com/editgpx/">
            <visugpx:node>4</visugpx:node>
            </visugpx:TrkExtension>
        </extensions>
      </trkpt>
      <trkpt lat="48.00088" lon="-4.17274">
        <ele>136.3</ele>
        <time>2024-04-10T18:05:31.385Z</time>
      </trkpt>
      <trkpt lat="48.0009" lon="-4.17281">
        <ele>136.4</ele>
        <time>2024-04-10T18:05:32.401Z</time>
      </trkpt>
      <trkpt lat="48.00149" lon="-4.17465">
        <ele>141.2</ele>
        <time>2024-04-10T18:06:04.844Z</time>
      </trkpt>
      <trkpt lat="48.00157" lon="-4.17495">
        <ele>143.1</ele>
        <time>2024-04-10T18:06:15.078Z</time>
      </trkpt>
      <trkpt lat="48.00161" lon="-4.17517">
        <ele>144.2</ele>
        <time>2024-04-10T18:06:20.909Z</time>
      </trkpt>
      <trkpt lat="48.00172" lon="-4.1762">
        <ele>148.5</ele>
        <time>2024-04-10T18:06:44.063Z</time>
      </trkpt>
      <trkpt lat="48.00182" lon="-4.17718">
        <ele>150</ele>
        <time>2024-04-10T18:06:57.728Z</time>
      </trkpt>
      <trkpt lat="48.00184" lon="-4.1776">
        <ele>149.6</ele>
        <time>2024-04-10T18:07:01.776Z</time>
      </trkpt>
      <trkpt lat="48.00181" lon="-4.17858">
        <ele>147.5</ele>
        <time>2024-04-10T18:07:09.933Z</time>
      </trkpt>
      <trkpt lat="48.00175" lon="-4.17924">
        <ele>146.7</ele>
        <time>2024-04-10T18:07:16.135Z</time>
      </trkpt>
      <trkpt lat="48.0016" lon="-4.18026">
        <ele>144.3</ele>
        <time>2024-04-10T18:07:24.664Z</time>
      </trkpt>
      <trkpt lat="48.00081" lon="-4.1852">
        <ele>136</ele>
        <time>2024-04-10T18:08:09.493Z</time>
      </trkpt>
      <trkpt lat="48.00045" lon="-4.18669">
        <ele>135.6</ele>
        <time>2024-04-10T18:08:26.215Z</time>
      </trkpt>
      <trkpt lat="47.99987" lon="-4.18898">
        <ele>137.3</ele>
        <time>2024-04-10T18:08:55.873Z</time>
      </trkpt>
      <trkpt lat="47.99962" lon="-4.18982">
        <ele>138.2</ele>
        <time>2024-04-10T18:09:07.508Z</time>
      </trkpt>
      <trkpt lat="47.9993" lon="-4.19072">
        <ele>137.2</ele>
        <time>2024-04-10T18:09:17.267Z</time>
      </trkpt>
      <trkpt lat="47.99904" lon="-4.19168">
        <ele>133.6</ele>
        <time>2024-04-10T18:09:24.731Z</time>
      </trkpt>
      <trkpt lat="47.99892" lon="-4.19228">
        <ele>134.3</ele>
        <time>2024-04-10T18:09:32.831Z</time>
      </trkpt>
      <trkpt lat="47.99888" lon="-4.19252">
        <ele>134.9</ele>
        <time>2024-04-10T18:09:36.815Z</time>
      </trkpt>
      <trkpt lat="47.99879" lon="-4.19391">
        <ele>135.7</ele>
        <time>2024-04-10T18:09:53.423Z</time>
      </trkpt>
      <trkpt lat="47.99881" lon="-4.19415">
        <ele>136</ele>
        <time>2024-04-10T18:09:56.612Z</time>
      </trkpt>
      <trkpt lat="47.99888" lon="-4.19422">
        <ele>136.2</ele>
        <time>2024-04-10T18:09:58.369Z</time>
      </trkpt>
      <trkpt lat="47.99891" lon="-4.19427">
        <ele>136.4</ele>
        <time>2024-04-10T18:09:59.565Z</time>
      </trkpt>
      <trkpt lat="47.99894" lon="-4.19434">
        <ele>136.7</ele>
        <time>2024-04-10T18:10:01.233Z</time>
      </trkpt>
      <trkpt lat="47.99894" lon="-4.1945">
        <ele>137</ele>
        <time>2024-04-10T18:10:03.576Z</time>
      </trkpt>
      <trkpt lat="47.99889" lon="-4.19465">
        <ele>137</ele>
        <time>2024-04-10T18:10:05.409Z</time>
      </trkpt>
      <trkpt lat="47.99881" lon="-4.19473">
        <ele>137</ele>
        <time>2024-04-10T18:10:06.982Z</time>
      </trkpt>
      <trkpt lat="47.99872" lon="-4.19488">
        <ele>136.7</ele>
        <time>2024-04-10T18:10:08.792Z</time>
      </trkpt>
      <trkpt lat="47.99835" lon="-4.19595">
        <ele>135.1</ele>
        <time>2024-04-10T18:10:19.829Z</time>
      </trkpt>
      <trkpt lat="47.99831" lon="-4.19608">
        <ele>135</ele>
        <time>2024-04-10T18:10:21.251Z</time>
      </trkpt>
      <trkpt lat="47.99811" lon="-4.19665">
        <ele>133.5</ele>
        <time>2024-04-10T18:10:26.489Z</time>
      </trkpt>
      <trkpt lat="47.9979" lon="-4.19713">
        <ele>132.6</ele>
        <time>2024-04-10T18:10:31.591Z</time>
      </trkpt>
      <trkpt lat="47.99757" lon="-4.19774">
        <ele>129.6</ele>
        <time>2024-04-10T18:10:37.054Z</time>
      </trkpt>
      <trkpt lat="47.99724" lon="-4.19825">
        <ele>126.6</ele>
        <time>2024-04-10T18:10:41.811Z</time>
      </trkpt>
      <trkpt lat="47.99635" lon="-4.19956">
        <ele>119</ele>
        <time>2024-04-10T18:10:54.513Z</time>
      </trkpt>
      <trkpt lat="47.996" lon="-4.20017">
        <ele>114.3</ele>
        <time>2024-04-10T18:10:59.786Z</time>
      </trkpt>
      <trkpt lat="47.99569" lon="-4.20085">
        <ele>112.5</ele>
        <time>2024-04-10T18:11:06.592Z</time>
      </trkpt>
      <trkpt lat="47.99483" lon="-4.2029">
        <ele>112.2</ele>
        <time>2024-04-10T18:11:32.598Z</time>
      </trkpt>
      <trkpt lat="47.99363" lon="-4.20581">
        <ele>114</ele>
        <time>2024-04-10T18:12:12.970Z</time>
      </trkpt>
      <trkpt lat="47.99297" lon="-4.20772">
        <ele>115.1</ele>
        <time>2024-04-10T18:12:38.304Z</time>
      </trkpt>
      <trkpt lat="47.99227" lon="-4.20982">
        <ele>116.8</ele>
        <time>2024-04-10T18:13:06.855Z</time>
      </trkpt>
      <trkpt lat="47.99214" lon="-4.21032">
        <ele>117.4</ele>
        <time>2024-04-10T18:13:13.795Z</time>
      </trkpt>
      <trkpt lat="47.99204" lon="-4.21111">
        <ele>119.1</ele>
        <time>2024-04-10T18:13:26.060Z</time>
      </trkpt>
      <trkpt lat="47.99203" lon="-4.21167">
        <ele>121.2</ele>
        <time>2024-04-10T18:13:37.613Z</time>
      </trkpt>
      <trkpt lat="47.99204" lon="-4.21226">
        <ele>121.5</ele>
        <time>2024-04-10T18:13:44.565Z</time>
      </trkpt>
      <trkpt lat="47.99219" lon="-4.21439">
        <ele>124</ele>
        <time>2024-04-10T18:14:12.488Z</time>
      </trkpt>
      <trkpt lat="47.99219" lon="-4.21529">
        <ele>123</ele>
        <time>2024-04-10T18:14:20.966Z</time>
      </trkpt>
      <trkpt lat="47.99215" lon="-4.21655">
        <ele>121.7</ele>
        <time>2024-04-10T18:14:32.970Z</time>
      </trkpt>
      <trkpt lat="47.99209" lon="-4.21798">
        <ele>122.5</ele>
        <time>2024-04-10T18:14:49.975Z</time>
      </trkpt>
      <trkpt lat="47.99209" lon="-4.21901">
        <ele>124.2</ele>
        <time>2024-04-10T18:15:04.500Z</time>
      </trkpt>
      <trkpt lat="47.99211" lon="-4.22026">
        <ele>126.2</ele>
        <time>2024-04-10T18:15:21.984Z</time>
      </trkpt>
      <trkpt lat="47.99222" lon="-4.22204">
        <ele>129</ele>
        <time>2024-04-10T18:15:46.843Z</time>
      </trkpt>
      <trkpt lat="47.99234" lon="-4.22326">
        <ele>131.7</ele>
        <time>2024-04-10T18:16:05.901Z</time>
      </trkpt>
      <trkpt lat="47.9924" lon="-4.22371">
        <ele>132.1</ele>
        <time>2024-04-10T18:16:11.612Z</time>
        <extensions>
          <visugpx:TrkExtension xmlns:visugpx="https://www.visugpx.com/editgpx/">
            <visugpx:node>5</visugpx:node>
            </visugpx:TrkExtension>
        </extensions>
      </trkpt>
      <trkpt lat="47.9924" lon="-4.22371">
        <ele>132.1</ele>
        <time>2024-04-10T18:16:11.612Z</time>
      </trkpt>
      <trkpt lat="47.99269" lon="-4.22576">
        <ele>128.9</ele>
        <time>2024-04-10T18:16:30.351Z</time>
      </trkpt>
      <trkpt lat="47.99326" lon="-4.22946">
        <ele>132.3</ele>
        <time>2024-04-10T18:17:17.785Z</time>
      </trkpt>
      <trkpt lat="47.99329" lon="-4.2296">
        <ele>132.7</ele>
        <time>2024-04-10T18:17:20.283Z</time>
      </trkpt>
      <trkpt lat="47.99342" lon="-4.23036">
        <ele>135.4</ele>
        <time>2024-04-10T18:17:35.528Z</time>
      </trkpt>
      <trkpt lat="47.99359" lon="-4.23125">
        <ele>138.1</ele>
        <time>2024-04-10T18:17:51.825Z</time>
      </trkpt>
      <trkpt lat="47.99373" lon="-4.23182">
        <ele>139.4</ele>
        <time>2024-04-10T18:18:01.130Z</time>
      </trkpt>
      <trkpt lat="47.99402" lon="-4.23301">
        <ele>142.3</ele>
        <time>2024-04-10T18:18:21.048Z</time>
        <extensions>
          <visugpx:TrkExtension xmlns:visugpx="https://www.visugpx.com/editgpx/">
            <visugpx:node>6</visugpx:node>
            </visugpx:TrkExtension>
        </extensions>
      </trkpt>
      <trkpt lat="47.99442" lon="-4.23463">
        <ele>146.4</ele>
        <time>2024-04-10T18:18:48.613Z</time>
      </trkpt>
      <trkpt lat="47.99463" lon="-4.23544">
        <ele>146.3</ele>
        <time>2024-04-10T18:18:57.962Z</time>
      </trkpt>
      <trkpt lat="47.99483" lon="-4.23645">
        <ele>148.5</ele>
        <time>2024-04-10T18:19:13.957Z</time>
      </trkpt>
      <trkpt lat="47.99497" lon="-4.23736">
        <ele>149.9</ele>
        <time>2024-04-10T18:19:26.800Z</time>
      </trkpt>
      <trkpt lat="47.99506" lon="-4.23829">
        <ele>150</ele>
        <time>2024-04-10T18:19:37.236Z</time>
      </trkpt>
      <trkpt lat="47.99507" lon="-4.23836">
        <ele>150.2</ele>
        <time>2024-04-10T18:19:38.468Z</time>
      </trkpt>
      <trkpt lat="47.9954" lon="-4.24212">
        <ele>147.4</ele>
        <time>2024-04-10T18:20:15.956Z</time>
      </trkpt>
      <trkpt lat="47.99542" lon="-4.24262">
        <ele>145.1</ele>
        <time>2024-04-10T18:20:19.243Z</time>
      </trkpt>
      <trkpt lat="47.99542" lon="-4.24277">
        <ele>144.5</ele>
        <time>2024-04-10T18:20:20.271Z</time>
      </trkpt>
      <trkpt lat="47.99543" lon="-4.24375">
        <ele>142.1</ele>
        <time>2024-04-10T18:20:28.143Z</time>
      </trkpt>
      <trkpt lat="47.99541" lon="-4.24425">
        <ele>142.1</ele>
        <time>2024-04-10T18:20:33.622Z</time>
      </trkpt>
      <trkpt lat="47.99522" lon="-4.24666">
        <ele>145.4</ele>
        <time>2024-04-10T18:21:06.250Z</time>
      </trkpt>
      <trkpt lat="47.99519" lon="-4.24732">
        <ele>146.6</ele>
        <time>2024-04-10T18:21:15.836Z</time>
      </trkpt>
      <trkpt lat="47.99519" lon="-4.24805">
        <ele>146</ele>
        <time>2024-04-10T18:21:22.974Z</time>
      </trkpt>
      <trkpt lat="47.99528" lon="-4.24901">
        <ele>145</ele>
        <time>2024-04-10T18:21:32.197Z</time>
      </trkpt>
      <trkpt lat="47.99539" lon="-4.24983">
        <ele>144.2</ele>
        <time>2024-04-10T18:21:40.232Z</time>
      </trkpt>
      <trkpt lat="47.99555" lon="-4.25084">
        <ele>143</ele>
        <time>2024-04-10T18:21:49.952Z</time>
      </trkpt>
      <trkpt lat="47.99567" lon="-4.25148">
        <ele>143</ele>
        <time>2024-04-10T18:21:57.222Z</time>
      </trkpt>
      <trkpt lat="47.99572" lon="-4.25173">
        <ele>142.4</ele>
        <time>2024-04-10T18:21:59.353Z</time>
      </trkpt>
      <trkpt lat="47.99617" lon="-4.2544">
        <ele>141</ele>
        <time>2024-04-10T18:22:27.421Z</time>
      </trkpt>
      <trkpt lat="47.99621" lon="-4.25465">
        <ele>141</ele>
        <time>2024-04-10T18:22:30.232Z</time>
      </trkpt>
      <trkpt lat="47.99639" lon="-4.25545">
        <ele>142</ele>
        <time>2024-04-10T18:22:41.266Z</time>
      </trkpt>
      <trkpt lat="47.99654" lon="-4.25593">
        <ele>141.6</ele>
        <time>2024-04-10T18:22:46.492Z</time>
      </trkpt>
      <trkpt lat="47.99669" lon="-4.25636">
        <ele>143</ele>
        <time>2024-04-10T18:22:54.983Z</time>
      </trkpt>
      <trkpt lat="47.99689" lon="-4.25684">
        <ele>142.7</ele>
        <time>2024-04-10T18:23:00.729Z</time>
      </trkpt>
      <trkpt lat="47.99798" lon="-4.25892">
        <ele>144.4</ele>
        <time>2024-04-10T18:23:32.485Z</time>
      </trkpt>
      <trkpt lat="47.99818" lon="-4.25942">
        <ele>144</ele>
        <time>2024-04-10T18:23:38.283Z</time>
      </trkpt>
      <trkpt lat="47.99833" lon="-4.25989">
        <ele>142.4</ele>
        <time>2024-04-10T18:23:42.193Z</time>
      </trkpt>
      <trkpt lat="47.99843" lon="-4.26031">
        <ele>142.2</ele>
        <time>2024-04-10T18:23:46.774Z</time>
      </trkpt>
      <trkpt lat="47.99855" lon="-4.26095">
        <ele>140.4</ele>
        <time>2024-04-10T18:23:51.962Z</time>
      </trkpt>
      <trkpt lat="47.99861" lon="-4.26147">
        <ele>137.7</ele>
        <time>2024-04-10T18:23:55.425Z</time>
      </trkpt>
      <trkpt lat="47.99869" lon="-4.26371">
        <ele>132.2</ele>
        <time>2024-04-10T18:24:13.434Z</time>
      </trkpt>
      <trkpt lat="47.99875" lon="-4.26544">
        <ele>134.1</ele>
        <time>2024-04-10T18:24:35.767Z</time>
      </trkpt>
      <trkpt lat="47.99876" lon="-4.26574">
        <ele>135.6</ele>
        <time>2024-04-10T18:24:43.718Z</time>
      </trkpt>
      <trkpt lat="47.99885" lon="-4.26746">
        <ele>140.6</ele>
        <time>2024-04-10T18:25:13.989Z</time>
      </trkpt>
      <trkpt lat="47.99929" lon="-4.27069">
        <ele>139</ele>
        <time>2024-04-10T18:25:47.693Z</time>
      </trkpt>
      <trkpt lat="47.9994" lon="-4.27089">
        <ele>138.7</ele>
        <time>2024-04-10T18:25:50.116Z</time>
      </trkpt>
      <trkpt lat="47.99946" lon="-4.27094">
        <ele>138.7</ele>
        <time>2024-04-10T18:25:51.239Z</time>
      </trkpt>
      <trkpt lat="47.99949" lon="-4.27102">
        <ele>138.5</ele>
        <time>2024-04-10T18:25:51.998Z</time>
      </trkpt>
      <trkpt lat="47.9995" lon="-4.27112">
        <ele>138.2</ele>
        <time>2024-04-10T18:25:52.766Z</time>
      </trkpt>
      <trkpt lat="47.99945" lon="-4.27124">
        <ele>138</ele>
        <time>2024-04-10T18:25:54.048Z</time>
      </trkpt>
      <trkpt lat="47.99949" lon="-4.27157">
        <ele>137.3</ele>
        <time>2024-04-10T18:25:56.854Z</time>
      </trkpt>
      <trkpt lat="47.99963" lon="-4.27218">
        <ele>135.4</ele>
        <time>2024-04-10T18:26:01.761Z</time>
      </trkpt>
      <trkpt lat="47.99995" lon="-4.27367">
        <ele>131.6</ele>
        <time>2024-04-10T18:26:14.357Z</time>
      </trkpt>
      <trkpt lat="47.99999" lon="-4.27384">
        <ele>131.9</ele>
        <time>2024-04-10T18:26:16.904Z</time>
      </trkpt>
      <trkpt lat="48.00003" lon="-4.27415">
        <ele>131.3</ele>
        <time>2024-04-10T18:26:19.603Z</time>
      </trkpt>
      <trkpt lat="48.00003" lon="-4.2746">
        <ele>130.2</ele>
        <time>2024-04-10T18:26:23.219Z</time>
      </trkpt>
      <trkpt lat="47.99991" lon="-4.27696">
        <ele>129.3</ele>
        <time>2024-04-10T18:26:47.768Z</time>
      </trkpt>
      <trkpt lat="47.99984" lon="-4.27757">
        <ele>128.1</ele>
        <time>2024-04-10T18:26:53.036Z</time>
      </trkpt>
      <trkpt lat="47.99959" lon="-4.27916">
        <ele>129</ele>
        <time>2024-04-10T18:27:12.396Z</time>
      </trkpt>
      <trkpt lat="47.99947" lon="-4.27982">
        <ele>130.4</ele>
        <time>2024-04-10T18:27:22.708Z</time>
      </trkpt>
      <trkpt lat="47.99926" lon="-4.28078">
        <ele>133.8</ele>
        <time>2024-04-10T18:27:42.055Z</time>
      </trkpt>
      <trkpt lat="47.9992" lon="-4.28114">
        <ele>134</ele>
        <time>2024-04-10T18:27:46.444Z</time>
      </trkpt>
      <trkpt lat="47.99909" lon="-4.2825">
        <ele>134</ele>
        <time>2024-04-10T18:28:01.428Z</time>
      </trkpt>
      <trkpt lat="47.99899" lon="-4.28301">
        <ele>132.5</ele>
        <time>2024-04-10T18:28:05.525Z</time>
      </trkpt>
      <trkpt lat="47.99835" lon="-4.28503">
        <ele>126</ele>
        <time>2024-04-10T18:28:22.601Z</time>
      </trkpt>
      <trkpt lat="47.9982" lon="-4.28552">
        <ele>125</ele>
        <time>2024-04-10T18:28:27.233Z</time>
      </trkpt>
      <trkpt lat="47.99812" lon="-4.28587">
        <ele>125.3</ele>
        <time>2024-04-10T18:28:31.794Z</time>
      </trkpt>
      <trkpt lat="47.99806" lon="-4.28616">
        <ele>126</ele>
        <time>2024-04-10T18:28:36.581Z</time>
      </trkpt>
      <trkpt lat="47.998" lon="-4.28661">
        <ele>125.6</ele>
        <time>2024-04-10T18:28:41.038Z</time>
      </trkpt>
      <trkpt lat="47.99788" lon="-4.28765">
        <ele>125</ele>
        <time>2024-04-10T18:28:51.709Z</time>
      </trkpt>
      <trkpt lat="47.99779" lon="-4.28915">
        <ele>123</ele>
        <time>2024-04-10T18:29:05.511Z</time>
      </trkpt>
      <trkpt lat="47.99779" lon="-4.28921">
        <ele>123</ele>
        <time>2024-04-10T18:29:06.167Z</time>
      </trkpt>
      <trkpt lat="47.9978" lon="-4.28956">
        <ele>122.6</ele>
        <time>2024-04-10T18:29:09.454Z</time>
      </trkpt>
      <trkpt lat="47.99784" lon="-4.28985">
        <ele>122</ele>
        <time>2024-04-10T18:29:11.949Z</time>
      </trkpt>
      <trkpt lat="47.99799" lon="-4.29041">
        <ele>120.5</ele>
        <time>2024-04-10T18:29:16.773Z</time>
      </trkpt>
      <trkpt lat="47.99805" lon="-4.29061">
        <ele>120</ele>
        <time>2024-04-10T18:29:18.566Z</time>
      </trkpt>
      <trkpt lat="47.99842" lon="-4.29138">
        <ele>118</ele>
        <time>2024-04-10T18:29:26.477Z</time>
      </trkpt>
      <trkpt lat="47.99865" lon="-4.29178">
        <ele>117.6</ele>
        <time>2024-04-10T18:29:31.677Z</time>
      </trkpt>
      <trkpt lat="47.9989" lon="-4.29234">
        <ele>116.6</ele>
        <time>2024-04-10T18:29:37.727Z</time>
      </trkpt>
      <trkpt lat="47.99902" lon="-4.29267">
        <ele>116.2</ele>
        <time>2024-04-10T18:29:41.285Z</time>
      </trkpt>
      <trkpt lat="47.99913" lon="-4.29307">
        <ele>115</ele>
        <time>2024-04-10T18:29:44.637Z</time>
      </trkpt>
      <trkpt lat="47.99926" lon="-4.29362">
        <ele>115</ele>
        <time>2024-04-10T18:29:51.017Z</time>
      </trkpt>
      <trkpt lat="47.99975" lon="-4.29644">
        <ele>112</ele>
        <time>2024-04-10T18:30:18.743Z</time>
      </trkpt>
      <trkpt lat="47.9998" lon="-4.2971">
        <ele>111.7</ele>
        <time>2024-04-10T18:30:25.566Z</time>
      </trkpt>
      <trkpt lat="47.99985" lon="-4.29927">
        <ele>109.5</ele>
        <time>2024-04-10T18:30:46.273Z</time>
      </trkpt>
      <trkpt lat="47.99987" lon="-4.2998">
        <ele>108.5</ele>
        <time>2024-04-10T18:30:50.821Z</time>
      </trkpt>
      <trkpt lat="47.99985" lon="-4.30015">
        <ele>108.3</ele>
        <time>2024-04-10T18:30:54.372Z</time>
      </trkpt>
      <trkpt lat="47.9998" lon="-4.3005">
        <ele>107.9</ele>
        <time>2024-04-10T18:30:57.740Z</time>
      </trkpt>
      <trkpt lat="47.9994" lon="-4.30241">
        <ele>106.2</ele>
        <time>2024-04-10T18:31:17.235Z</time>
      </trkpt>
      <trkpt lat="47.99922" lon="-4.30353">
        <ele>106</ele>
        <time>2024-04-10T18:31:29.529Z</time>
      </trkpt>
      <trkpt lat="47.99912" lon="-4.30432">
        <ele>106.2</ele>
        <time>2024-04-10T18:31:38.644Z</time>
      </trkpt>
      <trkpt lat="47.99903" lon="-4.30517">
        <ele>105.5</ele>
        <time>2024-04-10T18:31:47.066Z</time>
      </trkpt>
      <trkpt lat="47.99887" lon="-4.3081">
        <ele>107.1</ele>
        <time>2024-04-10T18:32:21.877Z</time>
      </trkpt>
      <trkpt lat="47.99887" lon="-4.30827">
        <ele>107.1</ele>
        <time>2024-04-10T18:32:23.737Z</time>
      </trkpt>
      <trkpt lat="47.99887" lon="-4.30827">
        <ele>107.1</ele>
        <time>2024-04-10T18:32:23.737Z</time>
        <extensions>
          <visugpx:TrkExtension xmlns:visugpx="https://www.visugpx.com/editgpx/">
            <visugpx:node>7</visugpx:node>
            </visugpx:TrkExtension>
        </extensions>
      </trkpt>
      <trkpt lat="47.99886" lon="-4.30911">
        <ele>108.1</ele>
        <time>2024-04-10T18:32:34.729Z</time>
      </trkpt>
      <trkpt lat="47.99884" lon="-4.30941">
        <ele>108.9</ele>
        <time>2024-04-10T18:32:39.788Z</time>
      </trkpt>
      <trkpt lat="47.99862" lon="-4.31104">
        <ele>106.2</ele>
        <time>2024-04-10T18:32:54.483Z</time>
      </trkpt>
      <trkpt lat="47.99857" lon="-4.3115">
        <ele>106.1</ele>
        <time>2024-04-10T18:32:59.429Z</time>
      </trkpt>
      <trkpt lat="47.99853" lon="-4.31225">
        <ele>105.4</ele>
        <time>2024-04-10T18:33:06.681Z</time>
      </trkpt>
      <trkpt lat="47.99853" lon="-4.31284">
        <ele>106</ele>
        <time>2024-04-10T18:33:14.193Z</time>
      </trkpt>
      <trkpt lat="47.99861" lon="-4.31495">
        <ele>107</ele>
        <time>2024-04-10T18:33:38.954Z</time>
      </trkpt>
      <trkpt lat="47.99869" lon="-4.31637">
        <ele>108.7</ele>
        <time>2024-04-10T18:33:57.607Z</time>
      </trkpt>
      <trkpt lat="47.99874" lon="-4.31734">
        <ele>108.6</ele>
        <time>2024-04-10T18:34:08.095Z</time>
      </trkpt>
      <trkpt lat="47.99882" lon="-4.31848">
        <ele>108.8</ele>
        <time>2024-04-10T18:34:20.949Z</time>
      </trkpt>
      <trkpt lat="47.9989" lon="-4.31908">
        <ele>108.7</ele>
        <time>2024-04-10T18:34:27.489Z</time>
      </trkpt>
      <trkpt lat="47.99895" lon="-4.31941">
        <ele>109.9</ele>
        <time>2024-04-10T18:34:34.198Z</time>
      </trkpt>
      <trkpt lat="47.99901" lon="-4.31966">
        <ele>111.2</ele>
        <time>2024-04-10T18:34:41.088Z</time>
      </trkpt>
      <trkpt lat="47.99909" lon="-4.31988">
        <ele>111.4</ele>
        <time>2024-04-10T18:34:44.170Z</time>
      </trkpt>
      <trkpt lat="47.99954" lon="-4.32098">
        <ele>111.7</ele>
        <time>2024-04-10T18:34:58.751Z</time>
      </trkpt>
      <trkpt lat="47.99966" lon="-4.32144">
        <ele>111.3</ele>
        <time>2024-04-10T18:35:03.585Z</time>
      </trkpt>
      <trkpt lat="47.99974" lon="-4.32187">
        <ele>111.5</ele>
        <time>2024-04-10T18:35:08.795Z</time>
      </trkpt>
      <trkpt lat="47.99982" lon="-4.32239">
        <ele>111.8</ele>
        <time>2024-04-10T18:35:15.130Z</time>
      </trkpt>
      <trkpt lat="47.99987" lon="-4.32292">
        <ele>110.9</ele>
        <time>2024-04-10T18:35:19.827Z</time>
      </trkpt>
      <trkpt lat="47.99997" lon="-4.32495">
        <ele>111.1</ele>
        <time>2024-04-10T18:35:42.405Z</time>
      </trkpt>
      <trkpt lat="48.00001" lon="-4.32568">
        <ele>114.4</ele>
        <time>2024-04-10T18:35:59.963Z</time>
      </trkpt>
      <trkpt lat="48.00007" lon="-4.32755">
        <ele>120.4</ele>
        <time>2024-04-10T18:36:34.743Z</time>
      </trkpt>
      <trkpt lat="48.00006" lon="-4.32807">
        <ele>121.2</ele>
        <time>2024-04-10T18:36:41.943Z</time>
      </trkpt>
      <trkpt lat="48.00004" lon="-4.32896">
        <ele>121</ele>
        <time>2024-04-10T18:36:51.380Z</time>
      </trkpt>
      <trkpt lat="48.00001" lon="-4.33076">
        <ele>121</ele>
        <time>2024-04-10T18:37:11.073Z</time>
      </trkpt>
      <trkpt lat="48.00001" lon="-4.33085">
        <ele>121.1</ele>
        <time>2024-04-10T18:37:12.236Z</time>
      </trkpt>
      <trkpt lat="48.00001" lon="-4.3309">
        <ele>121.2</ele>
        <time>2024-04-10T18:37:12.984Z</time>
      </trkpt>
      <trkpt lat="47.99996" lon="-4.33327">
        <ele>118.1</ele>
        <time>2024-04-10T18:37:34.769Z</time>
      </trkpt>
      <trkpt lat="47.99998" lon="-4.33343">
        <ele>117.6</ele>
        <time>2024-04-10T18:37:35.992Z</time>
      </trkpt>
      <trkpt lat="48.00001" lon="-4.33349">
        <ele>117.4</ele>
        <time>2024-04-10T18:37:36.579Z</time>
      </trkpt>
      <trkpt lat="48.00002" lon="-4.33354">
        <ele>117.3</ele>
        <time>2024-04-10T18:37:37.024Z</time>
      </trkpt>
      <trkpt lat="48" lon="-4.33361">
        <ele>117</ele>
        <time>2024-04-10T18:37:37.549Z</time>
      </trkpt>
      <trkpt lat="47.99997" lon="-4.33363">
        <ele>117.1</ele>
        <time>2024-04-10T18:37:38.287Z</time>
      </trkpt>
      <trkpt lat="47.99996" lon="-4.33381">
        <ele>117.7</ele>
        <time>2024-04-10T18:37:41.718Z</time>
      </trkpt>
      <trkpt lat="47.99996" lon="-4.33438">
        <ele>119.1</ele>
        <time>2024-04-10T18:37:50.949Z</time>
      </trkpt>
      <trkpt lat="47.99998" lon="-4.33482">
        <ele>120.1</ele>
        <time>2024-04-10T18:37:57.858Z</time>
      </trkpt>
      <trkpt lat="48.00002" lon="-4.3352">
        <ele>120.6</ele>
        <time>2024-04-10T18:38:02.980Z</time>
      </trkpt>
      <trkpt lat="48.00004" lon="-4.3353">
        <ele>120.9</ele>
        <time>2024-04-10T18:38:04.803Z</time>
      </trkpt>
      <trkpt lat="48.00011" lon="-4.33594">
        <ele>120.8</ele>
        <time>2024-04-10T18:38:11.743Z</time>
      </trkpt>
      <trkpt lat="48.00025" lon="-4.33694">
        <ele>120</ele>
        <time>2024-04-10T18:38:21.782Z</time>
      </trkpt>
      <trkpt lat="48.00026" lon="-4.33706">
        <ele>120</ele>
        <time>2024-04-10T18:38:23.105Z</time>
      </trkpt>
      <trkpt lat="48.00028" lon="-4.33719">
        <ele>120</ele>
        <time>2024-04-10T18:38:24.564Z</time>
      </trkpt>
      <trkpt lat="48.0003" lon="-4.33737">
        <ele>120</ele>
        <time>2024-04-10T18:38:26.560Z</time>
      </trkpt>
      <trkpt lat="48.00041" lon="-4.33765">
        <ele>119.7</ele>
        <time>2024-04-10T18:38:29.692Z</time>
      </trkpt>
      <trkpt lat="48.00047" lon="-4.33781">
        <ele>119.5</ele>
        <time>2024-04-10T18:38:31.424Z</time>
      </trkpt>
      <trkpt lat="48.0005" lon="-4.33784">
        <ele>119.5</ele>
        <time>2024-04-10T18:38:32.014Z</time>
      </trkpt>
      <trkpt lat="48.00052" lon="-4.33793">
        <ele>119.3</ele>
        <time>2024-04-10T18:38:32.805Z</time>
      </trkpt>
      <trkpt lat="48.00048" lon="-4.338">
        <ele>118.7</ele>
        <time>2024-04-10T18:38:33.409Z</time>
      </trkpt>
      <trkpt lat="48.00045" lon="-4.33801">
        <ele>118.5</ele>
        <time>2024-04-10T18:38:33.714Z</time>
      </trkpt>
      <trkpt lat="48.00037" lon="-4.33818">
        <ele>117.2</ele>
        <time>2024-04-10T18:38:35.078Z</time>
      </trkpt>
      <trkpt lat="48.00037" lon="-4.33821">
        <ele>117.1</ele>
        <time>2024-04-10T18:38:35.297Z</time>
      </trkpt>
      <trkpt lat="48.00029" lon="-4.33952">
        <ele>110.8</ele>
        <time>2024-04-10T18:38:43.929Z</time>
      </trkpt>
      <trkpt lat="48.00024" lon="-4.34031">
        <ele>109.7</ele>
        <time>2024-04-10T18:38:51.149Z</time>
      </trkpt>
      <trkpt lat="48.00009" lon="-4.34227">
        <ele>108.6</ele>
        <time>2024-04-10T18:39:11.124Z</time>
      </trkpt>
      <trkpt lat="48.00001" lon="-4.34346">
        <ele>107.1</ele>
        <time>2024-04-10T18:39:22.186Z</time>
      </trkpt>
      <trkpt lat="47.99996" lon="-4.3441">
        <ele>106.7</ele>
        <time>2024-04-10T18:39:28.656Z</time>
      </trkpt>
      <trkpt lat="47.99976" lon="-4.34676">
        <ele>103.3</ele>
        <time>2024-04-10T18:39:53.363Z</time>
      </trkpt>
      <trkpt lat="47.99936" lon="-4.35242">
        <ele>91.9</ele>
        <time>2024-04-10T18:40:41.449Z</time>
      </trkpt>
      <trkpt lat="47.99931" lon="-4.35328">
        <ele>94.3</ele>
        <time>2024-04-10T18:40:56.270Z</time>
      </trkpt>
      <trkpt lat="47.99925" lon="-4.35408">
        <ele>93.6</ele>
        <time>2024-04-10T18:41:04.092Z</time>
      </trkpt>
      <trkpt lat="47.99924" lon="-4.35426">
        <ele>93.3</ele>
        <time>2024-04-10T18:41:05.681Z</time>
      </trkpt>
      <trkpt lat="47.99915" lon="-4.35533">
        <ele>91.6</ele>
        <time>2024-04-10T18:41:15.266Z</time>
      </trkpt>
      <trkpt lat="47.9991" lon="-4.35572">
        <ele>90.5</ele>
        <time>2024-04-10T18:41:18.345Z</time>
      </trkpt>
      <trkpt lat="47.99905" lon="-4.35596">
        <ele>89.9</ele>
        <time>2024-04-10T18:41:20.378Z</time>
      </trkpt>
      <trkpt lat="47.9989" lon="-4.3578">
        <ele>86</ele>
        <time>2024-04-10T18:41:35.857Z</time>
      </trkpt>
      <trkpt lat="47.9987" lon="-4.3606">
        <ele>85.8</ele>
        <time>2024-04-10T18:42:06.348Z</time>
      </trkpt>
      <trkpt lat="47.99866" lon="-4.36187">
        <ele>87.7</ele>
        <time>2024-04-10T18:42:23.819Z</time>
      </trkpt>
      <trkpt lat="47.99857" lon="-4.36338">
        <ele>87.8</ele>
        <time>2024-04-10T18:42:40.557Z</time>
      </trkpt>
      <trkpt lat="47.99849" lon="-4.36454">
        <ele>85.7</ele>
        <time>2024-04-10T18:42:50.647Z</time>
      </trkpt>
      <trkpt lat="47.9984" lon="-4.36576">
        <ele>82.3</ele>
        <time>2024-04-10T18:43:00.164Z</time>
      </trkpt>
      <trkpt lat="47.99805" lon="-4.37003">
        <ele>73</ele>
        <time>2024-04-10T18:43:35.850Z</time>
      </trkpt>
      <trkpt lat="47.99787" lon="-4.37212">
        <ele>71.8</ele>
        <time>2024-04-10T18:43:57.154Z</time>
      </trkpt>
      <trkpt lat="47.9978" lon="-4.37273">
        <ele>72</ele>
        <time>2024-04-10T18:44:04.247Z</time>
      </trkpt>
      <trkpt lat="47.99765" lon="-4.37347">
        <ele>72.5</ele>
        <time>2024-04-10T18:44:13.545Z</time>
      </trkpt>
      <trkpt lat="47.9974" lon="-4.37433">
        <ele>72.9</ele>
        <time>2024-04-10T18:44:24.456Z</time>
      </trkpt>
      <trkpt lat="47.99724" lon="-4.37477">
        <ele>73</ele>
        <time>2024-04-10T18:44:30.093Z</time>
      </trkpt>
      <trkpt lat="47.99698" lon="-4.3754">
        <ele>74.9</ele>
        <time>2024-04-10T18:44:42.320Z</time>
      </trkpt>
      <trkpt lat="47.9965" lon="-4.37653">
        <ele>74.3</ele>
        <time>2024-04-10T18:44:56.076Z</time>
      </trkpt>
      <trkpt lat="47.99629" lon="-4.37708">
        <ele>74.7</ele>
        <time>2024-04-10T18:45:03.674Z</time>
      </trkpt>
      <trkpt lat="47.99623" lon="-4.37726">
        <ele>75</ele>
        <time>2024-04-10T18:45:06.436Z</time>
      </trkpt>
      <trkpt lat="47.99604" lon="-4.37786">
        <ele>75.6</ele>
        <time>2024-04-10T18:45:14.739Z</time>
      </trkpt>
      <trkpt lat="47.99593" lon="-4.37827">
        <ele>75.3</ele>
        <time>2024-04-10T18:45:19.140Z</time>
      </trkpt>
      <trkpt lat="47.99584" lon="-4.37864">
        <ele>75.1</ele>
        <time>2024-04-10T18:45:23.154Z</time>
      </trkpt>
      <trkpt lat="47.99567" lon="-4.37945">
        <ele>76.4</ele>
        <time>2024-04-10T18:45:34.891Z</time>
      </trkpt>
      <trkpt lat="47.9956" lon="-4.3799">
        <ele>76.2</ele>
        <time>2024-04-10T18:45:39.649Z</time>
      </trkpt>
      <trkpt lat="47.99539" lon="-4.38164">
        <ele>78</ele>
        <time>2024-04-10T18:46:02.163Z</time>
      </trkpt>
      <trkpt lat="47.99512" lon="-4.38403">
        <ele>81</ele>
        <time>2024-04-10T18:46:34.119Z</time>
      </trkpt>
      <trkpt lat="47.99507" lon="-4.38475">
        <ele>82</ele>
        <time>2024-04-10T18:46:43.886Z</time>
        <extensions>
          <visugpx:TrkExtension xmlns:visugpx="https://www.visugpx.com/editgpx/">
            <visugpx:node>8</visugpx:node>
            </visugpx:TrkExtension>
        </extensions>
      </trkpt>
      <trkpt lat="47.99503" lon="-4.38548">
        <ele>82.1</ele>
        <time>2024-04-10T18:46:52.055Z</time>
      </trkpt>
      <trkpt lat="47.9949" lon="-4.38989">
        <ele>84.4</ele>
        <time>2024-04-10T18:47:44.150Z</time>
      </trkpt>
      <trkpt lat="47.99482" lon="-4.39263">
        <ele>83</ele>
        <time>2024-04-10T18:48:12.100Z</time>
      </trkpt>
      <trkpt lat="47.99479" lon="-4.39374">
        <ele>82.5</ele>
        <time>2024-04-10T18:48:23.515Z</time>
      </trkpt>
      <trkpt lat="47.99479" lon="-4.39392">
        <ele>82</ele>
        <time>2024-04-10T18:48:24.909Z</time>
      </trkpt>
      <trkpt lat="47.99476" lon="-4.39443">
        <ele>82</ele>
        <time>2024-04-10T18:48:30.510Z</time>
      </trkpt>
      <trkpt lat="47.99439" lon="-4.39898">
        <ele>77.5</ele>
        <time>2024-04-10T18:49:14.403Z</time>
      </trkpt>
      <trkpt lat="47.9941" lon="-4.4018">
        <ele>74.5</ele>
        <time>2024-04-10T18:49:41.482Z</time>
      </trkpt>
      <trkpt lat="47.99406" lon="-4.40243">
        <ele>74.8</ele>
        <time>2024-04-10T18:49:48.898Z</time>
      </trkpt>
      <trkpt lat="47.99402" lon="-4.40522">
        <ele>72.9</ele>
        <time>2024-04-10T18:50:16.696Z</time>
      </trkpt>
      <trkpt lat="47.994" lon="-4.40605">
        <ele>71.9</ele>
        <time>2024-04-10T18:50:24.428Z</time>
      </trkpt>
      <trkpt lat="47.99395" lon="-4.40862">
        <ele>74.8</ele>
        <time>2024-04-10T18:50:57.739Z</time>
      </trkpt>
      <trkpt lat="47.99391" lon="-4.40946">
        <ele>76.1</ele>
        <time>2024-04-10T18:51:09.406Z</time>
      </trkpt>
      <trkpt lat="47.99386" lon="-4.41002">
        <ele>76.1</ele>
        <time>2024-04-10T18:51:15.586Z</time>
      </trkpt>
      <trkpt lat="47.99336" lon="-4.41302">
        <ele>75.8</ele>
        <time>2024-04-10T18:51:48.944Z</time>
      </trkpt>
      <trkpt lat="47.99334" lon="-4.41313">
        <ele>76</ele>
        <time>2024-04-10T18:51:50.579Z</time>
      </trkpt>
      <trkpt lat="47.99319" lon="-4.414">
        <ele>75.7</ele>
        <time>2024-04-10T18:51:59.959Z</time>
      </trkpt>
      <trkpt lat="47.99312" lon="-4.41441">
        <ele>76.3</ele>
        <time>2024-04-10T18:52:05.702Z</time>
      </trkpt>
      <trkpt lat="47.99296" lon="-4.41534">
        <ele>77.7</ele>
        <time>2024-04-10T18:52:18.821Z</time>
      </trkpt>
      <trkpt lat="47.99266" lon="-4.41718">
        <ele>76.2</ele>
        <time>2024-04-10T18:52:37.411Z</time>
      </trkpt>
      <trkpt lat="47.99249" lon="-4.41831">
        <ele>73.9</ele>
        <time>2024-04-10T18:52:47.217Z</time>
      </trkpt>
      <trkpt lat="47.99242" lon="-4.41856">
        <ele>72.8</ele>
        <time>2024-04-10T18:52:49.063Z</time>
      </trkpt>
      <trkpt lat="47.99246" lon="-4.41861">
        <ele>72.9</ele>
        <time>2024-04-10T18:52:50.098Z</time>
      </trkpt>
      <trkpt lat="47.99247" lon="-4.41865">
        <ele>72.9</ele>
        <time>2024-04-10T18:52:50.565Z</time>
      </trkpt>
      <trkpt lat="47.99245" lon="-4.41872">
        <ele>72.8</ele>
        <time>2024-04-10T18:52:51.264Z</time>
      </trkpt>
      <trkpt lat="47.9924" lon="-4.41875">
        <ele>72.6</ele>
        <time>2024-04-10T18:52:51.908Z</time>
      </trkpt>
      <trkpt lat="47.99241" lon="-4.41889">
        <ele>72.7</ele>
        <time>2024-04-10T18:52:53.618Z</time>
      </trkpt>
      <trkpt lat="47.99231" lon="-4.41952">
        <ele>71.5</ele>
        <time>2024-04-10T18:52:59.186Z</time>
      </trkpt>
      <trkpt lat="47.99224" lon="-4.41979">
        <ele>72</ele>
        <time>2024-04-10T18:53:03.322Z</time>
      </trkpt>
      <trkpt lat="47.99218" lon="-4.41995">
        <ele>72</ele>
        <time>2024-04-10T18:53:05.328Z</time>
      </trkpt>
      <trkpt lat="47.99208" lon="-4.42014">
        <ele>72</ele>
        <time>2024-04-10T18:53:07.972Z</time>
      </trkpt>
      <trkpt lat="47.99199" lon="-4.42026">
        <ele>72</ele>
        <time>2024-04-10T18:53:09.944Z</time>
      </trkpt>
      <trkpt lat="47.99185" lon="-4.42042">
        <ele>72.5</ele>
        <time>2024-04-10T18:53:13.815Z</time>
      </trkpt>
      <trkpt lat="47.98994" lon="-4.4218">
        <ele>73.8</ele>
        <time>2024-04-10T18:53:50.617Z</time>
      </trkpt>
      <trkpt lat="47.98947" lon="-4.42212">
        <ele>73.1</ele>
        <time>2024-04-10T18:53:58.080Z</time>
      </trkpt>
      <trkpt lat="47.98933" lon="-4.42223">
        <ele>72.6</ele>
        <time>2024-04-10T18:54:00.052Z</time>
      </trkpt>
      <trkpt lat="47.98833" lon="-4.42304">
        <ele>73</ele>
        <time>2024-04-10T18:54:19.284Z</time>
      </trkpt>
      <trkpt lat="47.98821" lon="-4.42313">
        <ele>73</ele>
        <time>2024-04-10T18:54:21.479Z</time>
      </trkpt>
      <trkpt lat="47.98752" lon="-4.42368">
        <ele>72.8</ele>
        <time>2024-04-10T18:54:33.958Z</time>
      </trkpt>
      <trkpt lat="47.98741" lon="-4.42375">
        <ele>72.3</ele>
        <time>2024-04-10T18:54:35.339Z</time>
        <extensions>
          <visugpx:TrkExtension xmlns:visugpx="https://www.visugpx.com/editgpx/">
            <visugpx:node>9</visugpx:node>
            </visugpx:TrkExtension>
        </extensions>
      </trkpt>
      <trkpt lat="47.98741" lon="-4.42375">
        <ele>72.3</ele>
        <time>2024-04-10T18:54:35.339Z</time>
      </trkpt>
      <trkpt lat="47.98734" lon="-4.42379">
        <ele>72.2</ele>
        <time>2024-04-10T18:54:36.424Z</time>
      </trkpt>
      <trkpt lat="47.98645" lon="-4.42444">
        <ele>69.2</ele>
        <time>2024-04-10T18:54:48.898Z</time>
      </trkpt>
      <trkpt lat="47.98644" lon="-4.42445">
        <ele>69.2</ele>
        <time>2024-04-10T18:54:49.095Z</time>
      </trkpt>
      <trkpt lat="47.98584" lon="-4.42489">
        <ele>67</ele>
        <time>2024-04-10T18:54:57.342Z</time>
      </trkpt>
      <trkpt lat="47.98573" lon="-4.42497">
        <ele>66.6</ele>
        <time>2024-04-10T18:54:58.854Z</time>
      </trkpt>
      <trkpt lat="47.98567" lon="-4.42504">
        <ele>66.4</ele>
        <time>2024-04-10T18:54:59.843Z</time>
      </trkpt>
      <trkpt lat="47.98563" lon="-4.42513">
        <ele>66.3</ele>
        <time>2024-04-10T18:55:00.886Z</time>
      </trkpt>
      <trkpt lat="47.98557" lon="-4.42542">
        <ele>66.1</ele>
        <time>2024-04-10T18:55:03.919Z</time>
      </trkpt>
      <trkpt lat="47.98557" lon="-4.42544">
        <ele>66.1</ele>
        <time>2024-04-10T18:55:04.138Z</time>
        <extensions>
          <visugpx:TrkExtension xmlns:visugpx="https://www.visugpx.com/editgpx/">
            <visugpx:node>10</visugpx:node>
            </visugpx:TrkExtension>
        </extensions>
      </trkpt>
      <trkpt lat="47.98543" lon="-4.4261">
        <ele>65</ele>
        <time>2024-04-10T18:55:10.284Z</time>
      </trkpt>
      <trkpt lat="47.98543" lon="-4.42613">
        <ele>65.1</ele>
        <time>2024-04-10T18:55:10.855Z</time>
      </trkpt>
      <trkpt lat="47.98542" lon="-4.4262">
        <ele>65.3</ele>
        <time>2024-04-10T18:55:12.088Z</time>
      </trkpt>
      <trkpt lat="47.98544" lon="-4.42634">
        <ele>65.8</ele>
        <time>2024-04-10T18:55:14.897Z</time>
      </trkpt>
      <trkpt lat="47.98551" lon="-4.42645">
        <ele>66.3</ele>
        <time>2024-04-10T18:55:17.765Z</time>
      </trkpt>
      <trkpt lat="47.98582" lon="-4.42664">
        <ele>67.9</ele>
        <time>2024-04-10T18:55:27.051Z</time>
      </trkpt>
      <trkpt lat="47.98597" lon="-4.42675">
        <ele>68</ele>
        <time>2024-04-10T18:55:29.945Z</time>
      </trkpt>
      <trkpt lat="47.98626" lon="-4.42701">
        <ele>69.2</ele>
        <time>2024-04-10T18:55:38.013Z</time>
      </trkpt>
      <trkpt lat="47.9864" lon="-4.42714">
        <ele>69.7</ele>
        <time>2024-04-10T18:55:41.716Z</time>
      </trkpt>
      <trkpt lat="47.98657" lon="-4.42731">
        <ele>69.7</ele>
        <time>2024-04-10T18:55:45.060Z</time>
      </trkpt>
      <trkpt lat="47.98691" lon="-4.42763">
        <ele>70.1</ele>
        <time>2024-04-10T18:55:52.303Z</time>
      </trkpt>
      <trkpt lat="47.98728" lon="-4.42805">
        <ele>70</ele>
        <time>2024-04-10T18:55:59.745Z</time>
      </trkpt>
      <trkpt lat="47.98793" lon="-4.4288">
        <ele>71</ele>
        <time>2024-04-10T18:56:14.888Z</time>
      </trkpt>
      <trkpt lat="47.98936" lon="-4.43043">
        <ele>74</ele>
        <time>2024-04-10T18:56:49.645Z</time>
      </trkpt>
      <trkpt lat="47.98951" lon="-4.43063">
        <ele>74</ele>
        <time>2024-04-10T18:56:52.931Z</time>
      </trkpt>
      <trkpt lat="47.9898" lon="-4.43108">
        <ele>74.3</ele>
        <time>2024-04-10T18:57:00.259Z</time>
      </trkpt>
      <trkpt lat="47.99001" lon="-4.43139">
        <ele>75</ele>
        <time>2024-04-10T18:57:06.415Z</time>
      </trkpt>
      <trkpt lat="47.99059" lon="-4.43228">
        <ele>75</ele>
        <time>2024-04-10T18:57:20.004Z</time>
      </trkpt>
      <trkpt lat="47.99107" lon="-4.43302">
        <ele>75.9</ele>
        <time>2024-04-10T18:57:32.835Z</time>
      </trkpt>
      <trkpt lat="47.99252" lon="-4.43529">
        <ele>78</ele>
        <time>2024-04-10T18:58:10.705Z</time>
      </trkpt>
      <trkpt lat="47.99282" lon="-4.43572">
        <ele>77.8</ele>
        <time>2024-04-10T18:58:17.201Z</time>
      </trkpt>
      <trkpt lat="47.99307" lon="-4.43593">
        <ele>76.9</ele>
        <time>2024-04-10T18:58:20.782Z</time>
      </trkpt>
      <trkpt lat="47.99345" lon="-4.43611">
        <ele>76</ele>
        <time>2024-04-10T18:58:26.119Z</time>
      </trkpt>
      <trkpt lat="47.99374" lon="-4.43614">
        <ele>75.5</ele>
        <time>2024-04-10T18:58:30.190Z</time>
      </trkpt>
      <trkpt lat="47.99562" lon="-4.43639">
        <ele>71</ele>
        <time>2024-04-10T18:58:55.204Z</time>
      </trkpt>
      <trkpt lat="47.99603" lon="-4.43653">
        <ele>71</ele>
        <time>2024-04-10T18:59:02.078Z</time>
      </trkpt>
      <trkpt lat="47.99641" lon="-4.43674">
        <ele>70.8</ele>
        <time>2024-04-10T18:59:08.402Z</time>
      </trkpt>
      <trkpt lat="47.99659" lon="-4.43689">
        <ele>70.8</ele>
        <time>2024-04-10T18:59:11.771Z</time>
      </trkpt>
      <trkpt lat="47.99681" lon="-4.43712">
        <ele>70.7</ele>
        <time>2024-04-10T18:59:16.008Z</time>
      </trkpt>
      <trkpt lat="47.997" lon="-4.43734">
        <ele>70.7</ele>
        <time>2024-04-10T18:59:19.937Z</time>
      </trkpt>
      <trkpt lat="47.99723" lon="-4.43769">
        <ele>71</ele>
        <time>2024-04-10T18:59:25.805Z</time>
      </trkpt>
      <trkpt lat="47.99746" lon="-4.43814">
        <ele>71.1</ele>
        <time>2024-04-10T18:59:32.158Z</time>
      </trkpt>
      <trkpt lat="47.99804" lon="-4.43946">
        <ele>74.1</ele>
        <time>2024-04-10T18:59:55.375Z</time>
      </trkpt>
      <trkpt lat="47.99887" lon="-4.44134">
        <ele>75.8</ele>
        <time>2024-04-10T19:00:22.910Z</time>
      </trkpt>
      <trkpt lat="47.99911" lon="-4.44187">
        <ele>77.8</ele>
        <time>2024-04-10T19:00:34.622Z</time>
      </trkpt>
      <trkpt lat="47.99949" lon="-4.44264">
        <ele>80.2</ele>
        <time>2024-04-10T19:00:50.263Z</time>
      </trkpt>
      <trkpt lat="47.99995" lon="-4.44349">
        <ele>82.8</ele>
        <time>2024-04-10T19:01:07.725Z</time>
      </trkpt>
      <trkpt lat="48.0001" lon="-4.44374">
        <ele>83.1</ele>
        <time>2024-04-10T19:01:11.918Z</time>
      </trkpt>
      <trkpt lat="48.00067" lon="-4.44458">
        <ele>84</ele>
        <time>2024-04-10T19:01:26.537Z</time>
      </trkpt>
      <trkpt lat="48.00084" lon="-4.44485">
        <ele>84</ele>
        <time>2024-04-10T19:01:30.592Z</time>
      </trkpt>
      <trkpt lat="48.00115" lon="-4.44548">
        <ele>84</ele>
        <time>2024-04-10T19:01:39.145Z</time>
      </trkpt>
      <trkpt lat="48.00151" lon="-4.44628">
        <ele>83.6</ele>
        <time>2024-04-10T19:01:49.098Z</time>
      </trkpt>
      <trkpt lat="48.00291" lon="-4.44934">
        <ele>74.7</ele>
        <time>2024-04-10T19:02:19.025Z</time>
      </trkpt>
      <trkpt lat="48.00291" lon="-4.44934">
        <ele>74.7</ele>
        <time>2024-04-10T19:02:19.025Z</time>
        <extensions>
          <visugpx:TrkExtension xmlns:visugpx="https://www.visugpx.com/editgpx/">
            <visugpx:node>11</visugpx:node>
            </visugpx:TrkExtension>
        </extensions>
      </trkpt>
      <trkpt lat="48.00291" lon="-4.44934">
        <ele>74.7</ele>
        <time>2024-04-10T19:02:19.025Z</time>
      </trkpt>
      <trkpt lat="48.00377" lon="-4.45122">
        <ele>70.4</ele>
        <time>2024-04-10T19:02:38.525Z</time>
      </trkpt>
      <trkpt lat="48.00393" lon="-4.45154">
        <ele>69.9</ele>
        <time>2024-04-10T19:02:42.220Z</time>
      </trkpt>
      <trkpt lat="48.00612" lon="-4.45476">
        <ele>66</ele>
        <time>2024-04-10T19:03:26.943Z</time>
      </trkpt>
      <trkpt lat="48.00749" lon="-4.45679">
        <ele>65.4</ele>
        <time>2024-04-10T19:03:57.566Z</time>
      </trkpt>
      <trkpt lat="48.00764" lon="-4.45704">
        <ele>66</ele>
        <time>2024-04-10T19:04:02.409Z</time>
      </trkpt>
      <trkpt lat="48.00784" lon="-4.45749">
        <ele>66</ele>
        <time>2024-04-10T19:04:08.317Z</time>
      </trkpt>
      <trkpt lat="48.00838" lon="-4.45893">
        <ele>66.1</ele>
        <time>2024-04-10T19:04:26.526Z</time>
      </trkpt>
      <trkpt lat="48.00879" lon="-4.45986">
        <ele>66.8</ele>
        <time>2024-04-10T19:04:39.881Z</time>
      </trkpt>
      <trkpt lat="48.00887" lon="-4.46003">
        <ele>67.1</ele>
        <time>2024-04-10T19:04:42.713Z</time>
      </trkpt>
      <trkpt lat="48.01016" lon="-4.46276">
        <ele>76.9</ele>
        <time>2024-04-10T19:05:41.719Z</time>
      </trkpt>
      <trkpt lat="48.01028" lon="-4.46299">
        <ele>77.8</ele>
        <time>2024-04-10T19:05:47.017Z</time>
      </trkpt>
      <trkpt lat="48.01074" lon="-4.46375">
        <ele>81.5</ele>
        <time>2024-04-10T19:06:07.589Z</time>
      </trkpt>
      <trkpt lat="48.01096" lon="-4.46413">
        <ele>83.3</ele>
        <time>2024-04-10T19:06:17.621Z</time>
      </trkpt>
      <trkpt lat="48.01126" lon="-4.46478">
        <ele>85</ele>
        <time>2024-04-10T19:06:29.744Z</time>
      </trkpt>
      <trkpt lat="48.01142" lon="-4.46521">
        <ele>84.2</ele>
        <time>2024-04-10T19:06:34.090Z</time>
      </trkpt>
      <trkpt lat="48.01151" lon="-4.46555">
        <ele>84</ele>
        <time>2024-04-10T19:06:37.797Z</time>
      </trkpt>
      <trkpt lat="48.01169" lon="-4.46657">
        <ele>81.8</ele>
        <time>2024-04-10T19:06:46.622Z</time>
      </trkpt>
      <trkpt lat="48.01202" lon="-4.46893">
        <ele>85.3</ele>
        <time>2024-04-10T19:07:19.518Z</time>
        <extensions>
          <visugpx:TrkExtension xmlns:visugpx="https://www.visugpx.com/editgpx/">
            <visugpx:node>12</visugpx:node>
            </visugpx:TrkExtension>
        </extensions>
      </trkpt>
      <trkpt lat="48.01202" lon="-4.46895">
        <ele>85.3</ele>
        <time>2024-04-10T19:07:19.737Z</time>
      </trkpt>
      <trkpt lat="48.01205" lon="-4.46941">
        <ele>85</ele>
        <time>2024-04-10T19:07:24.358Z</time>
      </trkpt>
      <trkpt lat="48.01205" lon="-4.47065">
        <ele>87.8</ele>
        <time>2024-04-10T19:07:43.748Z</time>
      </trkpt>
      <trkpt lat="48.01206" lon="-4.472">
        <ele>87.7</ele>
        <time>2024-04-10T19:07:58.357Z</time>
      </trkpt>
      <trkpt lat="48.0121" lon="-4.47248">
        <ele>88.9</ele>
        <time>2024-04-10T19:08:06.224Z</time>
      </trkpt>
      <trkpt lat="48.01217" lon="-4.47288">
        <ele>90.1</ele>
        <time>2024-04-10T19:08:13.484Z</time>
      </trkpt>
      <trkpt lat="48.01228" lon="-4.47356">
        <ele>92</ele>
        <time>2024-04-10T19:08:25.354Z</time>
      </trkpt>
      <trkpt lat="48.01262" lon="-4.47541">
        <ele>95.7</ele>
        <time>2024-04-10T19:08:53.695Z</time>
      </trkpt>
      <trkpt lat="48.01267" lon="-4.47584">
        <ele>96.4</ele>
        <time>2024-04-10T19:08:59.801Z</time>
      </trkpt>
      <trkpt lat="48.01273" lon="-4.47663">
        <ele>97.9</ele>
        <time>2024-04-10T19:09:11.462Z</time>
      </trkpt>
      <trkpt lat="48.01273" lon="-4.47679">
        <ele>98</ele>
        <time>2024-04-10T19:09:13.380Z</time>
      </trkpt>
      <trkpt lat="48.01275" lon="-4.47698">
        <ele>98.1</ele>
        <time>2024-04-10T19:09:15.648Z</time>
      </trkpt>
      <trkpt lat="48.01276" lon="-4.47717">
        <ele>98.8</ele>
        <time>2024-04-10T19:09:19.521Z</time>
      </trkpt>
      <trkpt lat="48.01282" lon="-4.47812">
        <ele>100</ele>
        <time>2024-04-10T19:09:32.138Z</time>
      </trkpt>
      <trkpt lat="48.01286" lon="-4.47843">
        <ele>100</ele>
        <time>2024-04-10T19:09:35.590Z</time>
      </trkpt>
      <trkpt lat="48.01294" lon="-4.47887">
        <ele>99.6</ele>
        <time>2024-04-10T19:09:40.014Z</time>
      </trkpt>
      <trkpt lat="48.01315" lon="-4.47986">
        <ele>99</ele>
        <time>2024-04-10T19:09:50.499Z</time>
      </trkpt>
      <trkpt lat="48.01327" lon="-4.48042">
        <ele>99.4</ele>
        <time>2024-04-10T19:09:57.605Z</time>
      </trkpt>
      <trkpt lat="48.01331" lon="-4.48075">
        <ele>99.9</ele>
        <time>2024-04-10T19:10:02.210Z</time>
      </trkpt>
      <trkpt lat="48.01338" lon="-4.48169">
        <ele>100.2</ele>
        <time>2024-04-10T19:10:13.036Z</time>
      </trkpt>
      <trkpt lat="48.01343" lon="-4.48209">
        <ele>100.7</ele>
        <time>2024-04-10T19:10:18.392Z</time>
      </trkpt>
      <trkpt lat="48.01353" lon="-4.4825">
        <ele>100.7</ele>
        <time>2024-04-10T19:10:23.164Z</time>
      </trkpt>
      <trkpt lat="48.01363" lon="-4.48313">
        <ele>101</ele>
        <time>2024-04-10T19:10:30.737Z</time>
      </trkpt>
      <trkpt lat="48.01387" lon="-4.48416">
        <ele>101</ele>
        <time>2024-04-10T19:10:42.663Z</time>
      </trkpt>
      <trkpt lat="48.01388" lon="-4.48422">
        <ele>101</ele>
        <time>2024-04-10T19:10:43.339Z</time>
      </trkpt>
      <trkpt lat="48.01405" lon="-4.48473">
        <ele>101</ele>
        <time>2024-04-10T19:10:49.570Z</time>
      </trkpt>
      <trkpt lat="48.01411" lon="-4.48493">
        <ele>100.8</ele>
        <time>2024-04-10T19:10:51.687Z</time>
      </trkpt>
      <trkpt lat="48.01424" lon="-4.48535">
        <ele>100.7</ele>
        <time>2024-04-10T19:10:56.596Z</time>
      </trkpt>
      <trkpt lat="48.01427" lon="-4.48555">
        <ele>100.6</ele>
        <time>2024-04-10T19:10:58.690Z</time>
      </trkpt>
      <trkpt lat="48.01433" lon="-4.48597">
        <ele>100.2</ele>
        <time>2024-04-10T19:11:02.828Z</time>
      </trkpt>
      <trkpt lat="48.01439" lon="-4.48673">
        <ele>99.2</ele>
        <time>2024-04-10T19:11:09.857Z</time>
      </trkpt>
      <trkpt lat="48.0144" lon="-4.48681">
        <ele>99.1</ele>
        <time>2024-04-10T19:11:10.612Z</time>
      </trkpt>
      <trkpt lat="48.01461" lon="-4.48832">
        <ele>97</ele>
        <time>2024-04-10T19:11:24.682Z</time>
      </trkpt>
      <trkpt lat="48.01464" lon="-4.48854">
        <ele>97</ele>
        <time>2024-04-10T19:11:27.137Z</time>
      </trkpt>
      <trkpt lat="48.01465" lon="-4.48858">
        <ele>97</ele>
        <time>2024-04-10T19:11:27.604Z</time>
      </trkpt>
      <trkpt lat="48.01474" lon="-4.48927">
        <ele>97</ele>
        <time>2024-04-10T19:11:35.291Z</time>
      </trkpt>
      <trkpt lat="48.01482" lon="-4.48981">
        <ele>97</ele>
        <time>2024-04-10T19:11:41.339Z</time>
      </trkpt>
      <trkpt lat="48.01505" lon="-4.49148">
        <ele>95.1</ele>
        <time>2024-04-10T19:11:57.384Z</time>
      </trkpt>
      <trkpt lat="48.01515" lon="-4.49243">
        <ele>93.3</ele>
        <time>2024-04-10T19:12:05.632Z</time>
      </trkpt>
      <trkpt lat="48.01539" lon="-4.49502">
        <ele>89</ele>
        <time>2024-04-10T19:12:28.673Z</time>
      </trkpt>
      <trkpt lat="48.01551" lon="-4.49623">
        <ele>87.6</ele>
        <time>2024-04-10T19:12:40.141Z</time>
      </trkpt>
      <trkpt lat="48.01552" lon="-4.49637">
        <ele>87.9</ele>
        <time>2024-04-10T19:12:42.294Z</time>
      </trkpt>
      <trkpt lat="48.01563" lon="-4.49756">
        <ele>87.2</ele>
        <time>2024-04-10T19:12:54.413Z</time>
      </trkpt>
      <trkpt lat="48.01571" lon="-4.49824">
        <ele>85.7</ele>
        <time>2024-04-10T19:13:00.131Z</time>
      </trkpt>
      <trkpt lat="48.01581" lon="-4.49886">
        <ele>84</ele>
        <time>2024-04-10T19:13:05.130Z</time>
      </trkpt>
      <trkpt lat="48.01587" lon="-4.49931">
        <ele>83.7</ele>
        <time>2024-04-10T19:13:09.716Z</time>
      </trkpt>
      <trkpt lat="48.01593" lon="-4.5">
        <ele>82.3</ele>
        <time>2024-04-10T19:13:15.586Z</time>
      </trkpt>
      <trkpt lat="48.01595" lon="-4.50038">
        <ele>82.1</ele>
        <time>2024-04-10T19:13:19.461Z</time>
      </trkpt>
      <trkpt lat="48.01598" lon="-4.50063">
        <ele>81.4</ele>
        <time>2024-04-10T19:13:21.433Z</time>
      </trkpt>
      <trkpt lat="48.01598" lon="-4.5008">
        <ele>81.1</ele>
        <time>2024-04-10T19:13:22.909Z</time>
      </trkpt>
      <trkpt lat="48.01604" lon="-4.50087">
        <ele>80.9</ele>
        <time>2024-04-10T19:13:23.898Z</time>
      </trkpt>
      <trkpt lat="48.01603" lon="-4.50099">
        <ele>80.4</ele>
        <time>2024-04-10T19:13:24.716Z</time>
      </trkpt>
      <trkpt lat="48.01599" lon="-4.50104">
        <ele>80.3</ele>
        <time>2024-04-10T19:13:25.434Z</time>
      </trkpt>
      <trkpt lat="48.01597" lon="-4.50116">
        <ele>80</ele>
        <time>2024-04-10T19:13:26.429Z</time>
      </trkpt>
      <trkpt lat="48.01589" lon="-4.50175">
        <ele>79</ele>
        <time>2024-04-10T19:13:31.723Z</time>
      </trkpt>
      <trkpt lat="48.01552" lon="-4.50472">
        <ele>71.7</ele>
        <time>2024-04-10T19:13:56.063Z</time>
      </trkpt>
      <trkpt lat="48.01545" lon="-4.50529">
        <ele>70.6</ele>
        <time>2024-04-10T19:14:01.018Z</time>
      </trkpt>
      <trkpt lat="48.01544" lon="-4.50549">
        <ele>70.6</ele>
        <time>2024-04-10T19:14:03.211Z</time>
      </trkpt>
      <trkpt lat="48.01543" lon="-4.50653">
        <ele>73.5</ele>
        <time>2024-04-10T19:14:21.093Z</time>
      </trkpt>
      <trkpt lat="48.01542" lon="-4.50804">
        <ele>74</ele>
        <time>2024-04-10T19:14:38.413Z</time>
      </trkpt>
      <trkpt lat="48.01548" lon="-4.50853">
        <ele>73.8</ele>
        <time>2024-04-10T19:14:43.563Z</time>
      </trkpt>
      <trkpt lat="48.01579" lon="-4.51086">
        <ele>70.8</ele>
        <time>2024-04-10T19:15:05.504Z</time>
      </trkpt>
      <trkpt lat="48.01589" lon="-4.51169">
        <ele>70.4</ele>
        <time>2024-04-10T19:15:14.138Z</time>
      </trkpt>
      <trkpt lat="48.0159" lon="-4.5119">
        <ele>70.3</ele>
        <time>2024-04-10T19:15:16.293Z</time>
      </trkpt>
      <trkpt lat="48.01588" lon="-4.51222">
        <ele>68.4</ele>
        <time>2024-04-10T19:15:18.401Z</time>
      </trkpt>
      <trkpt lat="48.01579" lon="-4.51295">
        <ele>66.2</ele>
        <time>2024-04-10T19:15:24.037Z</time>
      </trkpt>
      <trkpt lat="48.01576" lon="-4.5138">
        <ele>64.7</ele>
        <time>2024-04-10T19:15:31.432Z</time>
      </trkpt>
      <trkpt lat="48.01575" lon="-4.51393">
        <ele>64.7</ele>
        <time>2024-04-10T19:15:32.863Z</time>
        <extensions>
          <visugpx:TrkExtension xmlns:visugpx="https://www.visugpx.com/editgpx/">
            <visugpx:node>13</visugpx:node>
            </visugpx:TrkExtension>
        </extensions>
      </trkpt>
      <trkpt lat="48.01574" lon="-4.51417">
        <ele>65</ele>
        <time>2024-04-10T19:15:36.037Z</time>
      </trkpt>
      <trkpt lat="48.01573" lon="-4.51448">
        <ele>65.1</ele>
        <time>2024-04-10T19:15:39.592Z</time>
      </trkpt>
      <trkpt lat="48.01576" lon="-4.51483">
        <ele>66.1</ele>
        <time>2024-04-10T19:15:45.710Z</time>
      </trkpt>
      <trkpt lat="48.0158" lon="-4.51508">
        <ele>66.4</ele>
        <time>2024-04-10T19:15:49.060Z</time>
      </trkpt>
      <trkpt lat="48.0159" lon="-4.51554">
        <ele>67.9</ele>
        <time>2024-04-10T19:15:57.871Z</time>
      </trkpt>
      <trkpt lat="48.01603" lon="-4.5159">
        <ele>69.2</ele>
        <time>2024-04-10T19:16:05.432Z</time>
      </trkpt>
      <trkpt lat="48.01632" lon="-4.51642">
        <ele>70.1</ele>
        <time>2024-04-10T19:16:14.487Z</time>
      </trkpt>
      <trkpt lat="48.01683" lon="-4.51733">
        <ele>71</ele>
        <time>2024-04-10T19:16:29.003Z</time>
      </trkpt>
      <trkpt lat="48.01719" lon="-4.51787">
        <ele>71</ele>
        <time>2024-04-10T19:16:37.339Z</time>
      </trkpt>
      <trkpt lat="48.01739" lon="-4.51817">
        <ele>70.6</ele>
        <time>2024-04-10T19:16:41.413Z</time>
      </trkpt>
      <trkpt lat="48.01743" lon="-4.51827">
        <ele>70.2</ele>
        <time>2024-04-10T19:16:42.255Z</time>
      </trkpt>
      <trkpt lat="48.01757" lon="-4.51858">
        <ele>70</ele>
        <time>2024-04-10T19:16:46.053Z</time>
      </trkpt>
      <trkpt lat="48.01779" lon="-4.5193">
        <ele>67.5</ele>
        <time>2024-04-10T19:16:51.942Z</time>
      </trkpt>
      <trkpt lat="48.01791" lon="-4.51988">
        <ele>65.9</ele>
        <time>2024-04-10T19:16:56.716Z</time>
      </trkpt>
      <trkpt lat="48.01796" lon="-4.52027">
        <ele>64.7</ele>
        <time>2024-04-10T19:16:59.713Z</time>
      </trkpt>
      <trkpt lat="48.01808" lon="-4.52141">
        <ele>62</ele>
        <time>2024-04-10T19:17:09.090Z</time>
      </trkpt>
      <trkpt lat="48.01811" lon="-4.52178">
        <ele>60.9</ele>
        <time>2024-04-10T19:17:11.923Z</time>
      </trkpt>
      <trkpt lat="48.01813" lon="-4.52198">
        <ele>60.1</ele>
        <time>2024-04-10T19:17:13.314Z</time>
      </trkpt>
      <trkpt lat="48.01818" lon="-4.52247">
        <ele>58.1</ele>
        <time>2024-04-10T19:17:16.696Z</time>
      </trkpt>
      <trkpt lat="48.01839" lon="-4.52431">
        <ele>51.6</ele>
        <time>2024-04-10T19:17:30.132Z</time>
      </trkpt>
      <trkpt lat="48.01855" lon="-4.52582">
        <ele>44.4</ele>
        <time>2024-04-10T19:17:40.162Z</time>
      </trkpt>
      <trkpt lat="48.01863" lon="-4.52609">
        <ele>44</ele>
        <time>2024-04-10T19:17:42.858Z</time>
      </trkpt>
      <trkpt lat="48.0188" lon="-4.52635">
        <ele>41.9</ele>
        <time>2024-04-10T19:17:45.243Z</time>
      </trkpt>
      <trkpt lat="48.01889" lon="-4.52645">
        <ele>41.6</ele>
        <time>2024-04-10T19:17:46.695Z</time>
      </trkpt>
      <trkpt lat="48.019" lon="-4.52652">
        <ele>40.8</ele>
        <time>2024-04-10T19:17:47.867Z</time>
      </trkpt>
      <trkpt lat="48.01914" lon="-4.52659">
        <ele>40.3</ele>
        <time>2024-04-10T19:17:49.675Z</time>
      </trkpt>
      <trkpt lat="48.01952" lon="-4.52671">
        <ele>37.9</ele>
        <time>2024-04-10T19:17:53.601Z</time>
      </trkpt>
      <trkpt lat="48.01964" lon="-4.52678">
        <ele>37.3</ele>
        <time>2024-04-10T19:17:55.040Z</time>
      </trkpt>
      <trkpt lat="48.01982" lon="-4.5269">
        <ele>35.9</ele>
        <time>2024-04-10T19:17:56.973Z</time>
      </trkpt>
      <trkpt lat="48.01998" lon="-4.52709">
        <ele>34.9</ele>
        <time>2024-04-10T19:17:59.218Z</time>
      </trkpt>
      <trkpt lat="48.02009" lon="-4.52727">
        <ele>34.5</ele>
        <time>2024-04-10T19:18:01.368Z</time>
      </trkpt>
      <trkpt lat="48.02022" lon="-4.52761">
        <ele>33</ele>
        <time>2024-04-10T19:18:04.092Z</time>
      </trkpt>
      <trkpt lat="48.02032" lon="-4.5282">
        <ele>29.6</ele>
        <time>2024-04-10T19:18:08.085Z</time>
      </trkpt>
      <trkpt lat="48.02039" lon="-4.5286">
        <ele>28.3</ele>
        <time>2024-04-10T19:18:11.165Z</time>
      </trkpt>
      <trkpt lat="48.02051" lon="-4.52922">
        <ele>26.1</ele>
        <time>2024-04-10T19:18:15.846Z</time>
      </trkpt>
      <trkpt lat="48.02052" lon="-4.52932">
        <ele>25.5</ele>
        <time>2024-04-10T19:18:16.509Z</time>
      </trkpt>
      <trkpt lat="48.02062" lon="-4.52966">
        <ele>24.4</ele>
        <time>2024-04-10T19:18:19.329Z</time>
      </trkpt>
      <trkpt lat="48.02088" lon="-4.53021">
        <ele>22.2</ele>
        <time>2024-04-10T19:18:24.284Z</time>
      </trkpt>
      <trkpt lat="48.02124" lon="-4.53099">
        <ele>19</ele>
        <time>2024-04-10T19:18:31.178Z</time>
      </trkpt>
      <trkpt lat="48.02161" lon="-4.5319">
        <ele>15.8</ele>
        <time>2024-04-10T19:18:39.227Z</time>
      </trkpt>
      <trkpt lat="48.02248" lon="-4.53352">
        <ele>9.5</ele>
        <time>2024-04-10T19:18:54.885Z</time>
      </trkpt>
      <trkpt lat="48.02258" lon="-4.53366">
        <ele>9.2</ele>
        <time>2024-04-10T19:18:56.730Z</time>
      </trkpt>
      <trkpt lat="48.02273" lon="-4.53378">
        <ele>8.5</ele>
        <time>2024-04-10T19:18:58.705Z</time>
      </trkpt>
      <trkpt lat="48.02285" lon="-4.53385">
        <ele>7.4</ele>
        <time>2024-04-10T19:18:59.968Z</time>
      </trkpt>
      <trkpt lat="48.023" lon="-4.53389">
        <ele>6.2</ele>
        <time>2024-04-10T19:19:01.463Z</time>
      </trkpt>
      <trkpt lat="48.02352" lon="-4.53379">
        <ele>5</ele>
        <time>2024-04-10T19:19:08.465Z</time>
      </trkpt>
      <trkpt lat="48.0237" lon="-4.53379">
        <ele>4.8</ele>
        <time>2024-04-10T19:19:11.122Z</time>
      </trkpt>
      <trkpt lat="48.02385" lon="-4.53385">
        <ele>4.1</ele>
        <time>2024-04-10T19:19:12.875Z</time>
      </trkpt>
      <trkpt lat="48.02394" lon="-4.5339">
        <ele>3.9</ele>
        <time>2024-04-10T19:19:14.179Z</time>
      </trkpt>
      <trkpt lat="48.02408" lon="-4.53408">
        <ele>3.8</ele>
        <time>2024-04-10T19:19:17.048Z</time>
      </trkpt>
      <trkpt lat="48.02422" lon="-4.53437">
        <ele>3.5</ele>
        <time>2024-04-10T19:19:20.535Z</time>
      </trkpt>
      <trkpt lat="48.02418" lon="-4.53441">
        <ele>3.2</ele>
        <time>2024-04-10T19:19:21.020Z</time>
      </trkpt>
      <trkpt lat="48.02442" lon="-4.53488">
        <time>2024-04-10T19:19:48.725Z</time>
        <extensions>
          <visugpx:TrkExtension xmlns:visugpx="https://www.visugpx.com/editgpx/">
            <visugpx:node>14</visugpx:node>
            </visugpx:TrkExtension>
        </extensions>
      </trkpt>
      <trkpt lat="48.02418" lon="-4.53441">
        <ele>3.2</ele>
        <time>2024-04-10T19:20:16.430Z</time>
      </trkpt>
      <trkpt lat="48.02422" lon="-4.53437">
        <ele>3.5</ele>
        <time>2024-04-10T19:20:18.042Z</time>
      </trkpt>
      <trkpt lat="48.02466" lon="-4.53522">
        <ele>5</ele>
        <time>2024-04-10T19:20:32.571Z</time>
      </trkpt>
      <trkpt lat="48.02475" lon="-4.5354">
        <ele>4.6</ele>
        <time>2024-04-10T19:20:34.520Z</time>
      </trkpt>
      <trkpt lat="48.0248" lon="-4.53549">
        <ele>4.2</ele>
        <time>2024-04-10T19:20:35.367Z</time>
      </trkpt>
      <trkpt lat="48.02485" lon="-4.53546">
        <ele>4.3</ele>
        <time>2024-04-10T19:20:36.429Z</time>
      </trkpt>
      <trkpt lat="48.02491" lon="-4.53549">
        <ele>4.2</ele>
        <time>2024-04-10T19:20:37.326Z</time>
      </trkpt>
      <trkpt lat="48.02494" lon="-4.53557">
        <ele>4</ele>
        <time>2024-04-10T19:20:38.084Z</time>
      </trkpt>
      <trkpt lat="48.02494" lon="-4.53566">
        <ele>3.9</ele>
        <time>2024-04-10T19:20:38.932Z</time>
      </trkpt>
      <trkpt lat="48.0249" lon="-4.53573">
        <ele>3.8</ele>
        <time>2024-04-10T19:20:39.801Z</time>
      </trkpt>
      <trkpt lat="48.02484" lon="-4.53574">
        <ele>3.6</ele>
        <time>2024-04-10T19:20:40.545Z</time>
      </trkpt>
      <trkpt lat="48.02479" lon="-4.53571">
        <ele>3.6</ele>
        <time>2024-04-10T19:20:41.425Z</time>
      </trkpt>
      <trkpt lat="48.02432" lon="-4.53647">
        <ele>4.3</ele>
        <time>2024-04-10T19:20:53.923Z</time>
      </trkpt>
      <trkpt lat="48.02375" lon="-4.53763">
        <ele>4.5</ele>
        <time>2024-04-10T19:21:09.976Z</time>
      </trkpt>
      <trkpt lat="48.02357" lon="-4.53804">
        <ele>3.9</ele>
        <time>2024-04-10T19:21:14.527Z</time>
      </trkpt>
      <trkpt lat="48.02344" lon="-4.53852">
        <ele>3.6</ele>
        <time>2024-04-10T19:21:19.753Z</time>
      </trkpt>
      <trkpt lat="48.02346" lon="-4.53855">
        <ele>3.8</ele>
        <time>2024-04-10T19:21:20.813Z</time>
      </trkpt>
      <trkpt lat="48.02347" lon="-4.53863">
        <ele>4</ele>
        <time>2024-04-10T19:21:22.132Z</time>
      </trkpt>
      <trkpt lat="48.02345" lon="-4.53871">
        <ele>4.1</ele>
        <time>2024-04-10T19:21:23.245Z</time>
      </trkpt>
      <trkpt lat="48.0234" lon="-4.53874">
        <ele>4.1</ele>
        <time>2024-04-10T19:21:24.126Z</time>
      </trkpt>
      <trkpt lat="48.0234" lon="-4.53888">
        <ele>4.2</ele>
        <time>2024-04-10T19:21:25.826Z</time>
      </trkpt>
      <trkpt lat="48.02336" lon="-4.53908">
        <ele>4.2</ele>
        <time>2024-04-10T19:21:28.108Z</time>
      </trkpt>
      <trkpt lat="48.02334" lon="-4.53927">
        <ele>4</ele>
        <time>2024-04-10T19:21:29.935Z</time>
      </trkpt>
      <trkpt lat="48.02333" lon="-4.53936">
        <ele>4</ele>
        <time>2024-04-10T19:21:30.933Z</time>
      </trkpt>
      <trkpt lat="48.02333" lon="-4.53941">
        <ele>4</ele>
        <time>2024-04-10T19:21:31.479Z</time>
      </trkpt>
      <trkpt lat="48.02335" lon="-4.53949">
        <ele>4.1</ele>
        <time>2024-04-10T19:21:32.593Z</time>
      </trkpt>
      <trkpt lat="48.02352" lon="-4.53976">
        <ele>4.7</ele>
        <time>2024-04-10T19:21:37.791Z</time>
      </trkpt>
      <trkpt lat="48.02358" lon="-4.53982">
        <ele>4.9</ele>
        <time>2024-04-10T19:21:39.365Z</time>
      </trkpt>
      <trkpt lat="48.02384" lon="-4.54011">
        <ele>5.9</ele>
        <time>2024-04-10T19:21:46.694Z</time>
      </trkpt>
      <trkpt lat="48.02391" lon="-4.54019">
        <ele>6.1</ele>
        <time>2024-04-10T19:21:48.511Z</time>
      </trkpt>
      <trkpt lat="48.02417" lon="-4.5405">
        <ele>7.1</ele>
        <time>2024-04-10T19:21:55.959Z</time>
      </trkpt>
      <trkpt lat="48.02429" lon="-4.54071">
        <ele>8.9</ele>
        <time>2024-04-10T19:22:05.844Z</time>
      </trkpt>
      <trkpt lat="48.02432" lon="-4.5408">
        <ele>9</ele>
        <time>2024-04-10T19:22:07.119Z</time>
      </trkpt>
      <trkpt lat="48.0244" lon="-4.54105">
        <ele>10.7</ele>
        <time>2024-04-10T19:22:16.344Z</time>
      </trkpt>
      <trkpt lat="48.02453" lon="-4.54161">
        <ele>12.4</ele>
        <time>2024-04-10T19:22:26.685Z</time>
      </trkpt>
      <trkpt lat="48.02473" lon="-4.54257">
        <ele>14.2</ele>
        <time>2024-04-10T19:22:41.192Z</time>
      </trkpt>
      <trkpt lat="48.0248" lon="-4.54277">
        <ele>15</ele>
        <time>2024-04-10T19:22:45.665Z</time>
      </trkpt>
      <trkpt lat="48.02492" lon="-4.54293">
        <ele>16.9</ele>
        <time>2024-04-10T19:22:56.268Z</time>
      </trkpt>
      <trkpt lat="48.02572" lon="-4.54376">
        <ele>20.5</ele>
        <time>2024-04-10T19:23:19.910Z</time>
      </trkpt>
      <trkpt lat="48.0261" lon="-4.54417">
        <ele>22.2</ele>
        <time>2024-04-10T19:23:31.194Z</time>
      </trkpt>
      <trkpt lat="48.02619" lon="-4.54429">
        <ele>22</ele>
        <time>2024-04-10T19:23:32.892Z</time>
      </trkpt>
      <trkpt lat="48.02625" lon="-4.54447">
        <ele>22.4</ele>
        <time>2024-04-10T19:23:35.893Z</time>
      </trkpt>
      <trkpt lat="48.02627" lon="-4.54458">
        <ele>23.8</ele>
        <time>2024-04-10T19:23:41.234Z</time>
      </trkpt>
      <trkpt lat="48.02628" lon="-4.54498">
        <ele>25.7</ele>
        <time>2024-04-10T19:23:51.310Z</time>
      </trkpt>
      <trkpt lat="48.02626" lon="-4.54514">
        <ele>26.6</ele>
        <time>2024-04-10T19:23:56.115Z</time>
      </trkpt>
      <trkpt lat="48.02604" lon="-4.54598">
        <ele>29.6</ele>
        <time>2024-04-10T19:24:13.258Z</time>
      </trkpt>
      <trkpt lat="48.02597" lon="-4.54631">
        <ele>30.7</ele>
        <time>2024-04-10T19:24:19.655Z</time>
      </trkpt>
      <trkpt lat="48.02596" lon="-4.54658">
        <ele>30.7</ele>
        <time>2024-04-10T19:24:22.611Z</time>
      </trkpt>
      <trkpt lat="48.02597" lon="-4.5468">
        <ele>31</ele>
        <time>2024-04-10T19:24:25.575Z</time>
      </trkpt>
      <trkpt lat="48.02599" lon="-4.54689">
        <ele>31.2</ele>
        <time>2024-04-10T19:24:27.019Z</time>
      </trkpt>
      <trkpt lat="48.02604" lon="-4.547">
        <ele>32.1</ele>
        <time>2024-04-10T19:24:31.997Z</time>
      </trkpt>
      <trkpt lat="48.02615" lon="-4.54719">
        <ele>34.2</ele>
        <time>2024-04-10T19:24:43.524Z</time>
      </trkpt>
      <trkpt lat="48.02627" lon="-4.54733">
        <ele>34.2</ele>
        <time>2024-04-10T19:24:46.012Z</time>
      </trkpt>
      <trkpt lat="48.02634" lon="-4.54747">
        <ele>33.9</ele>
        <time>2024-04-10T19:24:47.539Z</time>
      </trkpt>
      <trkpt lat="48.02639" lon="-4.54762">
        <ele>34.3</ele>
        <time>2024-04-10T19:24:50.219Z</time>
      </trkpt>
      <trkpt lat="48.02647" lon="-4.54793">
        <ele>35.9</ele>
        <time>2024-04-10T19:24:58.701Z</time>
      </trkpt>
      <trkpt lat="48.02651" lon="-4.54834">
        <ele>36.9</ele>
        <time>2024-04-10T19:25:05.359Z</time>
      </trkpt>
      <trkpt lat="48.02652" lon="-4.54856">
        <ele>37.9</ele>
        <time>2024-04-10T19:25:10.676Z</time>
      </trkpt>
      <trkpt lat="48.0265" lon="-4.54886">
        <ele>38.6</ele>
        <time>2024-04-10T19:25:15.443Z</time>
      </trkpt>
      <trkpt lat="48.02646" lon="-4.5491">
        <ele>39.3</ele>
        <time>2024-04-10T19:25:19.727Z</time>
      </trkpt>
      <trkpt lat="48.02607" lon="-4.5502">
        <ele>42</ele>
        <time>2024-04-10T19:25:38.891Z</time>
      </trkpt>
      <trkpt lat="48.02604" lon="-4.55033">
        <ele>42.3</ele>
        <time>2024-04-10T19:25:41.012Z</time>
      </trkpt>
      <trkpt lat="48.02601" lon="-4.55051">
        <ele>42.4</ele>
        <time>2024-04-10T19:25:43.206Z</time>
      </trkpt>
      <trkpt lat="48.02597" lon="-4.55088">
        <ele>44.3</ele>
        <time>2024-04-10T19:25:53.282Z</time>
      </trkpt>
      <trkpt lat="48.02596" lon="-4.55128">
        <ele>46.2</ele>
        <time>2024-04-10T19:26:03.359Z</time>
      </trkpt>
      <trkpt lat="48.02598" lon="-4.55151">
        <ele>46.9</ele>
        <time>2024-04-10T19:26:07.518Z</time>
      </trkpt>
      <trkpt lat="48.02605" lon="-4.55181">
        <ele>47.3</ele>
        <time>2024-04-10T19:26:11.720Z</time>
      </trkpt>
      <trkpt lat="48.02607" lon="-4.5519">
        <ele>47.4</ele>
        <time>2024-04-10T19:26:12.934Z</time>
      </trkpt>
      <trkpt lat="48.02617" lon="-4.55237">
        <ele>48.7</ele>
        <time>2024-04-10T19:26:21.181Z</time>
      </trkpt>
      <trkpt lat="48.02622" lon="-4.55289">
        <ele>50.4</ele>
        <time>2024-04-10T19:26:30.996Z</time>
      </trkpt>
      <trkpt lat="48.02627" lon="-4.55327">
        <ele>51.2</ele>
        <time>2024-04-10T19:26:36.852Z</time>
      </trkpt>
      <trkpt lat="48.02629" lon="-4.55339">
        <ele>51.7</ele>
        <time>2024-04-10T19:26:39.554Z</time>
      </trkpt>
      <trkpt lat="48.02644" lon="-4.55383">
        <ele>53.5</ele>
        <time>2024-04-10T19:26:49.533Z</time>
      </trkpt>
      <trkpt lat="48.02658" lon="-4.55422">
        <ele>54.4</ele>
        <time>2024-04-10T19:26:56.188Z</time>
      </trkpt>
      <trkpt lat="48.02665" lon="-4.55442">
        <ele>54.9</ele>
        <time>2024-04-10T19:26:59.691Z</time>
      </trkpt>
      <trkpt lat="48.02675" lon="-4.55462">
        <ele>55.7</ele>
        <time>2024-04-10T19:27:04.328Z</time>
      </trkpt>
      <trkpt lat="48.0269" lon="-4.55477">
        <ele>56.1</ele>
        <time>2024-04-10T19:27:08.027Z</time>
      </trkpt>
      <trkpt lat="48.02693" lon="-4.55477">
        <ele>56.2</ele>
        <time>2024-04-10T19:27:08.725Z</time>
      </trkpt>
      <trkpt lat="48.02698" lon="-4.55482">
        <ele>56.4</ele>
        <time>2024-04-10T19:27:10.123Z</time>
      </trkpt>
      <trkpt lat="48.02712" lon="-4.55495">
        <ele>56.8</ele>
        <time>2024-04-10T19:27:13.580Z</time>
      </trkpt>
      <trkpt lat="48.02716" lon="-4.55498">
        <ele>56.9</ele>
        <time>2024-04-10T19:27:14.499Z</time>
      </trkpt>
      <trkpt lat="48.02764" lon="-4.55534">
        <ele>59.2</ele>
        <time>2024-04-10T19:27:28.497Z</time>
      </trkpt>
      <trkpt lat="48.02783" lon="-4.55554">
        <ele>60.3</ele>
        <time>2024-04-10T19:27:34.903Z</time>
      </trkpt>
      <trkpt lat="48.02804" lon="-4.55582">
        <ele>61</ele>
        <time>2024-04-10T19:27:40.846Z</time>
      </trkpt>
      <trkpt lat="48.02821" lon="-4.55607">
        <ele>62.1</ele>
        <time>2024-04-10T19:27:47.321Z</time>
      </trkpt>
      <trkpt lat="48.02839" lon="-4.55635">
        <ele>63</ele>
        <time>2024-04-10T19:27:53.457Z</time>
      </trkpt>
      <trkpt lat="48.02852" lon="-4.55661">
        <ele>63.3</ele>
        <time>2024-04-10T19:27:57.528Z</time>
      </trkpt>
      <trkpt lat="48.0286" lon="-4.55678">
        <ele>63.4</ele>
        <time>2024-04-10T19:27:59.965Z</time>
      </trkpt>
      <trkpt lat="48.02882" lon="-4.55735">
        <ele>64.1</ele>
        <time>2024-04-10T19:28:08.401Z</time>
      </trkpt>
      <trkpt lat="48.02885" lon="-4.5574">
        <ele>64.1</ele>
        <time>2024-04-10T19:28:09.135Z</time>
      </trkpt>
      <trkpt lat="48.02935" lon="-4.55838">
        <ele>63.1</ele>
        <time>2024-04-10T19:28:21.195Z</time>
      </trkpt>
      <trkpt lat="48.02938" lon="-4.55846">
        <ele>63.4</ele>
        <time>2024-04-10T19:28:22.920Z</time>
      </trkpt>
      <trkpt lat="48.02945" lon="-4.5586">
        <ele>64</ele>
        <time>2024-04-10T19:28:26.310Z</time>
      </trkpt>
      <trkpt lat="48.02951" lon="-4.55876">
        <ele>64.1</ele>
        <time>2024-04-10T19:28:28.482Z</time>
      </trkpt>
      <trkpt lat="48.02978" lon="-4.55941">
        <ele>65</ele>
        <time>2024-04-10T19:28:38.466Z</time>
      </trkpt>
      <trkpt lat="48.03011" lon="-4.56015">
        <ele>65.6</ele>
        <time>2024-04-10T19:28:49.202Z</time>
      </trkpt>
      <trkpt lat="48.03025" lon="-4.56037">
        <ele>65.9</ele>
        <time>2024-04-10T19:28:53.048Z</time>
      </trkpt>
      <trkpt lat="48.03041" lon="-4.56049">
        <ele>66.1</ele>
        <time>2024-04-10T19:28:56.315Z</time>
      </trkpt>
      <trkpt lat="48.03046" lon="-4.56048">
        <ele>66.2</ele>
        <time>2024-04-10T19:28:57.323Z</time>
      </trkpt>
      <trkpt lat="48.0305" lon="-4.5605">
        <ele>66.2</ele>
        <time>2024-04-10T19:28:58.012Z</time>
      </trkpt>
      <trkpt lat="48.03055" lon="-4.56059">
        <ele>66</ele>
        <time>2024-04-10T19:28:59.035Z</time>
      </trkpt>
      <trkpt lat="48.03054" lon="-4.56071">
        <ele>66</ele>
        <time>2024-04-10T19:29:00.357Z</time>
      </trkpt>
      <trkpt lat="48.03052" lon="-4.56076">
        <ele>65.9</ele>
        <time>2024-04-10T19:29:00.866Z</time>
      </trkpt>
      <trkpt lat="48.03046" lon="-4.5608">
        <ele>65.7</ele>
        <time>2024-04-10T19:29:01.692Z</time>
      </trkpt>
      <trkpt lat="48.03064" lon="-4.5609">
        <ele>65.8</ele>
        <time>2024-04-10T19:29:04.993Z</time>
      </trkpt>
      <trkpt lat="48.03119" lon="-4.56135">
        <ele>67.3</ele>
        <time>2024-04-10T19:29:18.096Z</time>
      </trkpt>
      <trkpt lat="48.03133" lon="-4.56148">
        <ele>67.5</ele>
        <time>2024-04-10T19:29:21.133Z</time>
      </trkpt>
      <trkpt lat="48.03153" lon="-4.56172">
        <ele>67.4</ele>
        <time>2024-04-10T19:29:25.174Z</time>
      </trkpt>
      <trkpt lat="48.03186" lon="-4.5622">
        <ele>67.7</ele>
        <time>2024-04-10T19:29:33.190Z</time>
      </trkpt>
      <trkpt lat="48.03203" lon="-4.56253">
        <ele>68</ele>
        <time>2024-04-10T19:29:38.253Z</time>
      </trkpt>
      <trkpt lat="48.03223" lon="-4.56307">
        <ele>69</ele>
        <time>2024-04-10T19:29:46.909Z</time>
      </trkpt>
      <trkpt lat="48.03238" lon="-4.56364">
        <ele>69</ele>
        <time>2024-04-10T19:29:53.604Z</time>
      </trkpt>
      <trkpt lat="48.03264" lon="-4.56473">
        <ele>69.5</ele>
        <time>2024-04-10T19:30:07.073Z</time>
      </trkpt>
      <trkpt lat="48.03269" lon="-4.56493">
        <ele>69.1</ele>
        <time>2024-04-10T19:30:08.903Z</time>
      </trkpt>
      <trkpt lat="48.03274" lon="-4.56519">
        <ele>69</ele>
        <time>2024-04-10T19:30:11.711Z</time>
      </trkpt>
      <trkpt lat="48.03275" lon="-4.56529">
        <ele>69</ele>
        <time>2024-04-10T19:30:12.817Z</time>
      </trkpt>
      <trkpt lat="48.03289" lon="-4.56702">
        <ele>68.2</ele>
        <time>2024-04-10T19:30:30.686Z</time>
      </trkpt>
      <trkpt lat="48.03292" lon="-4.56795">
        <ele>68.2</ele>
        <time>2024-04-10T19:30:40.863Z</time>
      </trkpt>
      <trkpt lat="48.03287" lon="-4.5694">
        <ele>67.7</ele>
        <time>2024-04-10T19:30:55.987Z</time>
      </trkpt>
      <trkpt lat="48.03281" lon="-4.57105">
        <ele>65.9</ele>
        <time>2024-04-10T19:31:11.582Z</time>
      </trkpt>
      <trkpt lat="48.03275" lon="-4.57187">
        <ele>64.9</ele>
        <time>2024-04-10T19:31:19.246Z</time>
      </trkpt>
      <trkpt lat="48.03269" lon="-4.57237">
        <ele>64.7</ele>
        <time>2024-04-10T19:31:24.502Z</time>
      </trkpt>
      <trkpt lat="48.03257" lon="-4.57303">
        <ele>63.3</ele>
        <time>2024-04-10T19:31:30.246Z</time>
      </trkpt>
      <trkpt lat="48.03243" lon="-4.5736">
        <ele>61.7</ele>
        <time>2024-04-10T19:31:35.020Z</time>
      </trkpt>
      <trkpt lat="48.03227" lon="-4.57424">
        <ele>61.3</ele>
        <time>2024-04-10T19:31:41.908Z</time>
      </trkpt>
      <trkpt lat="48.03191" lon="-4.57544">
        <ele>57.8</ele>
        <time>2024-04-10T19:31:52.218Z</time>
      </trkpt>
      <trkpt lat="48.03181" lon="-4.57582">
        <ele>57.5</ele>
        <time>2024-04-10T19:31:56.254Z</time>
      </trkpt>
      <trkpt lat="48.03175" lon="-4.57612">
        <ele>56.6</ele>
        <time>2024-04-10T19:31:58.653Z</time>
      </trkpt>
      <trkpt lat="48.03151" lon="-4.57765">
        <ele>54.4</ele>
        <time>2024-04-10T19:32:12.917Z</time>
      </trkpt>
      <trkpt lat="48.03111" lon="-4.57996">
        <ele>53</ele>
        <time>2024-04-10T19:32:36.968Z</time>
      </trkpt>
      <trkpt lat="48.03106" lon="-4.58014">
        <ele>52.9</ele>
        <time>2024-04-10T19:32:38.952Z</time>
      </trkpt>
      <trkpt lat="48.03041" lon="-4.5818">
        <ele>55</ele>
        <time>2024-04-10T19:33:03.718Z</time>
      </trkpt>
      <trkpt lat="48.03035" lon="-4.58203">
        <ele>55</ele>
        <time>2024-04-10T19:33:06.417Z</time>
      </trkpt>
      <trkpt lat="48.03011" lon="-4.58304">
        <ele>56.4</ele>
        <time>2024-04-10T19:33:20.697Z</time>
        <extensions>
          <visugpx:TrkExtension xmlns:visugpx="https://www.visugpx.com/editgpx/">
            <visugpx:node>15</visugpx:node>
            </visugpx:TrkExtension>
        </extensions>
      </trkpt>
      <trkpt lat="48.03006" lon="-4.58326">
        <ele>56.2</ele>
        <time>2024-04-10T19:33:22.955Z</time>
      </trkpt>
      <trkpt lat="48.03004" lon="-4.58333">
        <ele>56.1</ele>
        <time>2024-04-10T19:33:23.654Z</time>
      </trkpt>
      <trkpt lat="48.02953" lon="-4.58558">
        <ele>51.6</ele>
        <time>2024-04-10T19:33:43.968Z</time>
      </trkpt>
      <trkpt lat="48.0294" lon="-4.5862">
        <ele>49.9</ele>
        <time>2024-04-10T19:33:49.087Z</time>
      </trkpt>
      <trkpt lat="48.02936" lon="-4.58662">
        <ele>49.4</ele>
        <time>2024-04-10T19:33:53.046Z</time>
      </trkpt>
      <trkpt lat="48.02932" lon="-4.58927">
        <ele>46.6</ele>
        <time>2024-04-10T19:34:18.168Z</time>
      </trkpt>
      <trkpt lat="48.02934" lon="-4.58958">
        <ele>46.6</ele>
        <time>2024-04-10T19:34:21.573Z</time>
      </trkpt>
      <trkpt lat="48.02941" lon="-4.59004">
        <ele>46.9</ele>
        <time>2024-04-10T19:34:27.233Z</time>
      </trkpt>
      <trkpt lat="48.02949" lon="-4.59036">
        <ele>47.1</ele>
        <time>2024-04-10T19:34:31.302Z</time>
      </trkpt>
      <trkpt lat="48.02961" lon="-4.59077">
        <ele>47.5</ele>
        <time>2024-04-10T19:34:36.888Z</time>
      </trkpt>
      <trkpt lat="48.02967" lon="-4.59093">
        <ele>47.5</ele>
        <time>2024-04-10T19:34:38.893Z</time>
      </trkpt>
      <trkpt lat="48.03023" lon="-4.59237">
        <ele>46.5</ele>
        <time>2024-04-10T19:34:55.654Z</time>
      </trkpt>
      <trkpt lat="48.03072" lon="-4.59368">
        <ele>45.2</ele>
        <time>2024-04-10T19:35:10.234Z</time>
      </trkpt>
      <trkpt lat="48.0308" lon="-4.59395">
        <ele>45.8</ele>
        <time>2024-04-10T19:35:14.673Z</time>
      </trkpt>
      <trkpt lat="48.03087" lon="-4.59442">
        <ele>46.4</ele>
        <time>2024-04-10T19:35:21.026Z</time>
      </trkpt>
      <trkpt lat="48.03088" lon="-4.59473">
        <ele>46.5</ele>
        <time>2024-04-10T19:35:24.580Z</time>
      </trkpt>
      <trkpt lat="48.03085" lon="-4.59501">
        <ele>46.2</ele>
        <time>2024-04-10T19:35:27.267Z</time>
      </trkpt>
      <trkpt lat="48.03079" lon="-4.59529">
        <ele>46.7</ele>
        <time>2024-04-10T19:35:31.446Z</time>
      </trkpt>
      <trkpt lat="48.0307" lon="-4.59556">
        <ele>47.1</ele>
        <time>2024-04-10T19:35:35.478Z</time>
      </trkpt>
      <trkpt lat="48.0303" lon="-4.59656">
        <ele>48.2</ele>
        <time>2024-04-10T19:35:50.136Z</time>
      </trkpt>
      <trkpt lat="48.03021" lon="-4.5968">
        <ele>48.7</ele>
        <time>2024-04-10T19:35:54.124Z</time>
      </trkpt>
      <trkpt lat="48.02949" lon="-4.59855">
        <ele>48</ele>
        <time>2024-04-10T19:36:15.539Z</time>
      </trkpt>
      <trkpt lat="48.02935" lon="-4.59895">
        <ele>48.7</ele>
        <time>2024-04-10T19:36:21.798Z</time>
      </trkpt>
      <trkpt lat="48.02928" lon="-4.59933">
        <ele>49.2</ele>
        <time>2024-04-10T19:36:27.017Z</time>
      </trkpt>
      <trkpt lat="48.02918" lon="-4.60066">
        <ele>48</ele>
        <time>2024-04-10T19:36:39.966Z</time>
      </trkpt>
      <trkpt lat="48.02917" lon="-4.60091">
        <ele>48</ele>
        <time>2024-04-10T19:36:42.704Z</time>
      </trkpt>
      <trkpt lat="48.02918" lon="-4.60211">
        <ele>48</ele>
        <time>2024-04-10T19:36:55.822Z</time>
      </trkpt>
      <trkpt lat="48.0292" lon="-4.6027">
        <ele>49</ele>
        <time>2024-04-10T19:37:04.207Z</time>
      </trkpt>
      <trkpt lat="48.02923" lon="-4.60389">
        <ele>48</ele>
        <time>2024-04-10T19:37:15.815Z</time>
      </trkpt>
      <trkpt lat="48.0292" lon="-4.60415">
        <ele>47.1</ele>
        <time>2024-04-10T19:37:17.728Z</time>
      </trkpt>
      <trkpt lat="48.02912" lon="-4.60478">
        <ele>45.8</ele>
        <time>2024-04-10T19:37:23.126Z</time>
      </trkpt>
      <trkpt lat="48.02909" lon="-4.60499">
        <ele>45.3</ele>
        <time>2024-04-10T19:37:24.873Z</time>
      </trkpt>
      <trkpt lat="48.02897" lon="-4.60589">
        <ele>43.9</ele>
        <time>2024-04-10T19:37:33.075Z</time>
      </trkpt>
      <trkpt lat="48.02893" lon="-4.60646">
        <ele>43.9</ele>
        <time>2024-04-10T19:37:39.340Z</time>
        <extensions>
          <visugpx:TrkExtension xmlns:visugpx="https://www.visugpx.com/editgpx/">
            <visugpx:node>16</visugpx:node>
            </visugpx:TrkExtension>
        </extensions>
      </trkpt>
      <trkpt lat="48.02893" lon="-4.60646">
        <ele>43.9</ele>
        <time>2024-04-10T19:37:39.340Z</time>
      </trkpt>
      <trkpt lat="48.02891" lon="-4.60695">
        <ele>44</ele>
        <time>2024-04-10T19:37:44.865Z</time>
      </trkpt>
      <trkpt lat="48.0289" lon="-4.60743">
        <ele>45</ele>
        <time>2024-04-10T19:37:52.147Z</time>
      </trkpt>
      <trkpt lat="48.02887" lon="-4.6084">
        <ele>46</ele>
        <time>2024-04-10T19:38:04.528Z</time>
      </trkpt>
      <trkpt lat="48.02887" lon="-4.60863">
        <ele>46.1</ele>
        <time>2024-04-10T19:38:07.206Z</time>
      </trkpt>
      <trkpt lat="48.02888" lon="-4.60892">
        <ele>46.1</ele>
        <time>2024-04-10T19:38:10.381Z</time>
      </trkpt>
      <trkpt lat="48.02891" lon="-4.60907">
        <ele>46.7</ele>
        <time>2024-04-10T19:38:13.662Z</time>
      </trkpt>
      <trkpt lat="48.02903" lon="-4.60966">
        <ele>47.9</ele>
        <time>2024-04-10T19:38:22.797Z</time>
      </trkpt>
      <trkpt lat="48.02937" lon="-4.61102">
        <ele>48.6</ele>
        <time>2024-04-10T19:38:39.822Z</time>
      </trkpt>
      <trkpt lat="48.02946" lon="-4.61123">
        <ele>49.1</ele>
        <time>2024-04-10T19:38:43.554Z</time>
      </trkpt>
      <trkpt lat="48.02985" lon="-4.61222">
        <ele>48.9</ele>
        <time>2024-04-10T19:38:55.809Z</time>
      </trkpt>
      <trkpt lat="48.02993" lon="-4.61249">
        <ele>48.8</ele>
        <time>2024-04-10T19:38:58.888Z</time>
      </trkpt>
      <trkpt lat="48.02996" lon="-4.6127">
        <ele>48.8</ele>
        <time>2024-04-10T19:39:01.235Z</time>
      </trkpt>
      <trkpt lat="48.02996" lon="-4.61275">
        <ele>48.7</ele>
        <time>2024-04-10T19:39:01.657Z</time>
      </trkpt>
      <trkpt lat="48.03016" lon="-4.61464">
        <ele>46.9</ele>
        <time>2024-04-10T19:39:20.065Z</time>
      </trkpt>
      <trkpt lat="48.03023" lon="-4.61584">
        <ele>44</ele>
        <time>2024-04-10T19:39:29.776Z</time>
      </trkpt>
      <trkpt lat="48.03024" lon="-4.61649">
        <ele>42.9</ele>
        <time>2024-04-10T19:39:35.471Z</time>
      </trkpt>
      <trkpt lat="48.03022" lon="-4.61684">
        <ele>42.2</ele>
        <time>2024-04-10T19:39:38.440Z</time>
      </trkpt>
      <trkpt lat="48.0301" lon="-4.61839">
        <ele>37.9</ele>
        <time>2024-04-10T19:39:50.548Z</time>
      </trkpt>
      <trkpt lat="48.03" lon="-4.6192">
        <ele>35</ele>
        <time>2024-04-10T19:39:56.453Z</time>
      </trkpt>
      <trkpt lat="48.02994" lon="-4.6196">
        <ele>34</ele>
        <time>2024-04-10T19:39:59.746Z</time>
      </trkpt>
      <trkpt lat="48.02988" lon="-4.61994">
        <ele>32.7</ele>
        <time>2024-04-10T19:40:02.224Z</time>
      </trkpt>
      <trkpt lat="48.0298" lon="-4.62043">
        <ele>31.4</ele>
        <time>2024-04-10T19:40:06.214Z</time>
        <extensions>
          <visugpx:TrkExtension xmlns:visugpx="https://www.visugpx.com/editgpx/">
            <visugpx:node>17</visugpx:node>
            </visugpx:TrkExtension>
        </extensions>
      </trkpt>
      <trkpt lat="48.02963" lon="-4.62137">
        <ele>29.3</ele>
        <time>2024-04-10T19:40:14.291Z</time>
      </trkpt>
      <trkpt lat="48.02959" lon="-4.62178">
        <ele>29.2</ele>
        <time>2024-04-10T19:40:18.669Z</time>
      </trkpt>
      <trkpt lat="48.02956" lon="-4.62235">
        <ele>29.4</ele>
        <time>2024-04-10T19:40:25.243Z</time>
      </trkpt>
      <trkpt lat="48.02951" lon="-4.62314">
        <ele>28.2</ele>
        <time>2024-04-10T19:40:32.347Z</time>
      </trkpt>
      <trkpt lat="48.02939" lon="-4.62406">
        <ele>25.2</ele>
        <time>2024-04-10T19:40:39.288Z</time>
      </trkpt>
      <trkpt lat="48.02925" lon="-4.62494">
        <ele>21.8</ele>
        <time>2024-04-10T19:40:45.623Z</time>
      </trkpt>
      <trkpt lat="48.02921" lon="-4.62517">
        <ele>20.6</ele>
        <time>2024-04-10T19:40:47.181Z</time>
      </trkpt>
      <trkpt lat="48.029" lon="-4.62616">
        <ele>17.9</ele>
        <time>2024-04-10T19:40:55.379Z</time>
      </trkpt>
      <trkpt lat="48.02895" lon="-4.62636">
        <ele>17.3</ele>
        <time>2024-04-10T19:40:57.026Z</time>
      </trkpt>
      <trkpt lat="48.02894" lon="-4.62647">
        <ele>16.9</ele>
        <time>2024-04-10T19:40:57.815Z</time>
      </trkpt>
      <trkpt lat="48.0289" lon="-4.62679">
        <ele>15.6</ele>
        <time>2024-04-10T19:41:00.045Z</time>
      </trkpt>
      <trkpt lat="48.02889" lon="-4.62745">
        <ele>14.2</ele>
        <time>2024-04-10T19:41:05.543Z</time>
      </trkpt>
      <trkpt lat="48.02891" lon="-4.62763">
        <ele>13.6</ele>
        <time>2024-04-10T19:41:06.882Z</time>
      </trkpt>
      <trkpt lat="48.02896" lon="-4.62811">
        <ele>13</ele>
        <time>2024-04-10T19:41:11.383Z</time>
      </trkpt>
      <trkpt lat="48.02915" lon="-4.62921">
        <ele>9.9</ele>
        <time>2024-04-10T19:41:20.225Z</time>
      </trkpt>
      <trkpt lat="48.02919" lon="-4.62945">
        <ele>8.7</ele>
        <time>2024-04-10T19:41:21.847Z</time>
      </trkpt>
      <trkpt lat="48.0294" lon="-4.63077">
        <ele>6.7</ele>
        <time>2024-04-10T19:41:34.050Z</time>
      </trkpt>
      <trkpt lat="48.02963" lon="-4.63264">
        <ele>5.2</ele>
        <time>2024-04-10T19:41:52.708Z</time>
      </trkpt>
      <trkpt lat="48.02964" lon="-4.63274">
        <ele>5</ele>
        <time>2024-04-10T19:41:53.564Z</time>
      </trkpt>
      <trkpt lat="48.02965" lon="-4.63287">
        <ele>4.9</ele>
        <time>2024-04-10T19:41:54.852Z</time>
      </trkpt>
      <trkpt lat="48.02968" lon="-4.63307">
        <ele>4.9</ele>
        <time>2024-04-10T19:41:57.093Z</time>
      </trkpt>
      <trkpt lat="48.02968" lon="-4.6331">
        <ele>5.1</ele>
        <time>2024-04-10T19:41:58.196Z</time>
      </trkpt>
      <trkpt lat="48.0297" lon="-4.6334">
        <ele>6.7</ele>
        <time>2024-04-10T19:42:06.703Z</time>
      </trkpt>
      <trkpt lat="48.03007" lon="-4.63355">
        <ele>6.7</ele>
        <time>2024-04-10T19:42:12.969Z</time>
      </trkpt>
      <trkpt lat="48.03017" lon="-4.6336">
        <ele>6.9</ele>
        <time>2024-04-10T19:42:15.057Z</time>
      </trkpt>
      <trkpt lat="48.03026" lon="-4.6337">
        <ele>7</ele>
        <time>2024-04-10T19:42:17.057Z</time>
      </trkpt>
      <trkpt lat="48.03043" lon="-4.63408">
        <ele>7.1</ele>
        <time>2024-04-10T19:42:22.214Z</time>
      </trkpt>
      <trkpt lat="48.03061" lon="-4.63438">
        <ele>6.7</ele>
        <time>2024-04-10T19:42:26.066Z</time>
      </trkpt>
      <trkpt lat="48.03089" lon="-4.63474">
        <ele>6.8</ele>
        <time>2024-04-10T19:42:32.260Z</time>
      </trkpt>
      <trkpt lat="48.03098" lon="-4.63481">
        <ele>6.9</ele>
        <time>2024-04-10T19:42:34.087Z</time>
      </trkpt>
      <trkpt lat="48.03113" lon="-4.63483">
        <ele>5.9</ele>
        <time>2024-04-10T19:42:35.567Z</time>
      </trkpt>
      <trkpt lat="48.03151" lon="-4.63479">
        <ele>7.2</ele>
        <time>2024-04-10T19:42:44.510Z</time>
      </trkpt>
      <trkpt lat="48.03217" lon="-4.63467">
        <ele>7.1</ele>
        <time>2024-04-10T19:42:55.224Z</time>
      </trkpt>
      <trkpt lat="48.03308" lon="-4.63428">
        <ele>6.8</ele>
        <time>2024-04-10T19:43:10.243Z</time>
      </trkpt>
      <trkpt lat="48.03357" lon="-4.63411">
        <ele>6.3</ele>
        <time>2024-04-10T19:43:17.746Z</time>
      </trkpt>
      <trkpt lat="48.03398" lon="-4.63391">
        <ele>6.1</ele>
        <time>2024-04-10T19:43:24.495Z</time>
      </trkpt>
      <trkpt lat="48.03438" lon="-4.63379">
        <ele>6.9</ele>
        <time>2024-04-10T19:43:32.630Z</time>
      </trkpt>
      <trkpt lat="48.03485" lon="-4.63357">
        <ele>6.1</ele>
        <time>2024-04-10T19:43:39.583Z</time>
      </trkpt>
      <trkpt lat="48.03504" lon="-4.63356">
        <ele>6.3</ele>
        <time>2024-04-10T19:43:43.029Z</time>
      </trkpt>
      <trkpt lat="48.03525" lon="-4.63363">
        <ele>6.5</ele>
        <time>2024-04-10T19:43:46.881Z</time>
      </trkpt>
      <trkpt lat="48.03545" lon="-4.63376">
        <ele>7.3</ele>
        <time>2024-04-10T19:43:52.158Z</time>
      </trkpt>
      <trkpt lat="48.03571" lon="-4.63401">
        <ele>7.9</ele>
        <time>2024-04-10T19:43:58.308Z</time>
      </trkpt>
      <trkpt lat="48.03608" lon="-4.63443">
        <ele>7.7</ele>
        <time>2024-04-10T19:44:05.600Z</time>
      </trkpt>
      <trkpt lat="48.03677" lon="-4.63507">
        <ele>8</ele>
        <time>2024-04-10T19:44:19.352Z</time>
      </trkpt>
      <trkpt lat="48.03709" lon="-4.63523">
        <ele>8.2</ele>
        <time>2024-04-10T19:44:25.193Z</time>
      </trkpt>
      <trkpt lat="48.03743" lon="-4.63533">
        <ele>8.9</ele>
        <time>2024-04-10T19:44:32.147Z</time>
      </trkpt>
      <trkpt lat="48.03778" lon="-4.63533">
        <ele>10.5</ele>
        <time>2024-04-10T19:44:41.602Z</time>
      </trkpt>
      <trkpt lat="48.03788" lon="-4.63538">
        <ele>9.8</ele>
        <time>2024-04-10T19:44:42.638Z</time>
      </trkpt>
      <trkpt lat="48.03795" lon="-4.63544">
        <ele>9.4</ele>
        <time>2024-04-10T19:44:43.521Z</time>
      </trkpt>
      <trkpt lat="48.03811" lon="-4.63565">
        <ele>8.8</ele>
        <time>2024-04-10T19:44:46.246Z</time>
      </trkpt>
      <trkpt lat="48.03831" lon="-4.63613">
        <ele>6.7</ele>
        <time>2024-04-10T19:44:50.223Z</time>
      </trkpt>
      <trkpt lat="48.03838" lon="-4.63624">
        <ele>5.4</ele>
        <time>2024-04-10T19:44:51.219Z</time>
      </trkpt>
      <trkpt lat="48.03859" lon="-4.63659">
        <ele>5</ele>
        <time>2024-04-10T19:44:55.795Z</time>
      </trkpt>
      <trkpt lat="48.03862" lon="-4.63665">
        <ele>5</ele>
        <time>2024-04-10T19:44:56.614Z</time>
      </trkpt>
      <trkpt lat="48.03867" lon="-4.63677">
        <ele>5</ele>
        <time>2024-04-10T19:44:58.160Z</time>
      </trkpt>
      <trkpt lat="48.03878" lon="-4.637">
        <ele>5.1</ele>
        <time>2024-04-10T19:45:01.412Z</time>
      </trkpt>
      <trkpt lat="48.03885" lon="-4.63733">
        <ele>5.9</ele>
        <time>2024-04-10T19:45:06.875Z</time>
      </trkpt>
      <trkpt lat="48.03899" lon="-4.63805">
        <ele>5.7</ele>
        <time>2024-04-10T19:45:14.768Z</time>
      </trkpt>
      <trkpt lat="48.03921" lon="-4.63882">
        <ele>6.4</ele>
        <time>2024-04-10T19:45:25.126Z</time>
      </trkpt>
      <trkpt lat="48.03937" lon="-4.63917">
        <ele>7.5</ele>
        <time>2024-04-10T19:45:32.162Z</time>
      </trkpt>
      <trkpt lat="48.03955" lon="-4.63944">
        <ele>8.4</ele>
        <time>2024-04-10T19:45:38.230Z</time>
      </trkpt>
      <trkpt lat="48.03962" lon="-4.63952">
        <ele>8.8</ele>
        <time>2024-04-10T19:45:40.601Z</time>
      </trkpt>
      <trkpt lat="48.03983" lon="-4.63963">
        <ele>10.2</ele>
        <time>2024-04-10T19:45:48.113Z</time>
      </trkpt>
      <trkpt lat="48.04109" lon="-4.63984">
        <ele>14.9</ele>
        <time>2024-04-10T19:46:18.933Z</time>
      </trkpt>
      <trkpt lat="48.04142" lon="-4.63999">
        <ele>16.1</ele>
        <time>2024-04-10T19:46:27.093Z</time>
      </trkpt>
      <trkpt lat="48.04258" lon="-4.64042">
        <ele>18.9</ele>
        <time>2024-04-10T19:46:51.934Z</time>
      </trkpt>
      <trkpt lat="48.04271" lon="-4.64046">
        <ele>19.7</ele>
        <time>2024-04-10T19:46:56.260Z</time>
      </trkpt>
      <trkpt lat="48.04329" lon="-4.64064">
        <ele>23.2</ele>
        <time>2024-04-10T19:47:15.265Z</time>
      </trkpt>
      <trkpt lat="48.04413" lon="-4.64079">
        <ele>26.6</ele>
        <time>2024-04-10T19:47:36.616Z</time>
      </trkpt>
      <trkpt lat="48.04451" lon="-4.64083">
        <ele>29</ele>
        <time>2024-04-10T19:47:49.492Z</time>
        <extensions>
          <visugpx:TrkExtension xmlns:visugpx="https://www.visugpx.com/editgpx/">
            <visugpx:node>18</visugpx:node>
            </visugpx:TrkExtension>
        </extensions>
      </trkpt>
      <trkpt lat="48.04456" lon="-4.64084">
        <ele>29.1</ele>
        <time>2024-04-10T19:47:50.500Z</time>
      </trkpt>
      <trkpt lat="48.04489" lon="-4.64082">
        <ele>30.1</ele>
        <time>2024-04-10T19:47:57.915Z</time>
      </trkpt>
      <trkpt lat="48.04513" lon="-4.64085">
        <ele>33</ele>
        <time>2024-04-10T19:48:14.036Z</time>
      </trkpt>
      <trkpt lat="48.04522" lon="-4.64093">
        <ele>34.5</ele>
        <time>2024-04-10T19:48:21.370Z</time>
      </trkpt>
      <trkpt lat="48.04528" lon="-4.64112">
        <ele>35.1</ele>
        <time>2024-04-10T19:48:25.026Z</time>
      </trkpt>
      <trkpt lat="48.04539" lon="-4.64133">
        <ele>36.3</ele>
        <time>2024-04-10T19:48:31.412Z</time>
      </trkpt>
      <trkpt lat="48.04554" lon="-4.64151">
        <ele>35.7</ele>
        <time>2024-04-10T19:48:33.816Z</time>
      </trkpt>
      <trkpt lat="48.04586" lon="-4.64176">
        <ele>34.6</ele>
        <time>2024-04-10T19:48:38.355Z</time>
      </trkpt>
      <trkpt lat="48.04614" lon="-4.64194">
        <ele>33.4</ele>
        <time>2024-04-10T19:48:41.939Z</time>
      </trkpt>
      <trkpt lat="48.0459" lon="-4.64332">
        <ele>24.1</ele>
        <time>2024-04-10T19:48:51.288Z</time>
      </trkpt>
      <trkpt lat="48.04589" lon="-4.64352">
        <ele>23.7</ele>
        <time>2024-04-10T19:48:52.983Z</time>
      </trkpt>
      <trkpt lat="48.04589" lon="-4.64375">
        <ele>22.5</ele>
        <time>2024-04-10T19:48:54.491Z</time>
      </trkpt>
      <trkpt lat="48.04591" lon="-4.64395">
        <ele>20.9</ele>
        <time>2024-04-10T19:48:55.816Z</time>
      </trkpt>
      <trkpt lat="48.04596" lon="-4.64419">
        <ele>19.8</ele>
        <time>2024-04-10T19:48:57.477Z</time>
      </trkpt>
      <trkpt lat="48.04606" lon="-4.64444">
        <ele>24.6</ele>
        <time>2024-04-10T19:49:11.121Z</time>
      </trkpt>
      <trkpt lat="48.04629" lon="-4.64487">
        <ele>26.2</ele>
        <time>2024-04-10T19:49:20.792Z</time>
      </trkpt>
      <trkpt lat="48.04659" lon="-4.64526">
        <ele>31.1</ele>
        <time>2024-04-10T19:49:47.836Z</time>
      </trkpt>
      <trkpt lat="48.04687" lon="-4.64566">
        <ele>35</ele>
        <time>2024-04-10T19:50:09.390Z</time>
      </trkpt>
      <trkpt lat="48.04731" lon="-4.64642">
        <ele>41.9</ele>
        <time>2024-04-10T19:50:47.653Z</time>
      </trkpt>
      <trkpt lat="48.04779" lon="-4.64721">
        <ele>46.1</ele>
        <time>2024-04-10T19:51:10.479Z</time>
      </trkpt>
      <trkpt lat="48.04782" lon="-4.64732">
        <ele>46.8</ele>
        <time>2024-04-10T19:51:14.251Z</time>
      </trkpt>
      <trkpt lat="48.0479" lon="-4.64785">
        <ele>47.9</ele>
        <time>2024-04-10T19:51:22.406Z</time>
      </trkpt>
      <trkpt lat="48.04798" lon="-4.64841">
        <ele>48.5</ele>
        <time>2024-04-10T19:51:29.726Z</time>
      </trkpt>
      <trkpt lat="48.04802" lon="-4.649">
        <ele>48.3</ele>
        <time>2024-04-10T19:51:35.907Z</time>
      </trkpt>
      <trkpt lat="48.04806" lon="-4.64995">
        <ele>48.9</ele>
        <time>2024-04-10T19:51:47.316Z</time>
      </trkpt>
      <trkpt lat="48.04806" lon="-4.65043">
        <ele>49</ele>
        <time>2024-04-10T19:51:52.720Z</time>
      </trkpt>
      <trkpt lat="48.04793" lon="-4.65234">
        <ele>46.6</ele>
        <time>2024-04-10T19:52:10.467Z</time>
      </trkpt>
      <trkpt lat="48.04787" lon="-4.65278">
        <ele>45.7</ele>
        <time>2024-04-10T19:52:14.256Z</time>
      </trkpt>
      <trkpt lat="48.04777" lon="-4.65324">
        <ele>45</ele>
        <time>2024-04-10T19:52:18.620Z</time>
      </trkpt>
      <trkpt lat="48.04775" lon="-4.65365">
        <ele>46.1</ele>
        <time>2024-04-10T19:52:25.542Z</time>
      </trkpt>
      <trkpt lat="48.04776" lon="-4.6538">
        <ele>46.6</ele>
        <time>2024-04-10T19:52:28.401Z</time>
      </trkpt>
      <trkpt lat="48.04779" lon="-4.65399">
        <ele>47</ele>
        <time>2024-04-10T19:52:31.344Z</time>
      </trkpt>
      <trkpt lat="48.04796" lon="-4.65396">
        <ele>47.7</ele>
        <time>2024-04-10T19:52:35.701Z</time>
      </trkpt>
      <trkpt lat="48.04919" lon="-4.65389">
        <ele>52.2</ele>
        <time>2024-04-10T19:53:05.441Z</time>
      </trkpt>
      <trkpt lat="48.05231" lon="-4.65372">
        <ele>65</ele>
        <time>2024-04-10T19:54:25.016Z</time>
      </trkpt>
      <trkpt lat="48.05322" lon="-4.65378">
        <ele>63.2</ele>
        <time>2024-04-10T19:54:37.500Z</time>
      </trkpt>
      <trkpt lat="48.05365" lon="-4.65385">
        <ele>60.6</ele>
        <time>2024-04-10T19:54:41.918Z</time>
      </trkpt>
      <trkpt lat="48.05411" lon="-4.65399">
        <ele>57.7</ele>
        <time>2024-04-10T19:54:46.663Z</time>
      </trkpt>
      <trkpt lat="48.05449" lon="-4.65417">
        <ele>59</ele>
        <time>2024-04-10T19:54:55.857Z</time>
      </trkpt>
      <trkpt lat="48.05459" lon="-4.65426">
        <ele>59.3</ele>
        <time>2024-04-10T19:54:58.345Z</time>
      </trkpt>
      <trkpt lat="48.05483" lon="-4.65444">
        <ele>60</ele>
        <time>2024-04-10T19:55:04.092Z</time>
      </trkpt>
      <trkpt lat="48.05621" lon="-4.65565">
        <ele>65.7</ele>
        <time>2024-04-10T19:55:42.317Z</time>
      </trkpt>
      <trkpt lat="48.05695" lon="-4.65632">
        <ele>69.8</ele>
        <time>2024-04-10T19:56:06.183Z</time>
        <extensions>
          <visugpx:TrkExtension xmlns:visugpx="https://www.visugpx.com/editgpx/">
            <visugpx:node>19</visugpx:node>
            </visugpx:TrkExtension>
        </extensions>
      </trkpt>
      <trkpt lat="48.05729" lon="-4.65662">
        <ele>71.8</ele>
        <time>2024-04-10T19:56:17.534Z</time>
      </trkpt>
      <trkpt lat="48.05811" lon="-4.65734">
        <ele>75.2</ele>
        <time>2024-04-10T19:56:40.290Z</time>
      </trkpt>
      <trkpt lat="48.05975" lon="-4.65878">
        <ele>80</ele>
        <time>2024-04-10T19:57:20.617Z</time>
      </trkpt>
      <trkpt lat="48.05994" lon="-4.65889">
        <ele>80</ele>
        <time>2024-04-10T19:57:23.947Z</time>
      </trkpt>
      <trkpt lat="48.06027" lon="-4.65761">
        <ele>80</ele>
        <time>2024-04-10T19:57:38.935Z</time>
      </trkpt>
      <trkpt lat="48.06129" lon="-4.65444">
        <ele>79</ele>
        <time>2024-04-10T19:58:15.867Z</time>
      </trkpt>
      <trkpt lat="48.0614" lon="-4.65388">
        <ele>81</ele>
        <time>2024-04-10T19:58:27.173Z</time>
      </trkpt>
      <trkpt lat="48.06153" lon="-4.65263">
        <ele>82.3</ele>
        <time>2024-04-10T19:58:43.288Z</time>
      </trkpt>
      <trkpt lat="48.0621" lon="-4.64775">
        <ele>83.5</ele>
        <time>2024-04-10T19:59:39.327Z</time>
      </trkpt>
      <trkpt lat="48.06212" lon="-4.64737">
        <ele>82.5</ele>
        <time>2024-04-10T19:59:42.325Z</time>
      </trkpt>
      <trkpt lat="48.06217" lon="-4.64636">
        <ele>81.7</ele>
        <time>2024-04-10T19:59:52.255Z</time>
      </trkpt>
      <trkpt lat="48.06221" lon="-4.64468">
        <ele>79</ele>
        <time>2024-04-10T20:00:07.121Z</time>
      </trkpt>
      <trkpt lat="48.06226" lon="-4.64239">
        <ele>78.2</ele>
        <time>2024-04-10T20:00:30.958Z</time>
      </trkpt>
      <trkpt lat="48.0623" lon="-4.64189">
        <ele>78.7</ele>
        <time>2024-04-10T20:00:37.338Z</time>
      </trkpt>
      <trkpt lat="48.06237" lon="-4.64132">
        <ele>79.5</ele>
        <time>2024-04-10T20:00:45.148Z</time>
      </trkpt>
      <trkpt lat="48.06239" lon="-4.64114">
        <ele>79.4</ele>
        <time>2024-04-10T20:00:46.995Z</time>
      </trkpt>
      <trkpt lat="48.06247" lon="-4.64058">
        <ele>80</ele>
        <time>2024-04-10T20:00:54.314Z</time>
      </trkpt>
      <trkpt lat="48.06252" lon="-4.64024">
        <ele>80.1</ele>
        <time>2024-04-10T20:00:58.277Z</time>
        <extensions>
          <visugpx:TrkExtension xmlns:visugpx="https://www.visugpx.com/editgpx/">
            <visugpx:node>20</visugpx:node>
            </visugpx:TrkExtension>
        </extensions>
      </trkpt>
      <trkpt lat="48.06254" lon="-4.64015">
        <ele>80.1</ele>
        <time>2024-04-10T20:00:59.314Z</time>
      </trkpt>
      <trkpt lat="48.06292" lon="-4.63815">
        <ele>79.7</ele>
        <time>2024-04-10T20:01:21.420Z</time>
      </trkpt>
      <trkpt lat="48.06299" lon="-4.63758">
        <ele>80</ele>
        <time>2024-04-10T20:01:28.247Z</time>
      </trkpt>
      <trkpt lat="48.06327" lon="-4.63492">
        <ele>80.2</ele>
        <time>2024-04-10T20:01:57.977Z</time>
      </trkpt>
      <trkpt lat="48.06329" lon="-4.63459">
        <ele>80.1</ele>
        <time>2024-04-10T20:02:01.447Z</time>
      </trkpt>
      <trkpt lat="48.06329" lon="-4.63429">
        <ele>80.1</ele>
        <time>2024-04-10T20:02:04.724Z</time>
      </trkpt>
      <trkpt lat="48.06324" lon="-4.63353">
        <ele>81</ele>
        <time>2024-04-10T20:02:14.687Z</time>
      </trkpt>
      <trkpt lat="48.06304" lon="-4.63174">
        <ele>81.9</ele>
        <time>2024-04-10T20:02:35.998Z</time>
      </trkpt>
      <trkpt lat="48.06299" lon="-4.63128">
        <ele>81.8</ele>
        <time>2024-04-10T20:02:40.938Z</time>
      </trkpt>
      <trkpt lat="48.06296" lon="-4.63084">
        <ele>82</ele>
        <time>2024-04-10T20:02:46.098Z</time>
      </trkpt>
      <trkpt lat="48.06295" lon="-4.62994">
        <ele>83</ele>
        <time>2024-04-10T20:02:57.716Z</time>
      </trkpt>
      <trkpt lat="48.06295" lon="-4.62971">
        <ele>83</ele>
        <time>2024-04-10T20:03:00.228Z</time>
      </trkpt>
      <trkpt lat="48.06294" lon="-4.62891">
        <ele>85.5</ele>
        <time>2024-04-10T20:03:14.862Z</time>
      </trkpt>
      <trkpt lat="48.06287" lon="-4.62794">
        <ele>86</ele>
        <time>2024-04-10T20:03:26.348Z</time>
      </trkpt>
      <trkpt lat="48.06283" lon="-4.62699">
        <ele>84.3</ele>
        <time>2024-04-10T20:03:34.585Z</time>
      </trkpt>
      <trkpt lat="48.06275" lon="-4.62564">
        <ele>81.3</ele>
        <time>2024-04-10T20:03:45.745Z</time>
      </trkpt>
      <trkpt lat="48.06282" lon="-4.62482">
        <ele>78.5</ele>
        <time>2024-04-10T20:03:51.746Z</time>
      </trkpt>
      <trkpt lat="48.06293" lon="-4.62338">
        <ele>72.7</ele>
        <time>2024-04-10T20:04:01.654Z</time>
      </trkpt>
      <trkpt lat="48.06307" lon="-4.62196">
        <ele>70.1</ele>
        <time>2024-04-10T20:04:14.039Z</time>
      </trkpt>
      <trkpt lat="48.06321" lon="-4.62089">
        <ele>69.1</ele>
        <time>2024-04-10T20:04:24.552Z</time>
      </trkpt>
      <trkpt lat="48.06328" lon="-4.62005">
        <ele>67.2</ele>
        <time>2024-04-10T20:04:31.497Z</time>
      </trkpt>
      <trkpt lat="48.06338" lon="-4.61893">
        <ele>64.1</ele>
        <time>2024-04-10T20:04:40.269Z</time>
      </trkpt>
      <trkpt lat="48.06348" lon="-4.61596">
        <ele>66</ele>
        <time>2024-04-10T20:05:15.948Z</time>
      </trkpt>
      <trkpt lat="48.06349" lon="-4.61576">
        <ele>66.8</ele>
        <time>2024-04-10T20:05:20.283Z</time>
      </trkpt>
      <trkpt lat="48.06358" lon="-4.61316">
        <ele>69.1</ele>
        <time>2024-04-10T20:05:52.710Z</time>
      </trkpt>
      <trkpt lat="48.06362" lon="-4.61023">
        <ele>73</ele>
        <time>2024-04-10T20:06:31.888Z</time>
      </trkpt>
      <trkpt lat="48.06364" lon="-4.60939">
        <ele>73</ele>
        <time>2024-04-10T20:06:41.070Z</time>
      </trkpt>
      <trkpt lat="48.06366" lon="-4.60863">
        <ele>73</ele>
        <time>2024-04-10T20:06:49.379Z</time>
      </trkpt>
      <trkpt lat="48.06379" lon="-4.60624">
        <ele>72.6</ele>
        <time>2024-04-10T20:07:14.963Z</time>
      </trkpt>
      <trkpt lat="48.06379" lon="-4.606">
        <ele>72.6</ele>
        <time>2024-04-10T20:07:17.585Z</time>
      </trkpt>
      <trkpt lat="48.06383" lon="-4.60362">
        <ele>73.2</ele>
        <time>2024-04-10T20:07:44.553Z</time>
      </trkpt>
      <trkpt lat="48.06388" lon="-4.60253">
        <ele>73</ele>
        <time>2024-04-10T20:07:56.184Z</time>
      </trkpt>
      <trkpt lat="48.06397" lon="-4.60105">
        <ele>72.6</ele>
        <time>2024-04-10T20:08:11.816Z</time>
      </trkpt>
      <trkpt lat="48.06422" lon="-4.59777">
        <ele>77</ele>
        <time>2024-04-10T20:08:55.963Z</time>
      </trkpt>
      <trkpt lat="48.06425" lon="-4.59711">
        <ele>78.6</ele>
        <time>2024-04-10T20:09:06.598Z</time>
      </trkpt>
      <trkpt lat="48.06427" lon="-4.59616">
        <ele>80.9</ele>
        <time>2024-04-10T20:09:21.882Z</time>
      </trkpt>
      <trkpt lat="48.0643" lon="-4.59546">
        <ele>81.5</ele>
        <time>2024-04-10T20:09:30.581Z</time>
      </trkpt>
      <trkpt lat="48.06446" lon="-4.5937">
        <ele>82.6</ele>
        <time>2024-04-10T20:09:51.828Z</time>
        <extensions>
          <visugpx:TrkExtension xmlns:visugpx="https://www.visugpx.com/editgpx/">
            <visugpx:node>21</visugpx:node>
            </visugpx:TrkExtension>
        </extensions>
      </trkpt>
      <trkpt lat="48.06457" lon="-4.5924">
        <ele>83</ele>
        <time>2024-04-10T20:10:06.787Z</time>
      </trkpt>
      <trkpt lat="48.06462" lon="-4.59199">
        <ele>83</ele>
        <time>2024-04-10T20:10:11.340Z</time>
      </trkpt>
      <trkpt lat="48.06471" lon="-4.59137">
        <ele>83</ele>
        <time>2024-04-10T20:10:18.270Z</time>
      </trkpt>
      <trkpt lat="48.06492" lon="-4.59005">
        <ele>83</ele>
        <time>2024-04-10T20:10:33.092Z</time>
      </trkpt>
      <trkpt lat="48.06511" lon="-4.58878">
        <ele>83</ele>
        <time>2024-04-10T20:10:47.308Z</time>
      </trkpt>
      <trkpt lat="48.06527" lon="-4.58795">
        <ele>83</ele>
        <time>2024-04-10T20:10:56.745Z</time>
      </trkpt>
      <trkpt lat="48.06547" lon="-4.58703">
        <ele>83</ele>
        <time>2024-04-10T20:11:07.313Z</time>
      </trkpt>
      <trkpt lat="48.06596" lon="-4.58504">
        <ele>83.5</ele>
        <time>2024-04-10T20:11:31.278Z</time>
      </trkpt>
      <trkpt lat="48.06628" lon="-4.58353">
        <ele>83</ele>
        <time>2024-04-10T20:11:47.833Z</time>
      </trkpt>
      <trkpt lat="48.06672" lon="-4.5816">
        <ele>83.8</ele>
        <time>2024-04-10T20:12:11.412Z</time>
      </trkpt>
      <trkpt lat="48.06688" lon="-4.58086">
        <ele>84</ele>
        <time>2024-04-10T20:12:20.229Z</time>
      </trkpt>
      <trkpt lat="48.06695" lon="-4.58013">
        <ele>84.6</ele>
        <time>2024-04-10T20:12:29.315Z</time>
      </trkpt>
      <trkpt lat="48.06707" lon="-4.57711">
        <ele>88</ele>
        <time>2024-04-10T20:13:08.441Z</time>
      </trkpt>
      <trkpt lat="48.06711" lon="-4.57592">
        <ele>89.8</ele>
        <time>2024-04-10T20:13:24.842Z</time>
      </trkpt>
      <trkpt lat="48.06724" lon="-4.57218">
        <ele>90</ele>
        <time>2024-04-10T20:14:06.062Z</time>
      </trkpt>
      <trkpt lat="48.06725" lon="-4.57166">
        <ele>90</ele>
        <time>2024-04-10T20:14:11.745Z</time>
      </trkpt>
      <trkpt lat="48.06727" lon="-4.5694">
        <ele>89</ele>
        <time>2024-04-10T20:14:34.958Z</time>
      </trkpt>
      <trkpt lat="48.06725" lon="-4.56871">
        <ele>89.3</ele>
        <time>2024-04-10T20:14:42.994Z</time>
      </trkpt>
      <trkpt lat="48.06718" lon="-4.56773">
        <ele>89.1</ele>
        <time>2024-04-10T20:14:53.456Z</time>
      </trkpt>
      <trkpt lat="48.06698" lon="-4.56454">
        <ele>91</ele>
        <time>2024-04-10T20:15:31.629Z</time>
      </trkpt>
      <trkpt lat="48.06695" lon="-4.56363">
        <ele>92</ele>
        <time>2024-04-10T20:15:43.363Z</time>
      </trkpt>
      <trkpt lat="48.06695" lon="-4.56356">
        <ele>92</ele>
        <time>2024-04-10T20:15:44.128Z</time>
      </trkpt>
      <trkpt lat="48.06716" lon="-4.55948">
        <ele>94.2</ele>
        <time>2024-04-10T20:16:32.477Z</time>
      </trkpt>
      <trkpt lat="48.0672" lon="-4.55836">
        <ele>95.1</ele>
        <time>2024-04-10T20:16:46.273Z</time>
      </trkpt>
      <trkpt lat="48.06692" lon="-4.55828">
        <ele>96.1</ele>
        <time>2024-04-10T20:16:53.041Z</time>
      </trkpt>
      <trkpt lat="48.06664" lon="-4.55813">
        <ele>97.1</ele>
        <time>2024-04-10T20:16:59.982Z</time>
      </trkpt>
      <trkpt lat="48.0665" lon="-4.55804">
        <ele>97.6</ele>
        <time>2024-04-10T20:17:03.504Z</time>
      </trkpt>
      <trkpt lat="48.06628" lon="-4.55787">
        <ele>98</ele>
        <time>2024-04-10T20:17:08.263Z</time>
      </trkpt>
      <trkpt lat="48.06609" lon="-4.55765">
        <ele>98</ele>
        <time>2024-04-10T20:17:12.190Z</time>
      </trkpt>
      <trkpt lat="48.06538" lon="-4.55651">
        <ele>99</ele>
        <time>2024-04-10T20:17:30.893Z</time>
      </trkpt>
      <trkpt lat="48.06527" lon="-4.55639">
        <ele>99</ele>
        <time>2024-04-10T20:17:33.118Z</time>
      </trkpt>
      <trkpt lat="48.06513" lon="-4.55628">
        <ele>99</ele>
        <time>2024-04-10T20:17:35.703Z</time>
      </trkpt>
      <trkpt lat="48.06501" lon="-4.55622">
        <ele>99</ele>
        <time>2024-04-10T20:17:37.771Z</time>
      </trkpt>
      <trkpt lat="48.06458" lon="-4.5562">
        <ele>99</ele>
        <time>2024-04-10T20:17:44.803Z</time>
      </trkpt>
      <trkpt lat="48.06303" lon="-4.55621">
        <ele>98</ele>
        <time>2024-04-10T20:18:08.662Z</time>
      </trkpt>
      <trkpt lat="48.0626" lon="-4.55618">
        <ele>97.5</ele>
        <time>2024-04-10T20:18:14.988Z</time>
      </trkpt>
      <trkpt lat="48.06175" lon="-4.5561">
        <ele>95.3</ele>
        <time>2024-04-10T20:18:26.096Z</time>
      </trkpt>
      <trkpt lat="48.06126" lon="-4.55613">
        <ele>94</ele>
        <time>2024-04-10T20:18:32.457Z</time>
      </trkpt>
      <trkpt lat="48.06097" lon="-4.55611">
        <ele>93</ele>
        <time>2024-04-10T20:18:35.998Z</time>
      </trkpt>
      <trkpt lat="48.06082" lon="-4.5561">
        <ele>92</ele>
        <time>2024-04-10T20:18:37.472Z</time>
      </trkpt>
      <trkpt lat="48.0599" lon="-4.55596">
        <ele>88.4</ele>
        <time>2024-04-10T20:18:48.381Z</time>
      </trkpt>
      <trkpt lat="48.05953" lon="-4.55595">
        <ele>86.4</ele>
        <time>2024-04-10T20:18:52.311Z</time>
      </trkpt>
      <trkpt lat="48.05911" lon="-4.55598">
        <ele>83.7</ele>
        <time>2024-04-10T20:18:56.498Z</time>
      </trkpt>
      <trkpt lat="48.05868" lon="-4.55606">
        <ele>80.7</ele>
        <time>2024-04-10T20:19:00.748Z</time>
      </trkpt>
      <trkpt lat="48.05834" lon="-4.55609">
        <ele>80</ele>
        <time>2024-04-10T20:19:05.385Z</time>
      </trkpt>
      <trkpt lat="48.05705" lon="-4.55607">
        <ele>77</ele>
        <time>2024-04-10T20:19:22.564Z</time>
      </trkpt>
      <trkpt lat="48.05663" lon="-4.55603">
        <ele>76.3</ele>
        <time>2024-04-10T20:19:28.486Z</time>
      </trkpt>
      <trkpt lat="48.05587" lon="-4.55587">
        <ele>74.1</ele>
        <time>2024-04-10T20:19:38.273Z</time>
      </trkpt>
      <trkpt lat="48.05539" lon="-4.55585">
        <ele>73</ele>
        <time>2024-04-10T20:19:44.685Z</time>
      </trkpt>
      <trkpt lat="48.05512" lon="-4.55589">
        <ele>73.5</ele>
        <time>2024-04-10T20:19:50.027Z</time>
      </trkpt>
      <trkpt lat="48.05445" lon="-4.55593">
        <ele>74</ele>
        <time>2024-04-10T20:20:01.813Z</time>
      </trkpt>
      <trkpt lat="48.0539" lon="-4.55589">
        <ele>75</ele>
        <time>2024-04-10T20:20:12.623Z</time>
      </trkpt>
      <trkpt lat="48.05355" lon="-4.55584">
        <ele>76</ele>
        <time>2024-04-10T20:20:20.353Z</time>
      </trkpt>
      <trkpt lat="48.05321" lon="-4.55582">
        <ele>76.5</ele>
        <time>2024-04-10T20:20:26.792Z</time>
      </trkpt>
      <trkpt lat="48.05295" lon="-4.55583">
        <ele>76.6</ele>
        <time>2024-04-10T20:20:31.204Z</time>
      </trkpt>
      <trkpt lat="48.05263" lon="-4.55491">
        <ele>76.5</ele>
        <time>2024-04-10T20:20:42.382Z</time>
      </trkpt>
      <trkpt lat="48.05256" lon="-4.55475">
        <ele>76.2</ele>
        <time>2024-04-10T20:20:44.081Z</time>
      </trkpt>
      <trkpt lat="48.05212" lon="-4.55403">
        <ele>74.6</ele>
        <time>2024-04-10T20:20:52.674Z</time>
      </trkpt>
      <trkpt lat="48.05199" lon="-4.55391">
        <ele>74.2</ele>
        <time>2024-04-10T20:20:54.661Z</time>
      </trkpt>
      <trkpt lat="48.05169" lon="-4.55388">
        <ele>73.1</ele>
        <time>2024-04-10T20:20:58.270Z</time>
      </trkpt>
      <trkpt lat="48.05165" lon="-4.55374">
        <ele>72.9</ele>
        <time>2024-04-10T20:20:59.666Z</time>
      </trkpt>
      <trkpt lat="48.05182" lon="-4.5529">
        <ele>73.6</ele>
        <time>2024-04-10T20:21:10.456Z</time>
      </trkpt>
      <trkpt lat="48.05183" lon="-4.55209">
        <ele>74</ele>
        <time>2024-04-10T20:21:19.968Z</time>
      </trkpt>
      <trkpt lat="48.05181" lon="-4.55158">
        <ele>74.2</ele>
        <time>2024-04-10T20:21:25.876Z</time>
      </trkpt>
      <trkpt lat="48.05143" lon="-4.54594">
        <ele>74.2</ele>
        <time>2024-04-10T20:22:27.813Z</time>
      </trkpt>
      <trkpt lat="48.05138" lon="-4.54543">
        <ele>73.5</ele>
        <time>2024-04-10T20:22:32.514Z</time>
      </trkpt>
      <trkpt lat="48.0513" lon="-4.54493">
        <ele>72.9</ele>
        <time>2024-04-10T20:22:37.316Z</time>
      </trkpt>
      <trkpt lat="48.0512" lon="-4.54453">
        <ele>72.3</ele>
        <time>2024-04-10T20:22:41.188Z</time>
      </trkpt>
      <trkpt lat="48.0508" lon="-4.54339">
        <ele>69.9</ele>
        <time>2024-04-10T20:22:52.230Z</time>
      </trkpt>
      <trkpt lat="48.05061" lon="-4.54291">
        <ele>70.1</ele>
        <time>2024-04-10T20:22:58.650Z</time>
      </trkpt>
      <trkpt lat="48.04968" lon="-4.54079">
        <ele>69.8</ele>
        <time>2024-04-10T20:23:25.898Z</time>
      </trkpt>
      <trkpt lat="48.04965" lon="-4.54071">
        <ele>69.7</ele>
        <time>2024-04-10T20:23:26.763Z</time>
        <extensions>
          <visugpx:TrkExtension xmlns:visugpx="https://www.visugpx.com/editgpx/">
            <visugpx:node>22</visugpx:node>
            </visugpx:TrkExtension>
        </extensions>
      </trkpt>
      <trkpt lat="48.04965" lon="-4.54071">
        <ele>69.7</ele>
        <time>2024-04-10T20:23:26.763Z</time>
      </trkpt>
      <trkpt lat="48.04914" lon="-4.53941">
        <ele>71.1</ele>
        <time>2024-04-10T20:23:45.674Z</time>
      </trkpt>
      <trkpt lat="48.04814" lon="-4.53678">
        <ele>71</ele>
        <time>2024-04-10T20:24:18.581Z</time>
      </trkpt>
      <trkpt lat="48.04796" lon="-4.53641">
        <ele>71</ele>
        <time>2024-04-10T20:24:23.581Z</time>
      </trkpt>
      <trkpt lat="48.04776" lon="-4.53605">
        <ele>70.9</ele>
        <time>2024-04-10T20:24:28.545Z</time>
      </trkpt>
      <trkpt lat="48.04729" lon="-4.53542">
        <ele>70</ele>
        <time>2024-04-10T20:24:37.608Z</time>
      </trkpt>
      <trkpt lat="48.04689" lon="-4.53479">
        <ele>68.8</ele>
        <time>2024-04-10T20:24:45.509Z</time>
      </trkpt>
      <trkpt lat="48.04681" lon="-4.53463">
        <ele>68.5</ele>
        <time>2024-04-10T20:24:47.299Z</time>
      </trkpt>
      <trkpt lat="48.04641" lon="-4.53358">
        <ele>66</ele>
        <time>2024-04-10T20:24:57.421Z</time>
      </trkpt>
      <trkpt lat="48.04609" lon="-4.53285">
        <ele>62.5</ele>
        <time>2024-04-10T20:25:03.387Z</time>
      </trkpt>
      <trkpt lat="48.04577" lon="-4.53216">
        <ele>59.5</ele>
        <time>2024-04-10T20:25:09.374Z</time>
      </trkpt>
      <trkpt lat="48.04541" lon="-4.5315">
        <ele>55.8</ele>
        <time>2024-04-10T20:25:15.018Z</time>
      </trkpt>
      <trkpt lat="48.04526" lon="-4.53126">
        <ele>53.9</ele>
        <time>2024-04-10T20:25:17.172Z</time>
      </trkpt>
      <trkpt lat="48.04464" lon="-4.53055">
        <ele>49.4</ele>
        <time>2024-04-10T20:25:25.274Z</time>
      </trkpt>
      <trkpt lat="48.04454" lon="-4.53044">
        <ele>48.7</ele>
        <time>2024-04-10T20:25:26.573Z</time>
      </trkpt>
      <trkpt lat="48.04377" lon="-4.52957">
        <ele>44.7</ele>
        <time>2024-04-10T20:25:37.751Z</time>
      </trkpt>
      <trkpt lat="48.04347" lon="-4.52923">
        <ele>42.9</ele>
        <time>2024-04-10T20:25:41.919Z</time>
      </trkpt>
      <trkpt lat="48.04335" lon="-4.52906">
        <ele>41.8</ele>
        <time>2024-04-10T20:25:43.542Z</time>
        <extensions>
          <visugpx:TrkExtension xmlns:visugpx="https://www.visugpx.com/editgpx/">
            <visugpx:node>23</visugpx:node>
            </visugpx:TrkExtension>
        </extensions>
      </trkpt>
      <trkpt lat="48.04328" lon="-4.52897">
        <ele>40.8</ele>
        <time>2024-04-10T20:25:44.447Z</time>
      </trkpt>
      <trkpt lat="48.04314" lon="-4.52872">
        <ele>39.8</ele>
        <time>2024-04-10T20:25:46.895Z</time>
      </trkpt>
      <trkpt lat="48.04298" lon="-4.52833">
        <ele>37.2</ele>
        <time>2024-04-10T20:25:49.895Z</time>
      </trkpt>
      <trkpt lat="48.04285" lon="-4.52794">
        <ele>36.4</ele>
        <time>2024-04-10T20:25:53.646Z</time>
      </trkpt>
      <trkpt lat="48.04256" lon="-4.527">
        <ele>31.3</ele>
        <time>2024-04-10T20:26:00.434Z</time>
      </trkpt>
      <trkpt lat="48.04231" lon="-4.52658">
        <ele>28.2</ele>
        <time>2024-04-10T20:26:04.121Z</time>
      </trkpt>
      <trkpt lat="48.04211" lon="-4.52637">
        <ele>26.6</ele>
        <time>2024-04-10T20:26:06.536Z</time>
      </trkpt>
      <trkpt lat="48.04099" lon="-4.52557">
        <ele>15.4</ele>
        <time>2024-04-10T20:26:18.708Z</time>
      </trkpt>
      <trkpt lat="48.04077" lon="-4.52539">
        <ele>12.3</ele>
        <time>2024-04-10T20:26:21.168Z</time>
      </trkpt>
      <trkpt lat="48.0406" lon="-4.52522">
        <ele>11.7</ele>
        <time>2024-04-10T20:26:23.762Z</time>
      </trkpt>
      <trkpt lat="48.04135" lon="-4.52411">
        <ele>9.3</ele>
        <time>2024-04-10T20:26:37.870Z</time>
      </trkpt>
      <trkpt lat="48.04244" lon="-4.5221">
        <ele>3.8</ele>
        <time>2024-04-10T20:26:59.407Z</time>
      </trkpt>
      <trkpt lat="48.04254" lon="-4.52183">
        <ele>4.1</ele>
        <time>2024-04-10T20:27:03.306Z</time>
      </trkpt>
      <trkpt lat="48.04258" lon="-4.52164">
        <ele>4.4</ele>
        <time>2024-04-10T20:27:06.047Z</time>
      </trkpt>
      <trkpt lat="48.0426" lon="-4.52148">
        <ele>4.8</ele>
        <time>2024-04-10T20:27:08.683Z</time>
      </trkpt>
      <trkpt lat="48.04258" lon="-4.52116">
        <ele>6.1</ele>
        <time>2024-04-10T20:27:15.707Z</time>
      </trkpt>
      <trkpt lat="48.04242" lon="-4.52023">
        <ele>7.7</ele>
        <time>2024-04-10T20:27:29.275Z</time>
      </trkpt>
      <trkpt lat="48.04226" lon="-4.51927">
        <ele>8.1</ele>
        <time>2024-04-10T20:27:40.740Z</time>
      </trkpt>
      <trkpt lat="48.04213" lon="-4.51847">
        <ele>8.5</ele>
        <time>2024-04-10T20:27:50.397Z</time>
      </trkpt>
      <trkpt lat="48.04208" lon="-4.51818">
        <ele>9</ele>
        <time>2024-04-10T20:27:54.630Z</time>
      </trkpt>
      <trkpt lat="48.04176" lon="-4.51615">
        <ele>16.2</ele>
        <time>2024-04-10T20:28:35.231Z</time>
      </trkpt>
      <trkpt lat="48.04169" lon="-4.51563">
        <ele>16.8</ele>
        <time>2024-04-10T20:28:42.101Z</time>
      </trkpt>
      <trkpt lat="48.04162" lon="-4.51473">
        <ele>17</ele>
        <time>2024-04-10T20:28:52.322Z</time>
      </trkpt>
      <trkpt lat="48.04163" lon="-4.51411">
        <ele>15.7</ele>
        <time>2024-04-10T20:28:57.501Z</time>
      </trkpt>
      <trkpt lat="48.0417" lon="-4.51321">
        <ele>12.3</ele>
        <time>2024-04-10T20:29:03.848Z</time>
      </trkpt>
      <trkpt lat="48.04173" lon="-4.51292">
        <ele>10.9</ele>
        <time>2024-04-10T20:29:05.772Z</time>
      </trkpt>
      <trkpt lat="48.04177" lon="-4.51265">
        <ele>9.9</ele>
        <time>2024-04-10T20:29:07.736Z</time>
      </trkpt>
      <trkpt lat="48.04184" lon="-4.51237">
        <ele>8.7</ele>
        <time>2024-04-10T20:29:09.778Z</time>
      </trkpt>
      <trkpt lat="48.04193" lon="-4.51219">
        <ele>7.8</ele>
        <time>2024-04-10T20:29:11.315Z</time>
      </trkpt>
      <trkpt lat="48.04212" lon="-4.51189">
        <ele>7.5</ele>
        <time>2024-04-10T20:29:15.403Z</time>
      </trkpt>
      <trkpt lat="48.04226" lon="-4.51161">
        <ele>8.2</ele>
        <time>2024-04-10T20:29:20.631Z</time>
      </trkpt>
      <trkpt lat="48.04237" lon="-4.51133">
        <ele>9.3</ele>
        <time>2024-04-10T20:29:26.875Z</time>
      </trkpt>
      <trkpt lat="48.04243" lon="-4.51104">
        <ele>9.8</ele>
        <time>2024-04-10T20:29:31.150Z</time>
      </trkpt>
      <trkpt lat="48.04244" lon="-4.51085">
        <ele>9.3</ele>
        <time>2024-04-10T20:29:32.650Z</time>
      </trkpt>
      <trkpt lat="48.04246" lon="-4.50995">
        <ele>5.7</ele>
        <time>2024-04-10T20:29:38.811Z</time>
      </trkpt>
      <trkpt lat="48.04248" lon="-4.50875">
        <ele>4.9</ele>
        <time>2024-04-10T20:29:50.779Z</time>
      </trkpt>
      <trkpt lat="48.04247" lon="-4.50854">
        <ele>5</ele>
        <time>2024-04-10T20:29:53.245Z</time>
      </trkpt>
      <trkpt lat="48.04244" lon="-4.50823">
        <ele>5.6</ele>
        <time>2024-04-10T20:29:57.860Z</time>
      </trkpt>
      <trkpt lat="48.04244" lon="-4.5082">
        <ele>5.7</ele>
        <time>2024-04-10T20:29:58.431Z</time>
      </trkpt>
      <trkpt lat="48.04222" lon="-4.50735">
        <ele>8.5</ele>
        <time>2024-04-10T20:30:14.941Z</time>
      </trkpt>
      <trkpt lat="48.042" lon="-4.50659">
        <ele>12.3</ele>
        <time>2024-04-10T20:30:35.129Z</time>
      </trkpt>
      <trkpt lat="48.04193" lon="-4.50634">
        <ele>13.1</ele>
        <time>2024-04-10T20:30:39.930Z</time>
      </trkpt>
      <trkpt lat="48.04184" lon="-4.50593">
        <ele>15.2</ele>
        <time>2024-04-10T20:30:51.061Z</time>
      </trkpt>
      <trkpt lat="48.04174" lon="-4.50502">
        <ele>19.2</ele>
        <time>2024-04-10T20:31:12.430Z</time>
      </trkpt>
      <trkpt lat="48.04172" lon="-4.50436">
        <ele>20.7</ele>
        <time>2024-04-10T20:31:22.780Z</time>
      </trkpt>
      <trkpt lat="48.04176" lon="-4.50386">
        <ele>22.3</ele>
        <time>2024-04-10T20:31:32.083Z</time>
      </trkpt>
      <trkpt lat="48.04184" lon="-4.50299">
        <ele>22.5</ele>
        <time>2024-04-10T20:31:42.000Z</time>
      </trkpt>
      <trkpt lat="48.04185" lon="-4.50267">
        <ele>21.9</ele>
        <time>2024-04-10T20:31:44.745Z</time>
      </trkpt>
      <trkpt lat="48.04182" lon="-4.50197">
        <ele>21.2</ele>
        <time>2024-04-10T20:31:51.442Z</time>
      </trkpt>
      <trkpt lat="48.04166" lon="-4.50077">
        <ele>19.2</ele>
        <time>2024-04-10T20:32:02.231Z</time>
      </trkpt>
      <trkpt lat="48.04149" lon="-4.49965">
        <ele>21.7</ele>
        <time>2024-04-10T20:32:19.931Z</time>
      </trkpt>
      <trkpt lat="48.04149" lon="-4.49965">
        <ele>21.7</ele>
        <time>2024-04-10T20:32:19.931Z</time>
        <extensions>
          <visugpx:TrkExtension xmlns:visugpx="https://www.visugpx.com/editgpx/">
            <visugpx:node>24</visugpx:node>
            </visugpx:TrkExtension>
        </extensions>
      </trkpt>
      <trkpt lat="48.04138" lon="-4.49897">
        <ele>19.3</ele>
        <time>2024-04-10T20:32:24.990Z</time>
      </trkpt>
      <trkpt lat="48.04113" lon="-4.49768">
        <ele>16.9</ele>
        <time>2024-04-10T20:32:36.618Z</time>
      </trkpt>
      <trkpt lat="48.04112" lon="-4.49747">
        <ele>16.1</ele>
        <time>2024-04-10T20:32:38.086Z</time>
      </trkpt>
      <trkpt lat="48.04113" lon="-4.49725">
        <ele>16.2</ele>
        <time>2024-04-10T20:32:40.660Z</time>
      </trkpt>
      <trkpt lat="48.04099" lon="-4.49708">
        <ele>15.1</ele>
        <time>2024-04-10T20:32:42.492Z</time>
      </trkpt>
      <trkpt lat="48.04096" lon="-4.49694">
        <ele>14.9</ele>
        <time>2024-04-10T20:32:43.833Z</time>
      </trkpt>
      <trkpt lat="48.04084" lon="-4.49641">
        <ele>13.1</ele>
        <time>2024-04-10T20:32:47.968Z</time>
      </trkpt>
      <trkpt lat="48.04057" lon="-4.49518">
        <ele>7.7</ele>
        <time>2024-04-10T20:32:56.684Z</time>
      </trkpt>
      <trkpt lat="48.04039" lon="-4.49419">
        <ele>6.6</ele>
        <time>2024-04-10T20:33:06.386Z</time>
      </trkpt>
      <trkpt lat="48.04032" lon="-4.49386">
        <ele>5.3</ele>
        <time>2024-04-10T20:33:08.811Z</time>
      </trkpt>
      <trkpt lat="48.04027" lon="-4.49357">
        <ele>6.2</ele>
        <time>2024-04-10T20:33:14.169Z</time>
      </trkpt>
      <trkpt lat="48.04024" lon="-4.49329">
        <ele>7.6</ele>
        <time>2024-04-10T20:33:21.589Z</time>
      </trkpt>
      <trkpt lat="48.04031" lon="-4.49183">
        <ele>15.6</ele>
        <time>2024-04-10T20:34:04.244Z</time>
      </trkpt>
      <trkpt lat="48.04033" lon="-4.49163">
        <ele>16.2</ele>
        <time>2024-04-10T20:34:07.837Z</time>
      </trkpt>
      <trkpt lat="48.04043" lon="-4.49116">
        <ele>19.1</ele>
        <time>2024-04-10T20:34:23.457Z</time>
      </trkpt>
      <trkpt lat="48.04042" lon="-4.49111">
        <ele>19.1</ele>
        <time>2024-04-10T20:34:24.027Z</time>
      </trkpt>
      <trkpt lat="48.04041" lon="-4.49106">
        <ele>19</ele>
        <time>2024-04-10T20:34:24.472Z</time>
      </trkpt>
      <trkpt lat="48.04004" lon="-4.4899">
        <ele>13.6</ele>
        <time>2024-04-10T20:34:33.101Z</time>
      </trkpt>
      <trkpt lat="48.03995" lon="-4.48963">
        <ele>12.8</ele>
        <time>2024-04-10T20:34:35.468Z</time>
      </trkpt>
      <trkpt lat="48.03939" lon="-4.48787">
        <ele>5.9</ele>
        <time>2024-04-10T20:34:49.411Z</time>
      </trkpt>
      <trkpt lat="48.03935" lon="-4.48777">
        <ele>5.3</ele>
        <time>2024-04-10T20:34:50.175Z</time>
      </trkpt>
      <trkpt lat="48.03928" lon="-4.4877">
        <ele>4.8</ele>
        <time>2024-04-10T20:34:51.039Z</time>
      </trkpt>
      <trkpt lat="48.03902" lon="-4.48762">
        <ele>3.5</ele>
        <time>2024-04-10T20:34:53.956Z</time>
      </trkpt>
      <trkpt lat="48.03895" lon="-4.48757">
        <ele>3.6</ele>
        <time>2024-04-10T20:34:55.397Z</time>
      </trkpt>
      <trkpt lat="48.03883" lon="-4.48741">
        <ele>3.2</ele>
        <time>2024-04-10T20:34:57.510Z</time>
      </trkpt>
      <trkpt lat="48.03879" lon="-4.48735">
        <ele>2.8</ele>
        <time>2024-04-10T20:34:58.065Z</time>
      </trkpt>
      <trkpt lat="48.03831" lon="-4.48662">
        <ele>3.2</ele>
        <time>2024-04-10T20:35:09.907Z</time>
      </trkpt>
      <trkpt lat="48.03813" lon="-4.48628">
        <ele>4.3</ele>
        <time>2024-04-10T20:35:17.029Z</time>
      </trkpt>
      <trkpt lat="48.0381" lon="-4.48618">
        <ele>4.6</ele>
        <time>2024-04-10T20:35:18.895Z</time>
      </trkpt>
      <trkpt lat="48.03802" lon="-4.48605">
        <ele>5.2</ele>
        <time>2024-04-10T20:35:22.298Z</time>
      </trkpt>
      <trkpt lat="48.03809" lon="-4.4859">
        <ele>4.9</ele>
        <time>2024-04-10T20:35:23.910Z</time>
      </trkpt>
      <trkpt lat="48.03811" lon="-4.48581">
        <ele>5</ele>
        <time>2024-04-10T20:35:25.124Z</time>
      </trkpt>
      <trkpt lat="48.03815" lon="-4.48552">
        <ele>6.4</ele>
        <time>2024-04-10T20:35:32.549Z</time>
      </trkpt>
      <trkpt lat="48.0382" lon="-4.48529">
        <ele>6.5</ele>
        <time>2024-04-10T20:35:35.356Z</time>
      </trkpt>
      <trkpt lat="48.03829" lon="-4.48506">
        <ele>6.9</ele>
        <time>2024-04-10T20:35:39.020Z</time>
      </trkpt>
      <trkpt lat="48.03831" lon="-4.48495">
        <ele>7.1</ele>
        <time>2024-04-10T20:35:40.655Z</time>
      </trkpt>
      <trkpt lat="48.03828" lon="-4.48484">
        <ele>7.2</ele>
        <time>2024-04-10T20:35:42.125Z</time>
      </trkpt>
      <trkpt lat="48.03819" lon="-4.48465">
        <ele>7.5</ele>
        <time>2024-04-10T20:35:45.218Z</time>
      </trkpt>
      <trkpt lat="48.03814" lon="-4.48452">
        <ele>7.7</ele>
        <time>2024-04-10T20:35:47.225Z</time>
      </trkpt>
      <trkpt lat="48.03798" lon="-4.48388">
        <ele>9.3</ele>
        <time>2024-04-10T20:35:58.064Z</time>
      </trkpt>
      <trkpt lat="48.03781" lon="-4.48288">
        <ele>10.4</ele>
        <time>2024-04-10T20:36:11.293Z</time>
      </trkpt>
      <trkpt lat="48.03781" lon="-4.48282">
        <ele>10.6</ele>
        <time>2024-04-10T20:36:12.435Z</time>
      </trkpt>
      <trkpt lat="48.03763" lon="-4.48139">
        <ele>10</ele>
        <time>2024-04-10T20:36:27.450Z</time>
      </trkpt>
      <trkpt lat="48.03757" lon="-4.48096">
        <ele>9.7</ele>
        <time>2024-04-10T20:36:31.821Z</time>
      </trkpt>
      <trkpt lat="48.03756" lon="-4.48089">
        <ele>9.8</ele>
        <time>2024-04-10T20:36:32.788Z</time>
      </trkpt>
      <trkpt lat="48.03754" lon="-4.48063">
        <ele>9.9</ele>
        <time>2024-04-10T20:36:35.811Z</time>
      </trkpt>
      <trkpt lat="48.03756" lon="-4.47967">
        <ele>12</ele>
        <time>2024-04-10T20:36:50.639Z</time>
      </trkpt>
      <trkpt lat="48.03754" lon="-4.47907">
        <ele>14</ele>
        <time>2024-04-10T20:37:02.062Z</time>
      </trkpt>
      <trkpt lat="48.03747" lon="-4.47849">
        <ele>15</ele>
        <time>2024-04-10T20:37:10.432Z</time>
      </trkpt>
      <trkpt lat="48.03744" lon="-4.47798">
        <ele>15.2</ele>
        <time>2024-04-10T20:37:16.354Z</time>
      </trkpt>
      <trkpt lat="48.03741" lon="-4.47766">
        <ele>15.6</ele>
        <time>2024-04-10T20:37:20.611Z</time>
      </trkpt>
      <trkpt lat="48.03772" lon="-4.47748">
        <ele>15.3</ele>
        <time>2024-04-10T20:37:25.612Z</time>
      </trkpt>
      <trkpt lat="48.03765" lon="-4.47729">
        <ele>15.9</ele>
        <time>2024-04-10T20:37:29.326Z</time>
      </trkpt>
      <trkpt lat="48.03737" lon="-4.47641">
        <ele>17</ele>
        <time>2024-04-10T20:37:41.945Z</time>
      </trkpt>
      <trkpt lat="48.03673" lon="-4.47416">
        <ele>20.8</ele>
        <time>2024-04-10T20:38:15.859Z</time>
      </trkpt>
      <trkpt lat="48.03665" lon="-4.47345">
        <ele>20.1</ele>
        <time>2024-04-10T20:38:22.756Z</time>
      </trkpt>
      <trkpt lat="48.03663" lon="-4.47312">
        <ele>20.1</ele>
        <time>2024-04-10T20:38:26.377Z</time>
      </trkpt>
      <trkpt lat="48.03663" lon="-4.47221">
        <ele>19.2</ele>
        <time>2024-04-10T20:38:35.076Z</time>
        <extensions>
          <visugpx:TrkExtension xmlns:visugpx="https://www.visugpx.com/editgpx/">
            <visugpx:node>25</visugpx:node>
            </visugpx:TrkExtension>
        </extensions>
      </trkpt>
      <trkpt lat="48.03663" lon="-4.47152">
        <ele>19</ele>
        <time>2024-04-10T20:38:42.317Z</time>
      </trkpt>
      <trkpt lat="48.03664" lon="-4.47028">
        <ele>19.2</ele>
        <time>2024-04-10T20:38:56.187Z</time>
      </trkpt>
      <trkpt lat="48.03664" lon="-4.46991">
        <ele>18.8</ele>
        <time>2024-04-10T20:38:59.683Z</time>
      </trkpt>
      <trkpt lat="48.03657" lon="-4.46899">
        <ele>18.7</ele>
        <time>2024-04-10T20:39:09.649Z</time>
      </trkpt>
      <trkpt lat="48.03649" lon="-4.46845">
        <ele>23.1</ele>
        <time>2024-04-10T20:39:34.174Z</time>
      </trkpt>
      <trkpt lat="48.03632" lon="-4.46789">
        <ele>26.8</ele>
        <time>2024-04-10T20:39:54.182Z</time>
      </trkpt>
      <trkpt lat="48.03596" lon="-4.46698">
        <ele>33</ele>
        <time>2024-04-10T20:40:27.561Z</time>
      </trkpt>
      <trkpt lat="48.03586" lon="-4.46678">
        <ele>33.9</ele>
        <time>2024-04-10T20:40:32.567Z</time>
      </trkpt>
      <trkpt lat="48.03553" lon="-4.46626">
        <ele>36.6</ele>
        <time>2024-04-10T20:40:47.399Z</time>
      </trkpt>
      <trkpt lat="48.03546" lon="-4.46608">
        <ele>37.5</ele>
        <time>2024-04-10T20:40:52.209Z</time>
      </trkpt>
      <trkpt lat="48.03542" lon="-4.46594">
        <ele>38.1</ele>
        <time>2024-04-10T20:40:55.469Z</time>
      </trkpt>
      <trkpt lat="48.03541" lon="-4.46581">
        <ele>38.5</ele>
        <time>2024-04-10T20:40:57.832Z</time>
      </trkpt>
      <trkpt lat="48.03542" lon="-4.46553">
        <ele>38</ele>
        <time>2024-04-10T20:41:00.262Z</time>
      </trkpt>
      <trkpt lat="48.03543" lon="-4.46544">
        <ele>38.2</ele>
        <time>2024-04-10T20:41:01.671Z</time>
      </trkpt>
      <trkpt lat="48.03553" lon="-4.46436">
        <ele>41.1</ele>
        <time>2024-04-10T20:41:19.980Z</time>
      </trkpt>
      <trkpt lat="48.03558" lon="-4.46403">
        <ele>41.4</ele>
        <time>2024-04-10T20:41:24.199Z</time>
      </trkpt>
      <trkpt lat="48.03566" lon="-4.46335">
        <ele>42.6</ele>
        <time>2024-04-10T20:41:34.072Z</time>
      </trkpt>
      <trkpt lat="48.03573" lon="-4.46183">
        <ele>42.1</ele>
        <time>2024-04-10T20:41:49.977Z</time>
      </trkpt>
      <trkpt lat="48.0358" lon="-4.45979">
        <ele>41.4</ele>
        <time>2024-04-10T20:42:11.259Z</time>
      </trkpt>
      <trkpt lat="48.03579" lon="-4.45938">
        <ele>40.5</ele>
        <time>2024-04-10T20:42:14.646Z</time>
      </trkpt>
      <trkpt lat="48.03575" lon="-4.45892">
        <ele>40.9</ele>
        <time>2024-04-10T20:42:20.408Z</time>
      </trkpt>
      <trkpt lat="48.03559" lon="-4.45799">
        <ele>39.8</ele>
        <time>2024-04-10T20:42:29.405Z</time>
      </trkpt>
      <trkpt lat="48.03556" lon="-4.45758">
        <ele>39.3</ele>
        <time>2024-04-10T20:42:33.237Z</time>
      </trkpt>
      <trkpt lat="48.0356" lon="-4.45692">
        <ele>38.8</ele>
        <time>2024-04-10T20:42:39.769Z</time>
      </trkpt>
      <trkpt lat="48.03572" lon="-4.45552">
        <ele>37.1</ele>
        <time>2024-04-10T20:42:52.895Z</time>
      </trkpt>
      <trkpt lat="48.03573" lon="-4.45522">
        <ele>36.1</ele>
        <time>2024-04-10T20:42:55.090Z</time>
      </trkpt>
      <trkpt lat="48.03584" lon="-4.45418">
        <ele>35</ele>
        <time>2024-04-10T20:43:05.083Z</time>
      </trkpt>
      <trkpt lat="48.03589" lon="-4.45334">
        <ele>35.6</ele>
        <time>2024-04-10T20:43:15.318Z</time>
      </trkpt>
      <trkpt lat="48.0359" lon="-4.45302">
        <ele>35.2</ele>
        <time>2024-04-10T20:43:18.280Z</time>
      </trkpt>
      <trkpt lat="48.03586" lon="-4.4516">
        <ele>29.6</ele>
        <time>2024-04-10T20:43:28.061Z</time>
      </trkpt>
      <trkpt lat="48.03585" lon="-4.45114">
        <ele>28.8</ele>
        <time>2024-04-10T20:43:32.069Z</time>
      </trkpt>
      <trkpt lat="48.0358" lon="-4.44937">
        <ele>29.7</ele>
        <time>2024-04-10T20:43:52.920Z</time>
      </trkpt>
      <trkpt lat="48.0358" lon="-4.44878">
        <ele>29</ele>
        <time>2024-04-10T20:43:58.419Z</time>
      </trkpt>
      <trkpt lat="48.03589" lon="-4.44821">
        <ele>29</ele>
        <time>2024-04-10T20:44:04.821Z</time>
      </trkpt>
      <trkpt lat="48.03617" lon="-4.44705">
        <ele>32.4</ele>
        <time>2024-04-10T20:44:25.898Z</time>
      </trkpt>
      <trkpt lat="48.03635" lon="-4.4458">
        <ele>33.3</ele>
        <time>2024-04-10T20:44:41.399Z</time>
      </trkpt>
      <trkpt lat="48.03648" lon="-4.44506">
        <ele>33.2</ele>
        <time>2024-04-10T20:44:49.608Z</time>
      </trkpt>
      <trkpt lat="48.03649" lon="-4.44504">
        <ele>33.2</ele>
        <time>2024-04-10T20:44:49.881Z</time>
      </trkpt>
      <trkpt lat="48.03678" lon="-4.44382">
        <ele>32.7</ele>
        <time>2024-04-10T20:45:03.290Z</time>
      </trkpt>
      <trkpt lat="48.03692" lon="-4.44313">
        <ele>31.4</ele>
        <time>2024-04-10T20:45:09.522Z</time>
      </trkpt>
      <trkpt lat="48.03701" lon="-4.44263">
        <ele>29</ele>
        <time>2024-04-10T20:45:12.917Z</time>
      </trkpt>
      <trkpt lat="48.03702" lon="-4.44232">
        <ele>28.6</ele>
        <time>2024-04-10T20:45:15.773Z</time>
      </trkpt>
      <trkpt lat="48.03683" lon="-4.44033">
        <ele>34.2</ele>
        <time>2024-04-10T20:45:50.311Z</time>
      </trkpt>
      <trkpt lat="48.03674" lon="-4.43994">
        <ele>35</ele>
        <time>2024-04-10T20:45:56.414Z</time>
      </trkpt>
      <trkpt lat="48.03664" lon="-4.43979">
        <ele>35.9</ele>
        <time>2024-04-10T20:46:01.236Z</time>
      </trkpt>
      <trkpt lat="48.03647" lon="-4.43963">
        <ele>36.8</ele>
        <time>2024-04-10T20:46:06.602Z</time>
      </trkpt>
      <trkpt lat="48.03525" lon="-4.43894">
        <ele>45.6</ele>
        <time>2024-04-10T20:46:53.415Z</time>
        <extensions>
          <visugpx:TrkExtension xmlns:visugpx="https://www.visugpx.com/editgpx/">
            <visugpx:node>26</visugpx:node>
            </visugpx:TrkExtension>
        </extensions>
      </trkpt>
      <trkpt lat="48.03516" lon="-4.43889">
        <ele>46.3</ele>
        <time>2024-04-10T20:46:57.125Z</time>
      </trkpt>
      <trkpt lat="48.03506" lon="-4.43878">
        <ele>47</ele>
        <time>2024-04-10T20:47:00.970Z</time>
      </trkpt>
      <trkpt lat="48.03497" lon="-4.43864">
        <ele>47.4</ele>
        <time>2024-04-10T20:47:03.903Z</time>
      </trkpt>
      <trkpt lat="48.03492" lon="-4.4385">
        <ele>47.9</ele>
        <time>2024-04-10T20:47:06.820Z</time>
      </trkpt>
      <trkpt lat="48.03489" lon="-4.43833">
        <ele>48.2</ele>
        <time>2024-04-10T20:47:09.321Z</time>
      </trkpt>
      <trkpt lat="48.03489" lon="-4.43812">
        <ele>48.2</ele>
        <time>2024-04-10T20:47:11.617Z</time>
      </trkpt>
      <trkpt lat="48.03493" lon="-4.43784">
        <ele>48.3</ele>
        <time>2024-04-10T20:47:14.908Z</time>
      </trkpt>
      <trkpt lat="48.03518" lon="-4.43678">
        <ele>48.4</ele>
        <time>2024-04-10T20:47:27.351Z</time>
      </trkpt>
      <trkpt lat="48.03517" lon="-4.43659">
        <ele>48.9</ele>
        <time>2024-04-10T20:47:30.530Z</time>
      </trkpt>
      <trkpt lat="48.03511" lon="-4.43604">
        <ele>50.3</ele>
        <time>2024-04-10T20:47:39.643Z</time>
      </trkpt>
      <trkpt lat="48.03501" lon="-4.43605">
        <ele>50.9</ele>
        <time>2024-04-10T20:47:42.891Z</time>
      </trkpt>
      <trkpt lat="48.03487" lon="-4.43604">
        <ele>51.9</ele>
        <time>2024-04-10T20:47:48.194Z</time>
      </trkpt>
      <trkpt lat="48.03443" lon="-4.43596">
        <ele>55.1</ele>
        <time>2024-04-10T20:48:05.157Z</time>
      </trkpt>
      <trkpt lat="48.03414" lon="-4.4359">
        <ele>57.1</ele>
        <time>2024-04-10T20:48:15.786Z</time>
      </trkpt>
      <trkpt lat="48.03382" lon="-4.43585">
        <ele>58.5</ele>
        <time>2024-04-10T20:48:24.243Z</time>
      </trkpt>
      <trkpt lat="48.03348" lon="-4.43582">
        <ele>60.5</ele>
        <time>2024-04-10T20:48:35.118Z</time>
      </trkpt>
      <trkpt lat="48.03313" lon="-4.43585">
        <ele>61</ele>
        <time>2024-04-10T20:48:41.723Z</time>
      </trkpt>
      <trkpt lat="48.03278" lon="-4.43587">
        <ele>62</ele>
        <time>2024-04-10T20:48:49.433Z</time>
      </trkpt>
      <trkpt lat="48.032" lon="-4.43575">
        <ele>63.8</ele>
        <time>2024-04-10T20:49:05.646Z</time>
      </trkpt>
      <trkpt lat="48.03127" lon="-4.43587">
        <ele>64.1</ele>
        <time>2024-04-10T20:49:18.133Z</time>
      </trkpt>
      <trkpt lat="48.03091" lon="-4.43589">
        <ele>65.5</ele>
        <time>2024-04-10T20:49:27.080Z</time>
      </trkpt>
      <trkpt lat="48.03039" lon="-4.43588">
        <ele>68.2</ele>
        <time>2024-04-10T20:49:42.277Z</time>
      </trkpt>
      <trkpt lat="48.02935" lon="-4.43579">
        <ele>75.3</ele>
        <time>2024-04-10T20:50:20.016Z</time>
      </trkpt>
      <trkpt lat="48.02925" lon="-4.43576">
        <ele>75.7</ele>
        <time>2024-04-10T20:50:22.560Z</time>
      </trkpt>
      <trkpt lat="48.02918" lon="-4.43572">
        <ele>76</ele>
        <time>2024-04-10T20:50:24.447Z</time>
      </trkpt>
      <trkpt lat="48.02914" lon="-4.43567">
        <ele>76</ele>
        <time>2024-04-10T20:50:25.300Z</time>
      </trkpt>
      <trkpt lat="48.02905" lon="-4.43561">
        <ele>76.1</ele>
        <time>2024-04-10T20:50:27.079Z</time>
      </trkpt>
      <trkpt lat="48.02901" lon="-4.43561">
        <ele>76.1</ele>
        <time>2024-04-10T20:50:27.733Z</time>
      </trkpt>
      <trkpt lat="48.02897" lon="-4.43557">
        <ele>76</ele>
        <time>2024-04-10T20:50:28.387Z</time>
      </trkpt>
      <trkpt lat="48.02897" lon="-4.4355">
        <ele>75.9</ele>
        <time>2024-04-10T20:50:29.020Z</time>
      </trkpt>
      <trkpt lat="48.029" lon="-4.43545">
        <ele>75.8</ele>
        <time>2024-04-10T20:50:29.623Z</time>
      </trkpt>
      <trkpt lat="48.02902" lon="-4.43525">
        <ele>75.4</ele>
        <time>2024-04-10T20:50:31.335Z</time>
      </trkpt>
      <trkpt lat="48.02868" lon="-4.43404">
        <ele>69.7</ele>
        <time>2024-04-10T20:50:40.037Z</time>
      </trkpt>
      <trkpt lat="48.02862" lon="-4.43375">
        <ele>67.9</ele>
        <time>2024-04-10T20:50:42.028Z</time>
      </trkpt>
      <trkpt lat="48.02857" lon="-4.43342">
        <ele>65.8</ele>
        <time>2024-04-10T20:50:44.247Z</time>
      </trkpt>
      <trkpt lat="48.02857" lon="-4.43251">
        <ele>66</ele>
        <time>2024-04-10T20:50:54.513Z</time>
      </trkpt>
      <trkpt lat="48.0286" lon="-4.43214">
        <ele>67.3</ele>
        <time>2024-04-10T20:51:01.819Z</time>
      </trkpt>
      <trkpt lat="48.02873" lon="-4.43155">
        <ele>70.2</ele>
        <time>2024-04-10T20:51:17.210Z</time>
      </trkpt>
      <trkpt lat="48.02885" lon="-4.43091">
        <ele>72.7</ele>
        <time>2024-04-10T20:51:30.948Z</time>
      </trkpt>
      <trkpt lat="48.02886" lon="-4.43071">
        <ele>73.5</ele>
        <time>2024-04-10T20:51:35.283Z</time>
      </trkpt>
      <trkpt lat="48.02885" lon="-4.43015">
        <ele>74.7</ele>
        <time>2024-04-10T20:51:43.866Z</time>
      </trkpt>
      <trkpt lat="48.0287" lon="-4.42824">
        <ele>79</ele>
        <time>2024-04-10T20:52:13.816Z</time>
      </trkpt>
      <trkpt lat="48.02866" lon="-4.42664">
        <ele>80.5</ele>
        <time>2024-04-10T20:52:33.936Z</time>
      </trkpt>
      <trkpt lat="48.02865" lon="-4.42602">
        <ele>80.8</ele>
        <time>2024-04-10T20:52:41.210Z</time>
      </trkpt>
      <trkpt lat="48.02865" lon="-4.42595">
        <ele>80.8</ele>
        <time>2024-04-10T20:52:41.975Z</time>
      </trkpt>
      <trkpt lat="48.02865" lon="-4.42546">
        <ele>81.7</ele>
        <time>2024-04-10T20:52:49.100Z</time>
      </trkpt>
      <trkpt lat="48.02862" lon="-4.42471">
        <ele>82.9</ele>
        <time>2024-04-10T20:52:59.597Z</time>
      </trkpt>
      <trkpt lat="48.02858" lon="-4.42442">
        <ele>83.1</ele>
        <time>2024-04-10T20:53:03.171Z</time>
      </trkpt>
      <trkpt lat="48.02845" lon="-4.42388">
        <ele>84.2</ele>
        <time>2024-04-10T20:53:11.631Z</time>
      </trkpt>
      <trkpt lat="48.02806" lon="-4.42275">
        <ele>87.1</ele>
        <time>2024-04-10T20:53:31.589Z</time>
      </trkpt>
      <trkpt lat="48.02799" lon="-4.4225">
        <ele>88.2</ele>
        <time>2024-04-10T20:53:37.529Z</time>
      </trkpt>
      <trkpt lat="48.02789" lon="-4.42206">
        <ele>88.6</ele>
        <time>2024-04-10T20:53:43.301Z</time>
      </trkpt>
      <trkpt lat="48.02777" lon="-4.42068">
        <ele>87</ele>
        <time>2024-04-10T20:53:56.335Z</time>
      </trkpt>
      <trkpt lat="48.02775" lon="-4.42034">
        <ele>86.4</ele>
        <time>2024-04-10T20:53:59.301Z</time>
      </trkpt>
      <trkpt lat="48.02768" lon="-4.41995">
        <ele>85.6</ele>
        <time>2024-04-10T20:54:02.719Z</time>
      </trkpt>
      <trkpt lat="48.02735" lon="-4.4185">
        <ele>84.1</ele>
        <time>2024-04-10T20:54:17.381Z</time>
      </trkpt>
      <trkpt lat="48.02715" lon="-4.417">
        <ele>84.9</ele>
        <time>2024-04-10T20:54:35.426Z</time>
      </trkpt>
      <trkpt lat="48.02714" lon="-4.4164">
        <ele>86</ele>
        <time>2024-04-10T20:54:44.148Z</time>
      </trkpt>
      <trkpt lat="48.02717" lon="-4.41597">
        <ele>86.6</ele>
        <time>2024-04-10T20:54:49.984Z</time>
      </trkpt>
      <trkpt lat="48.02731" lon="-4.41468">
        <ele>88.7</ele>
        <time>2024-04-10T20:55:08.271Z</time>
      </trkpt>
      <trkpt lat="48.02737" lon="-4.41399">
        <ele>89.5</ele>
        <time>2024-04-10T20:55:17.313Z</time>
      </trkpt>
      <trkpt lat="48.02737" lon="-4.41334">
        <ele>89.5</ele>
        <time>2024-04-10T20:55:24.418Z</time>
      </trkpt>
      <trkpt lat="48.02731" lon="-4.41283">
        <ele>89.4</ele>
        <time>2024-04-10T20:55:29.927Z</time>
      </trkpt>
      <trkpt lat="48.0272" lon="-4.41216">
        <ele>89.1</ele>
        <time>2024-04-10T20:55:37.026Z</time>
      </trkpt>
      <trkpt lat="48.02702" lon="-4.41168">
        <ele>89.7</ele>
        <time>2024-04-10T20:55:44.110Z</time>
      </trkpt>
      <trkpt lat="48.02646" lon="-4.41044">
        <ele>89.6</ele>
        <time>2024-04-10T20:56:00.312Z</time>
      </trkpt>
      <trkpt lat="48.02632" lon="-4.4099">
        <ele>90</ele>
        <time>2024-04-10T20:56:07.320Z</time>
      </trkpt>
      <trkpt lat="48.02623" lon="-4.40925">
        <ele>90.3</ele>
        <time>2024-04-10T20:56:15.069Z</time>
      </trkpt>
      <trkpt lat="48.02617" lon="-4.40857">
        <ele>90.3</ele>
        <time>2024-04-10T20:56:22.567Z</time>
      </trkpt>
      <trkpt lat="48.02619" lon="-4.40846">
        <ele>90.7</ele>
        <time>2024-04-10T20:56:24.810Z</time>
      </trkpt>
      <trkpt lat="48.02616" lon="-4.4084">
        <ele>90.8</ele>
        <time>2024-04-10T20:56:25.813Z</time>
      </trkpt>
      <trkpt lat="48.02618" lon="-4.40836">
        <ele>90.9</ele>
        <time>2024-04-10T20:56:26.560Z</time>
      </trkpt>
      <trkpt lat="48.02614" lon="-4.40823">
        <ele>91</ele>
        <time>2024-04-10T20:56:28.294Z</time>
      </trkpt>
      <trkpt lat="48.026" lon="-4.40678">
        <ele>91</ele>
        <time>2024-04-10T20:56:44.309Z</time>
      </trkpt>
      <trkpt lat="48.02582" lon="-4.40498">
        <ele>91.1</ele>
        <time>2024-04-10T20:57:04.362Z</time>
      </trkpt>
      <trkpt lat="48.0256" lon="-4.40276">
        <ele>92.2</ele>
        <time>2024-04-10T20:57:30.710Z</time>
      </trkpt>
      <trkpt lat="48.02556" lon="-4.40211">
        <ele>93</ele>
        <time>2024-04-10T20:57:39.295Z</time>
      </trkpt>
      <trkpt lat="48.02542" lon="-4.39864">
        <ele>86.6</ele>
        <time>2024-04-10T20:58:09.210Z</time>
      </trkpt>
      <trkpt lat="48.02537" lon="-4.39772">
        <ele>82.5</ele>
        <time>2024-04-10T20:58:15.276Z</time>
      </trkpt>
      <trkpt lat="48.02525" lon="-4.39713">
        <ele>79.8</ele>
        <time>2024-04-10T20:58:19.351Z</time>
      </trkpt>
      <trkpt lat="48.025" lon="-4.39606">
        <ele>76.2</ele>
        <time>2024-04-10T20:58:27.766Z</time>
      </trkpt>
      <trkpt lat="48.02495" lon="-4.39589">
        <ele>76.8</ele>
        <time>2024-04-10T20:58:31.233Z</time>
      </trkpt>
      <trkpt lat="48.0249" lon="-4.39563">
        <ele>77.7</ele>
        <time>2024-04-10T20:58:36.375Z</time>
      </trkpt>
      <trkpt lat="48.02475" lon="-4.39268">
        <ele>83</ele>
        <time>2024-04-10T20:59:19.069Z</time>
      </trkpt>
      <trkpt lat="48.02449" lon="-4.39072">
        <ele>83.2</ele>
        <time>2024-04-10T20:59:41.228Z</time>
      </trkpt>
      <trkpt lat="48.02437" lon="-4.38997">
        <ele>82.7</ele>
        <time>2024-04-10T20:59:48.939Z</time>
      </trkpt>
      <trkpt lat="48.0241" lon="-4.38885">
        <ele>82</ele>
        <time>2024-04-10T21:00:00.938Z</time>
      </trkpt>
      <trkpt lat="48.02349" lon="-4.38691">
        <ele>82.6</ele>
        <time>2024-04-10T21:00:25.338Z</time>
      </trkpt>
      <trkpt lat="48.02339" lon="-4.38652">
        <ele>82.6</ele>
        <time>2024-04-10T21:00:29.905Z</time>
      </trkpt>
      <trkpt lat="48.02327" lon="-4.38604">
        <ele>83.2</ele>
        <time>2024-04-10T21:00:36.586Z</time>
      </trkpt>
      <trkpt lat="48.02318" lon="-4.38541">
        <ele>83.4</ele>
        <time>2024-04-10T21:00:43.952Z</time>
      </trkpt>
      <trkpt lat="48.02283" lon="-4.38266">
        <ele>85.2</ele>
        <time>2024-04-10T21:01:17.582Z</time>
      </trkpt>
      <trkpt lat="48.02282" lon="-4.38249">
        <ele>85.2</ele>
        <time>2024-04-10T21:01:19.448Z</time>
      </trkpt>
      <trkpt lat="48.02277" lon="-4.38187">
        <ele>86</ele>
        <time>2024-04-10T21:01:27.735Z</time>
      </trkpt>
      <trkpt lat="48.02272" lon="-4.38078">
        <ele>86.8</ele>
        <time>2024-04-10T21:01:41.040Z</time>
      </trkpt>
      <trkpt lat="48.02263" lon="-4.38018">
        <ele>86.5</ele>
        <time>2024-04-10T21:01:47.322Z</time>
      </trkpt>
      <trkpt lat="48.02247" lon="-4.37935">
        <ele>87.2</ele>
        <time>2024-04-10T21:01:57.968Z</time>
      </trkpt>
      <trkpt lat="48.02234" lon="-4.37891">
        <ele>87.4</ele>
        <time>2024-04-10T21:02:03.553Z</time>
      </trkpt>
      <trkpt lat="48.02201" lon="-4.37791">
        <ele>86.6</ele>
        <time>2024-04-10T21:02:14.601Z</time>
      </trkpt>
      <trkpt lat="48.02181" lon="-4.37736">
        <ele>87.3</ele>
        <time>2024-04-10T21:02:22.696Z</time>
      </trkpt>
      <trkpt lat="48.02133" lon="-4.3761">
        <ele>88.8</ele>
        <time>2024-04-10T21:02:41.200Z</time>
      </trkpt>
      <trkpt lat="48.02122" lon="-4.37592">
        <ele>88.8</ele>
        <time>2024-04-10T21:02:43.865Z</time>
      </trkpt>
      <trkpt lat="48.02066" lon="-4.37508">
        <ele>88.3</ele>
        <time>2024-04-10T21:02:56.092Z</time>
      </trkpt>
      <trkpt lat="48.02036" lon="-4.37466">
        <ele>87.3</ele>
        <time>2024-04-10T21:03:01.518Z</time>
      </trkpt>
      <trkpt lat="48.01969" lon="-4.37387">
        <ele>84.9</ele>
        <time>2024-04-10T21:03:12.445Z</time>
      </trkpt>
      <trkpt lat="48.01951" lon="-4.37371">
        <ele>84.2</ele>
        <time>2024-04-10T21:03:15.019Z</time>
      </trkpt>
      <trkpt lat="48.01827" lon="-4.37218">
        <ele>85</ele>
        <time>2024-04-10T21:03:42.594Z</time>
      </trkpt>
      <trkpt lat="48.01795" lon="-4.37167">
        <ele>85.4</ele>
        <time>2024-04-10T21:03:50.906Z</time>
      </trkpt>
      <trkpt lat="48.01765" lon="-4.37111">
        <ele>87.5</ele>
        <time>2024-04-10T21:04:03.559Z</time>
      </trkpt>
      <trkpt lat="48.01756" lon="-4.37083">
        <ele>87.8</ele>
        <time>2024-04-10T21:04:07.481Z</time>
      </trkpt>
      <trkpt lat="48.01745" lon="-4.37039">
        <ele>89.1</ele>
        <time>2024-04-10T21:04:15.526Z</time>
      </trkpt>
      <trkpt lat="48.0173" lon="-4.36933">
        <ele>90.7</ele>
        <time>2024-04-10T21:04:30.368Z</time>
      </trkpt>
      <trkpt lat="48.01713" lon="-4.36851">
        <ele>91.3</ele>
        <time>2024-04-10T21:04:40.771Z</time>
      </trkpt>
      <trkpt lat="48.01704" lon="-4.36827">
        <ele>91.5</ele>
        <time>2024-04-10T21:04:44.119Z</time>
      </trkpt>
      <trkpt lat="48.01664" lon="-4.36749">
        <ele>92</ele>
        <time>2024-04-10T21:04:55.692Z</time>
      </trkpt>
      <trkpt lat="48.01641" lon="-4.36699">
        <ele>92</ele>
        <time>2024-04-10T21:05:02.327Z</time>
      </trkpt>
      <trkpt lat="48.0164" lon="-4.36693">
        <ele>92</ele>
        <time>2024-04-10T21:05:03.003Z</time>
        <extensions>
          <visugpx:TrkExtension xmlns:visugpx="https://www.visugpx.com/editgpx/">
            <visugpx:node>27</visugpx:node>
            </visugpx:TrkExtension>
        </extensions>
      </trkpt>
      <trkpt lat="48.0163" lon="-4.36645">
        <ele>92.3</ele>
        <time>2024-04-10T21:05:09.001Z</time>
      </trkpt>
      <trkpt lat="48.01614" lon="-4.36533">
        <ele>92.9</ele>
        <time>2024-04-10T21:05:22.518Z</time>
      </trkpt>
      <trkpt lat="48.01605" lon="-4.36451">
        <ele>92.2</ele>
        <time>2024-04-10T21:05:30.617Z</time>
      </trkpt>
      <trkpt lat="48.01603" lon="-4.36347">
        <ele>92.3</ele>
        <time>2024-04-10T21:05:42.150Z</time>
      </trkpt>
      <trkpt lat="48.01596" lon="-4.36272">
        <ele>91.5</ele>
        <time>2024-04-10T21:05:49.329Z</time>
      </trkpt>
      <trkpt lat="48.01581" lon="-4.36188">
        <ele>92.1</ele>
        <time>2024-04-10T21:05:59.850Z</time>
      </trkpt>
      <trkpt lat="48.0157" lon="-4.36142">
        <ele>92.5</ele>
        <time>2024-04-10T21:06:05.879Z</time>
      </trkpt>
      <trkpt lat="48.01554" lon="-4.36085">
        <ele>92</ele>
        <time>2024-04-10T21:06:11.931Z</time>
      </trkpt>
      <trkpt lat="48.01546" lon="-4.36056">
        <ele>92</ele>
        <time>2024-04-10T21:06:15.361Z</time>
      </trkpt>
      <trkpt lat="48.01525" lon="-4.35967">
        <ele>90.8</ele>
        <time>2024-04-10T21:06:24.068Z</time>
      </trkpt>
      <trkpt lat="48.0152" lon="-4.35968">
        <ele>90.9</ele>
        <time>2024-04-10T21:06:25.076Z</time>
      </trkpt>
      <trkpt lat="48.01516" lon="-4.35962">
        <ele>90.8</ele>
        <time>2024-04-10T21:06:25.866Z</time>
      </trkpt>
      <trkpt lat="48.01516" lon="-4.35956">
        <ele>90.7</ele>
        <time>2024-04-10T21:06:26.394Z</time>
      </trkpt>
      <trkpt lat="48.01513" lon="-4.35942">
        <ele>90.6</ele>
        <time>2024-04-10T21:06:27.858Z</time>
      </trkpt>
      <trkpt lat="48.01508" lon="-4.35887">
        <ele>91.4</ele>
        <time>2024-04-10T21:06:35.418Z</time>
      </trkpt>
      <trkpt lat="48.01504" lon="-4.35861">
        <ele>91</ele>
        <time>2024-04-10T21:06:37.810Z</time>
      </trkpt>
      <trkpt lat="48.01496" lon="-4.35818">
        <ele>91.1</ele>
        <time>2024-04-10T21:06:42.850Z</time>
      </trkpt>
      <trkpt lat="48.01488" lon="-4.35784">
        <ele>91</ele>
        <time>2024-04-10T21:06:46.641Z</time>
      </trkpt>
      <trkpt lat="48.01473" lon="-4.35719">
        <ele>89.9</ele>
        <time>2024-04-10T21:06:52.733Z</time>
      </trkpt>
      <trkpt lat="48.01461" lon="-4.35671">
        <ele>89.1</ele>
        <time>2024-04-10T21:06:57.294Z</time>
      </trkpt>
      <trkpt lat="48.01422" lon="-4.35503">
        <ele>89</ele>
        <time>2024-04-10T21:07:16.584Z</time>
      </trkpt>
      <trkpt lat="48.01407" lon="-4.35429">
        <ele>89.7</ele>
        <time>2024-04-10T21:07:26.256Z</time>
      </trkpt>
      <trkpt lat="48.01396" lon="-4.35348">
        <ele>91.1</ele>
        <time>2024-04-10T21:07:37.992Z</time>
      </trkpt>
      <trkpt lat="48.0139" lon="-4.35255">
        <ele>92</ele>
        <time>2024-04-10T21:07:49.784Z</time>
      </trkpt>
      <trkpt lat="48.01385" lon="-4.35138">
        <ele>93.1</ele>
        <time>2024-04-10T21:08:04.523Z</time>
      </trkpt>
      <trkpt lat="48.01366" lon="-4.34541">
        <ele>91</ele>
        <time>2024-04-10T21:09:06.745Z</time>
      </trkpt>
      <trkpt lat="48.01359" lon="-4.34441">
        <ele>91</ele>
        <time>2024-04-10T21:09:17.739Z</time>
      </trkpt>
      <trkpt lat="48.01352" lon="-4.3437">
        <ele>91</ele>
        <time>2024-04-10T21:09:25.586Z</time>
      </trkpt>
      <trkpt lat="48.01338" lon="-4.34274">
        <ele>92</ele>
        <time>2024-04-10T21:09:38.093Z</time>
      </trkpt>
      <trkpt lat="48.01285" lon="-4.33948">
        <ele>94.7</ele>
        <time>2024-04-10T21:10:19.411Z</time>
      </trkpt>
      <trkpt lat="48.01272" lon="-4.33875">
        <ele>93.5</ele>
        <time>2024-04-10T21:10:26.114Z</time>
      </trkpt>
      <trkpt lat="48.01247" lon="-4.33696">
        <ele>93.1</ele>
        <time>2024-04-10T21:10:45.503Z</time>
      </trkpt>
      <trkpt lat="48.01238" lon="-4.33478">
        <ele>96</ele>
        <time>2024-04-10T21:11:14.711Z</time>
      </trkpt>
      <trkpt lat="48.01229" lon="-4.33107">
        <ele>98</ele>
        <time>2024-04-10T21:11:58.625Z</time>
      </trkpt>
      <trkpt lat="48.01227" lon="-4.33044">
        <ele>98</ele>
        <time>2024-04-10T21:12:05.521Z</time>
      </trkpt>
      <trkpt lat="48.01222" lon="-4.33009">
        <ele>98</ele>
        <time>2024-04-10T21:12:09.435Z</time>
      </trkpt>
      <trkpt lat="48.01213" lon="-4.32981">
        <ele>98</ele>
        <time>2024-04-10T21:12:12.832Z</time>
      </trkpt>
      <trkpt lat="48.01196" lon="-4.32941">
        <ele>97.9</ele>
        <time>2024-04-10T21:12:17.862Z</time>
      </trkpt>
      <trkpt lat="48.01179" lon="-4.3292">
        <ele>97.1</ele>
        <time>2024-04-10T21:12:20.515Z</time>
      </trkpt>
      <trkpt lat="48.01159" lon="-4.329">
        <ele>96.1</ele>
        <time>2024-04-10T21:12:23.300Z</time>
      </trkpt>
      <trkpt lat="48.01132" lon="-4.32882">
        <ele>94.5</ele>
        <time>2024-04-10T21:12:26.439Z</time>
      </trkpt>
      <trkpt lat="48.01087" lon="-4.32865">
        <ele>94.8</ele>
        <time>2024-04-10T21:12:34.517Z</time>
      </trkpt>
      <trkpt lat="48.00983" lon="-4.32823">
        <ele>101.2</ele>
        <time>2024-04-10T21:13:09.228Z</time>
      </trkpt>
      <trkpt lat="48.00963" lon="-4.3281">
        <ele>103</ele>
        <time>2024-04-10T21:13:18.836Z</time>
      </trkpt>
      <trkpt lat="48.00944" lon="-4.32845">
        <ele>105</ele>
        <time>2024-04-10T21:13:29.493Z</time>
        <extensions>
          <visugpx:TrkExtension xmlns:visugpx="https://www.visugpx.com/editgpx/">
            <visugpx:node>28</visugpx:node>
            </visugpx:TrkExtension>
        </extensions>
      </trkpt>
      <trkpt lat="48.00926" lon="-4.32875">
        <ele>106.3</ele>
        <time>2024-04-10T21:13:37.009Z</time>
      </trkpt>
      <trkpt lat="48.00923" lon="-4.32879">
        <ele>106.5</ele>
        <time>2024-04-10T21:13:38.151Z</time>
      </trkpt>
      <trkpt lat="48.00852" lon="-4.33004">
        <ele>114.7</ele>
        <time>2024-04-10T21:14:21.621Z</time>
      </trkpt>
      <trkpt lat="48.00818" lon="-4.33053">
        <ele>117.1</ele>
        <time>2024-04-10T21:14:35.229Z</time>
      </trkpt>
      <trkpt lat="48.00793" lon="-4.33082">
        <ele>117.9</ele>
        <time>2024-04-10T21:14:41.943Z</time>
      </trkpt>
      <trkpt lat="48.00766" lon="-4.33108">
        <ele>119.4</ele>
        <time>2024-04-10T21:14:50.727Z</time>
      </trkpt>
      <trkpt lat="48.00724" lon="-4.33141">
        <ele>121.8</ele>
        <time>2024-04-10T21:15:04.358Z</time>
      </trkpt>
      <trkpt lat="48.007" lon="-4.33158">
        <ele>122.7</ele>
        <time>2024-04-10T21:15:10.575Z</time>
      </trkpt>
      <trkpt lat="48.0066" lon="-4.33181">
        <ele>125.1</ele>
        <time>2024-04-10T21:15:23.779Z</time>
      </trkpt>
      <trkpt lat="48.0048" lon="-4.33285">
        <ele>128</ele>
        <time>2024-04-10T21:16:00.429Z</time>
      </trkpt>
      <trkpt lat="48.0038" lon="-4.33341">
        <ele>127</ele>
        <time>2024-04-10T21:16:16.440Z</time>
      </trkpt>
      <trkpt lat="48.00307" lon="-4.33386">
        <ele>125.1</ele>
        <time>2024-04-10T21:16:26.887Z</time>
      </trkpt>
      <trkpt lat="48.002" lon="-4.33475">
        <ele>121.4</ele>
        <time>2024-04-10T21:16:42.314Z</time>
      </trkpt>
      <trkpt lat="48.00149" lon="-4.33518">
        <ele>120.2</ele>
        <time>2024-04-10T21:16:50.291Z</time>
      </trkpt>
      <trkpt lat="48.00146" lon="-4.33521">
        <ele>120.2</ele>
        <time>2024-04-10T21:16:50.881Z</time>
      </trkpt>
      <trkpt lat="48.00118" lon="-4.33547">
        <ele>119.2</ele>
        <time>2024-04-10T21:16:55.030Z</time>
      </trkpt>
      <trkpt lat="48.00114" lon="-4.33549">
        <ele>119.1</ele>
        <time>2024-04-10T21:16:55.589Z</time>
      </trkpt>
      <trkpt lat="48.00106" lon="-4.33557">
        <ele>119.1</ele>
        <time>2024-04-10T21:16:57.163Z</time>
      </trkpt>
      <trkpt lat="48.00098" lon="-4.33563">
        <ele>119.3</ele>
        <time>2024-04-10T21:16:59.001Z</time>
      </trkpt>
      <trkpt lat="48.00091" lon="-4.33568">
        <ele>119.4</ele>
        <time>2024-04-10T21:17:00.442Z</time>
      </trkpt>
      <trkpt lat="48.00066" lon="-4.33585">
        <ele>120</ele>
        <time>2024-04-10T21:17:06.053Z</time>
      </trkpt>
      <trkpt lat="48.0006" lon="-4.33588">
        <ele>120</ele>
        <time>2024-04-10T21:17:07.087Z</time>
      </trkpt>
      <trkpt lat="48.00058" lon="-4.33587">
        <ele>120</ele>
        <time>2024-04-10T21:17:07.432Z</time>
        <extensions>
          <visugpx:TrkExtension xmlns:visugpx="https://www.visugpx.com/editgpx/">
            <visugpx:node>29</visugpx:node>
            </visugpx:TrkExtension>
        </extensions>
      </trkpt>
      <trkpt lat="48.00047" lon="-4.33586">
        <ele>120</ele>
        <time>2024-04-10T21:17:09.233Z</time>
      </trkpt>
      <trkpt lat="48.00031" lon="-4.33578">
        <ele>120</ele>
        <time>2024-04-10T21:17:11.991Z</time>
      </trkpt>
      <trkpt lat="48.0003" lon="-4.33577">
        <ele>120</ele>
        <time>2024-04-10T21:17:12.188Z</time>
      </trkpt>
      <trkpt lat="48.00023" lon="-4.33578">
        <ele>120.2</ele>
        <time>2024-04-10T21:17:13.734Z</time>
      </trkpt>
      <trkpt lat="48.0002" lon="-4.3358">
        <ele>120.3</ele>
        <time>2024-04-10T21:17:14.473Z</time>
      </trkpt>
      <trkpt lat="48.00011" lon="-4.33594">
        <ele>120.8</ele>
        <time>2024-04-10T21:17:17.685Z</time>
      </trkpt>
      <trkpt lat="48.00004" lon="-4.3353">
        <ele>120.9</ele>
        <time>2024-04-10T21:17:24.936Z</time>
      </trkpt>
      <trkpt lat="48.00002" lon="-4.3352">
        <ele>120.6</ele>
        <time>2024-04-10T21:17:25.736Z</time>
      </trkpt>
      <trkpt lat="47.99998" lon="-4.33482">
        <ele>120.1</ele>
        <time>2024-04-10T21:17:29.274Z</time>
      </trkpt>
      <trkpt lat="47.99996" lon="-4.33438">
        <ele>119.1</ele>
        <time>2024-04-10T21:17:32.888Z</time>
      </trkpt>
      <trkpt lat="47.99996" lon="-4.33381">
        <ele>117.7</ele>
        <time>2024-04-10T21:17:37.462Z</time>
      </trkpt>
      <trkpt lat="47.99992" lon="-4.33364">
        <ele>117.1</ele>
        <time>2024-04-10T21:17:38.780Z</time>
      </trkpt>
      <trkpt lat="47.99991" lon="-4.33363">
        <ele>117.1</ele>
        <time>2024-04-10T21:17:38.977Z</time>
      </trkpt>
      <trkpt lat="47.99987" lon="-4.33358">
        <ele>117.1</ele>
        <time>2024-04-10T21:17:39.829Z</time>
      </trkpt>
      <trkpt lat="47.99987" lon="-4.33351">
        <ele>117.2</ele>
        <time>2024-04-10T21:17:40.781Z</time>
      </trkpt>
      <trkpt lat="47.99989" lon="-4.33346">
        <ele>117.3</ele>
        <time>2024-04-10T21:17:41.611Z</time>
      </trkpt>
      <trkpt lat="47.99992" lon="-4.33342">
        <ele>117.5</ele>
        <time>2024-04-10T21:17:42.754Z</time>
      </trkpt>
      <trkpt lat="47.99996" lon="-4.33327">
        <ele>118.1</ele>
        <time>2024-04-10T21:17:46.062Z</time>
      </trkpt>
      <trkpt lat="48.00001" lon="-4.3309">
        <ele>121.2</ele>
        <time>2024-04-10T21:18:17.673Z</time>
      </trkpt>
      <trkpt lat="48.00001" lon="-4.33085">
        <ele>121.1</ele>
        <time>2024-04-10T21:18:18.095Z</time>
      </trkpt>
      <trkpt lat="48.00001" lon="-4.33076">
        <ele>121</ele>
        <time>2024-04-10T21:18:18.943Z</time>
      </trkpt>
      <trkpt lat="48.00004" lon="-4.32896">
        <ele>121</ele>
        <time>2024-04-10T21:18:38.636Z</time>
      </trkpt>
      <trkpt lat="48.00006" lon="-4.32807">
        <ele>121.2</ele>
        <time>2024-04-10T21:18:48.695Z</time>
      </trkpt>
      <trkpt lat="48.00007" lon="-4.32755">
        <ele>120.4</ele>
        <time>2024-04-10T21:18:53.341Z</time>
      </trkpt>
      <trkpt lat="48.00001" lon="-4.32568">
        <ele>114.4</ele>
        <time>2024-04-10T21:19:07.208Z</time>
      </trkpt>
      <trkpt lat="47.99997" lon="-4.32495">
        <ele>111.1</ele>
        <time>2024-04-10T21:19:12.015Z</time>
      </trkpt>
      <trkpt lat="47.99987" lon="-4.32292">
        <ele>110.9</ele>
        <time>2024-04-10T21:19:33.970Z</time>
      </trkpt>
      <trkpt lat="47.99982" lon="-4.32239">
        <ele>111.8</ele>
        <time>2024-04-10T21:19:41.556Z</time>
      </trkpt>
      <trkpt lat="47.99974" lon="-4.32187">
        <ele>111.5</ele>
        <time>2024-04-10T21:19:46.956Z</time>
      </trkpt>
      <trkpt lat="47.99966" lon="-4.32144">
        <ele>111.3</ele>
        <time>2024-04-10T21:19:51.542Z</time>
      </trkpt>
      <trkpt lat="47.99954" lon="-4.32098">
        <ele>111.7</ele>
        <time>2024-04-10T21:19:57.629Z</time>
      </trkpt>
      <trkpt lat="47.99909" lon="-4.31988">
        <ele>111.4</ele>
        <time>2024-04-10T21:20:11.277Z</time>
      </trkpt>
      <trkpt lat="47.99901" lon="-4.31966">
        <ele>111.2</ele>
        <time>2024-04-10T21:20:13.733Z</time>
      </trkpt>
      <trkpt lat="47.99895" lon="-4.31941">
        <ele>109.9</ele>
        <time>2024-04-10T21:20:15.476Z</time>
      </trkpt>
      <trkpt lat="47.9989" lon="-4.31908">
        <ele>108.7</ele>
        <time>2024-04-10T21:20:17.897Z</time>
      </trkpt>
      <trkpt lat="47.99882" lon="-4.31848">
        <ele>108.8</ele>
        <time>2024-04-10T21:20:24.747Z</time>
      </trkpt>
      <trkpt lat="47.99874" lon="-4.31734">
        <ele>108.6</ele>
        <time>2024-04-10T21:20:36.980Z</time>
      </trkpt>
      <trkpt lat="47.99869" lon="-4.31637">
        <ele>108.7</ele>
        <time>2024-04-10T21:20:47.778Z</time>
      </trkpt>
      <trkpt lat="47.99861" lon="-4.31495">
        <ele>107</ele>
        <time>2024-04-10T21:21:01.061Z</time>
      </trkpt>
      <trkpt lat="47.99853" lon="-4.31284">
        <ele>106</ele>
        <time>2024-04-10T21:21:22.706Z</time>
      </trkpt>
      <trkpt lat="47.99853" lon="-4.31225">
        <ele>105.4</ele>
        <time>2024-04-10T21:21:28.330Z</time>
      </trkpt>
      <trkpt lat="47.99857" lon="-4.3115">
        <ele>106.1</ele>
        <time>2024-04-10T21:21:37.780Z</time>
      </trkpt>
      <trkpt lat="47.99862" lon="-4.31104">
        <ele>106.2</ele>
        <time>2024-04-10T21:21:43.037Z</time>
      </trkpt>
      <trkpt lat="47.99884" lon="-4.30941">
        <ele>108.9</ele>
        <time>2024-04-10T21:22:06.379Z</time>
      </trkpt>
      <trkpt lat="47.99886" lon="-4.30911">
        <ele>108.1</ele>
        <time>2024-04-10T21:22:08.747Z</time>
      </trkpt>
      <trkpt lat="47.99887" lon="-4.3081">
        <ele>107.1</ele>
        <time>2024-04-10T21:22:18.409Z</time>
      </trkpt>
      <trkpt lat="47.99903" lon="-4.30517">
        <ele>105.5</ele>
        <time>2024-04-10T21:22:48.230Z</time>
      </trkpt>
      <trkpt lat="47.99912" lon="-4.30432">
        <ele>106.2</ele>
        <time>2024-04-10T21:22:58.845Z</time>
      </trkpt>
      <trkpt lat="47.99922" lon="-4.30353">
        <ele>106</ele>
        <time>2024-04-10T21:23:07.337Z</time>
      </trkpt>
      <trkpt lat="47.9994" lon="-4.30241">
        <ele>106.2</ele>
        <time>2024-04-10T21:23:20.253Z</time>
      </trkpt>
      <trkpt lat="47.9998" lon="-4.3005">
        <ele>107.9</ele>
        <time>2024-04-10T21:23:45.077Z</time>
      </trkpt>
      <trkpt lat="47.99985" lon="-4.30015">
        <ele>108.3</ele>
        <time>2024-04-10T21:23:49.705Z</time>
      </trkpt>
      <trkpt lat="47.99987" lon="-4.2998">
        <ele>108.5</ele>
        <time>2024-04-10T21:23:53.881Z</time>
      </trkpt>
      <trkpt lat="47.99985" lon="-4.29927">
        <ele>109.5</ele>
        <time>2024-04-10T21:24:01.664Z</time>
      </trkpt>
      <trkpt lat="47.9998" lon="-4.2971">
        <ele>111.7</ele>
        <time>2024-04-10T21:24:29.290Z</time>
      </trkpt>
      <trkpt lat="47.99975" lon="-4.29644">
        <ele>112</ele>
        <time>2024-04-10T21:24:37.047Z</time>
      </trkpt>
      <trkpt lat="47.99942" lon="-4.29457">
        <ele>114</ele>
        <time>2024-04-10T21:25:01.734Z</time>
        <extensions>
          <visugpx:TrkExtension xmlns:visugpx="https://www.visugpx.com/editgpx/">
            <visugpx:node>30</visugpx:node>
            </visugpx:TrkExtension>
        </extensions>
      </trkpt>
      <trkpt lat="47.99926" lon="-4.29362">
        <ele>115</ele>
        <time>2024-04-10T21:25:14.213Z</time>
      </trkpt>
      <trkpt lat="47.99913" lon="-4.29307">
        <ele>115</ele>
        <time>2024-04-10T21:25:20.593Z</time>
      </trkpt>
      <trkpt lat="47.99902" lon="-4.29267">
        <ele>116.2</ele>
        <time>2024-04-10T21:25:28.011Z</time>
      </trkpt>
      <trkpt lat="47.9989" lon="-4.29234">
        <ele>116.6</ele>
        <time>2024-04-10T21:25:32.828Z</time>
      </trkpt>
      <trkpt lat="47.99865" lon="-4.29178">
        <ele>117.6</ele>
        <time>2024-04-10T21:25:42.066Z</time>
      </trkpt>
      <trkpt lat="47.99842" lon="-4.29138">
        <ele>118</ele>
        <time>2024-04-10T21:25:48.517Z</time>
      </trkpt>
      <trkpt lat="47.99805" lon="-4.29061">
        <ele>120</ele>
        <time>2024-04-10T21:26:02.965Z</time>
      </trkpt>
      <trkpt lat="47.99799" lon="-4.29041">
        <ele>120.5</ele>
        <time>2024-04-10T21:26:06.407Z</time>
      </trkpt>
      <trkpt lat="47.99784" lon="-4.28985">
        <ele>122</ele>
        <time>2024-04-10T21:26:16.229Z</time>
      </trkpt>
      <trkpt lat="47.9978" lon="-4.28956">
        <ele>122.6</ele>
        <time>2024-04-10T21:26:20.678Z</time>
      </trkpt>
      <trkpt lat="47.99779" lon="-4.28921">
        <ele>123</ele>
        <time>2024-04-10T21:26:25.226Z</time>
      </trkpt>
      <trkpt lat="47.99779" lon="-4.28915">
        <ele>123</ele>
        <time>2024-04-10T21:26:25.883Z</time>
      </trkpt>
      <trkpt lat="47.99788" lon="-4.28765">
        <ele>125</ele>
        <time>2024-04-10T21:26:46.027Z</time>
      </trkpt>
      <trkpt lat="47.998" lon="-4.28661">
        <ele>125.6</ele>
        <time>2024-04-10T21:26:58.570Z</time>
      </trkpt>
      <trkpt lat="47.99806" lon="-4.28616">
        <ele>126</ele>
        <time>2024-04-10T21:27:04.281Z</time>
      </trkpt>
      <trkpt lat="47.99812" lon="-4.28587">
        <ele>125.3</ele>
        <time>2024-04-10T21:27:06.758Z</time>
      </trkpt>
      <trkpt lat="47.9982" lon="-4.28552">
        <ele>125</ele>
        <time>2024-04-10T21:27:10.379Z</time>
      </trkpt>
      <trkpt lat="47.99835" lon="-4.28503">
        <ele>126</ele>
        <time>2024-04-10T21:27:18.243Z</time>
      </trkpt>
      <trkpt lat="47.99899" lon="-4.28301">
        <ele>132.5</ele>
        <time>2024-04-10T21:27:57.531Z</time>
      </trkpt>
      <trkpt lat="47.99909" lon="-4.2825">
        <ele>134</ele>
        <time>2024-04-10T21:28:06.726Z</time>
      </trkpt>
      <trkpt lat="47.9992" lon="-4.28114">
        <ele>134</ele>
        <time>2024-04-10T21:28:21.710Z</time>
      </trkpt>
      <trkpt lat="47.99926" lon="-4.28078">
        <ele>133.8</ele>
        <time>2024-04-10T21:28:25.476Z</time>
      </trkpt>
      <trkpt lat="47.99947" lon="-4.27982">
        <ele>130.4</ele>
        <time>2024-04-10T21:28:32.835Z</time>
      </trkpt>
      <trkpt lat="47.99959" lon="-4.27916">
        <ele>129</ele>
        <time>2024-04-10T21:28:38.584Z</time>
      </trkpt>
      <trkpt lat="47.99984" lon="-4.27757">
        <ele>128.1</ele>
        <time>2024-04-10T21:28:55.137Z</time>
      </trkpt>
      <trkpt lat="47.99991" lon="-4.27696">
        <ele>129.3</ele>
        <time>2024-04-10T21:29:04.297Z</time>
      </trkpt>
      <trkpt lat="48.00003" lon="-4.2746">
        <ele>130.2</ele>
        <time>2024-04-10T21:29:31.648Z</time>
      </trkpt>
      <trkpt lat="48.00003" lon="-4.27415">
        <ele>131.3</ele>
        <time>2024-04-10T21:29:38.921Z</time>
      </trkpt>
      <trkpt lat="47.99999" lon="-4.27384">
        <ele>131.9</ele>
        <time>2024-04-10T21:29:43.563Z</time>
      </trkpt>
      <trkpt lat="47.99995" lon="-4.27367">
        <ele>131.6</ele>
        <time>2024-04-10T21:29:45.148Z</time>
      </trkpt>
      <trkpt lat="47.99963" lon="-4.27218">
        <ele>135.4</ele>
        <time>2024-04-10T21:30:10.367Z</time>
      </trkpt>
      <trkpt lat="47.99949" lon="-4.27157">
        <ele>137.3</ele>
        <time>2024-04-10T21:30:21.783Z</time>
      </trkpt>
      <trkpt lat="47.99936" lon="-4.27128">
        <ele>137.8</ele>
        <time>2024-04-10T21:30:26.531Z</time>
      </trkpt>
      <trkpt lat="47.99929" lon="-4.27124">
        <ele>137.7</ele>
        <time>2024-04-10T21:30:27.616Z</time>
      </trkpt>
      <trkpt lat="47.99927" lon="-4.27121">
        <ele>137.8</ele>
        <time>2024-04-10T21:30:28.291Z</time>
      </trkpt>
      <trkpt lat="47.99925" lon="-4.27116">
        <ele>137.9</ele>
        <time>2024-04-10T21:30:29.121Z</time>
      </trkpt>
      <trkpt lat="47.99924" lon="-4.27106">
        <ele>138</ele>
        <time>2024-04-10T21:30:30.403Z</time>
      </trkpt>
      <trkpt lat="47.99925" lon="-4.27101">
        <ele>138.1</ele>
        <time>2024-04-10T21:30:31.172Z</time>
      </trkpt>
      <trkpt lat="47.99929" lon="-4.27093">
        <ele>138.3</ele>
        <time>2024-04-10T21:30:32.666Z</time>
      </trkpt>
      <trkpt lat="47.99929" lon="-4.27069">
        <ele>139</ele>
        <time>2024-04-10T21:30:36.892Z</time>
      </trkpt>
      <trkpt lat="47.99885" lon="-4.26746">
        <ele>140.6</ele>
        <time>2024-04-10T21:31:15.583Z</time>
      </trkpt>
      <trkpt lat="47.99876" lon="-4.26574">
        <ele>135.6</ele>
        <time>2024-04-10T21:31:28.778Z</time>
      </trkpt>
      <trkpt lat="47.99875" lon="-4.26544">
        <ele>134.1</ele>
        <time>2024-04-10T21:31:30.750Z</time>
      </trkpt>
      <trkpt lat="47.99869" lon="-4.26371">
        <ele>132.2</ele>
        <time>2024-04-10T21:31:47.095Z</time>
      </trkpt>
      <trkpt lat="47.99861" lon="-4.26147">
        <ele>137.7</ele>
        <time>2024-04-10T21:32:23.397Z</time>
      </trkpt>
      <trkpt lat="47.99855" lon="-4.26095">
        <ele>140.4</ele>
        <time>2024-04-10T21:32:37.720Z</time>
      </trkpt>
      <trkpt lat="47.99843" lon="-4.26031">
        <ele>142.2</ele>
        <time>2024-04-10T21:32:48.984Z</time>
      </trkpt>
      <trkpt lat="47.99833" lon="-4.25989">
        <ele>142.4</ele>
        <time>2024-04-10T21:32:54.188Z</time>
      </trkpt>
      <trkpt lat="47.99818" lon="-4.25942">
        <ele>144</ele>
        <time>2024-04-10T21:33:03.625Z</time>
      </trkpt>
      <trkpt lat="47.99798" lon="-4.25892">
        <ele>144.4</ele>
        <time>2024-04-10T21:33:10.673Z</time>
      </trkpt>
      <trkpt lat="47.99689" lon="-4.25684">
        <ele>142.7</ele>
        <time>2024-04-10T21:33:37.119Z</time>
      </trkpt>
      <trkpt lat="47.99669" lon="-4.25636">
        <ele>143</ele>
        <time>2024-04-10T21:33:43.801Z</time>
      </trkpt>
      <trkpt lat="47.99654" lon="-4.25593">
        <ele>141.6</ele>
        <time>2024-04-10T21:33:47.515Z</time>
      </trkpt>
      <trkpt lat="47.99639" lon="-4.25545">
        <ele>142</ele>
        <time>2024-04-10T21:33:53.992Z</time>
      </trkpt>
      <trkpt lat="47.99621" lon="-4.25465">
        <ele>141</ele>
        <time>2024-04-10T21:34:01.867Z</time>
      </trkpt>
      <trkpt lat="47.99617" lon="-4.2544">
        <ele>141</ele>
        <time>2024-04-10T21:34:04.679Z</time>
      </trkpt>
      <trkpt lat="47.99572" lon="-4.25173">
        <ele>142.4</ele>
        <time>2024-04-10T21:34:37.111Z</time>
      </trkpt>
      <trkpt lat="47.99567" lon="-4.25148">
        <ele>143</ele>
        <time>2024-04-10T21:34:41.221Z</time>
      </trkpt>
      <trkpt lat="47.99555" lon="-4.25084">
        <ele>143</ele>
        <time>2024-04-10T21:34:48.491Z</time>
      </trkpt>
      <trkpt lat="47.99539" lon="-4.24983">
        <ele>144.2</ele>
        <time>2024-04-10T21:35:01.999Z</time>
      </trkpt>
      <trkpt lat="47.99528" lon="-4.24901">
        <ele>145</ele>
        <time>2024-04-10T21:35:12.546Z</time>
      </trkpt>
      <trkpt lat="47.99519" lon="-4.24805">
        <ele>146</ele>
        <time>2024-04-10T21:35:24.916Z</time>
      </trkpt>
      <trkpt lat="47.99519" lon="-4.24732">
        <ele>146.6</ele>
        <time>2024-04-10T21:35:33.933Z</time>
      </trkpt>
      <trkpt lat="47.99522" lon="-4.24666">
        <ele>145.4</ele>
        <time>2024-04-10T21:35:39.648Z</time>
      </trkpt>
      <trkpt lat="47.99541" lon="-4.24425">
        <ele>142.1</ele>
        <time>2024-04-10T21:36:01.801Z</time>
      </trkpt>
      <trkpt lat="47.99543" lon="-4.24375">
        <ele>142.1</ele>
        <time>2024-04-10T21:36:07.280Z</time>
      </trkpt>
      <trkpt lat="47.99542" lon="-4.24277">
        <ele>144.5</ele>
        <time>2024-04-10T21:36:23.133Z</time>
      </trkpt>
      <trkpt lat="47.99542" lon="-4.24262">
        <ele>145.1</ele>
        <time>2024-04-10T21:36:26.383Z</time>
      </trkpt>
      <trkpt lat="47.9954" lon="-4.24212">
        <ele>147.4</ele>
        <time>2024-04-10T21:36:38.602Z</time>
      </trkpt>
      <trkpt lat="47.99507" lon="-4.23836">
        <ele>150.2</ele>
        <time>2024-04-10T21:37:24.847Z</time>
      </trkpt>
      <trkpt lat="47.99506" lon="-4.23829">
        <ele>150</ele>
        <time>2024-04-10T21:37:25.401Z</time>
      </trkpt>
      <trkpt lat="47.99497" lon="-4.23736">
        <ele>149.9</ele>
        <time>2024-04-10T21:37:35.526Z</time>
      </trkpt>
      <trkpt lat="47.99483" lon="-4.23645">
        <ele>148.5</ele>
        <time>2024-04-10T21:37:43.905Z</time>
      </trkpt>
      <trkpt lat="47.99463" lon="-4.23544">
        <ele>146.3</ele>
        <time>2024-04-10T21:37:52.717Z</time>
      </trkpt>
      <trkpt lat="47.99442" lon="-4.23463">
        <ele>146.4</ele>
        <time>2024-04-10T21:38:02.376Z</time>
      </trkpt>
      <trkpt lat="47.99413" lon="-4.23343">
        <ele>143.7</ele>
        <time>2024-04-10T21:38:13.016Z</time>
        <extensions>
          <visugpx:TrkExtension xmlns:visugpx="https://www.visugpx.com/editgpx/">
            <visugpx:node>31</visugpx:node>
            </visugpx:TrkExtension>
        </extensions>
      </trkpt>
      <trkpt lat="47.99373" lon="-4.23182">
        <ele>139.4</ele>
        <time>2024-04-10T21:38:26.726Z</time>
      </trkpt>
      <trkpt lat="47.99359" lon="-4.23125">
        <ele>138.1</ele>
        <time>2024-04-10T21:38:31.776Z</time>
      </trkpt>
      <trkpt lat="47.99342" lon="-4.23036">
        <ele>135.4</ele>
        <time>2024-04-10T21:38:38.841Z</time>
      </trkpt>
      <trkpt lat="47.99329" lon="-4.2296">
        <ele>132.7</ele>
        <time>2024-04-10T21:38:44.515Z</time>
      </trkpt>
      <trkpt lat="47.99326" lon="-4.22946">
        <ele>132.3</ele>
        <time>2024-04-10T21:38:45.661Z</time>
      </trkpt>
      <trkpt lat="47.99269" lon="-4.22576">
        <ele>128.9</ele>
        <time>2024-04-10T21:39:22.430Z</time>
      </trkpt>
      <trkpt lat="47.99234" lon="-4.22326">
        <ele>131.7</ele>
        <time>2024-04-10T21:39:55.357Z</time>
      </trkpt>
      <trkpt lat="47.99222" lon="-4.22204">
        <ele>129</ele>
        <time>2024-04-10T21:40:05.555Z</time>
      </trkpt>
      <trkpt lat="47.99211" lon="-4.22026">
        <ele>126.2</ele>
        <time>2024-04-10T21:40:21.466Z</time>
      </trkpt>
      <trkpt lat="47.99209" lon="-4.21901">
        <ele>124.2</ele>
        <time>2024-04-10T21:40:32.550Z</time>
      </trkpt>
      <trkpt lat="47.99209" lon="-4.21798">
        <ele>122.5</ele>
        <time>2024-04-10T21:40:41.625Z</time>
      </trkpt>
      <trkpt lat="47.99215" lon="-4.21655">
        <ele>121.7</ele>
        <time>2024-04-10T21:40:56.134Z</time>
      </trkpt>
      <trkpt lat="47.99219" lon="-4.21529">
        <ele>123</ele>
        <time>2024-04-10T21:41:12.229Z</time>
      </trkpt>
      <trkpt lat="47.99219" lon="-4.21439">
        <ele>124</ele>
        <time>2024-04-10T21:41:23.859Z</time>
      </trkpt>
      <trkpt lat="47.99204" lon="-4.21226">
        <ele>121.5</ele>
        <time>2024-04-10T21:41:43.890Z</time>
      </trkpt>
      <trkpt lat="47.99203" lon="-4.21167">
        <ele>121.2</ele>
        <time>2024-04-10T21:41:49.907Z</time>
      </trkpt>
      <trkpt lat="47.99204" lon="-4.21111">
        <ele>119.1</ele>
        <time>2024-04-10T21:41:53.838Z</time>
      </trkpt>
      <trkpt lat="47.99214" lon="-4.21032">
        <ele>117.4</ele>
        <time>2024-04-10T21:42:00.545Z</time>
      </trkpt>
      <trkpt lat="47.99227" lon="-4.20982">
        <ele>116.8</ele>
        <time>2024-04-10T21:42:05.593Z</time>
      </trkpt>
      <trkpt lat="47.99297" lon="-4.20772">
        <ele>115.1</ele>
        <time>2024-04-10T21:42:28.828Z</time>
      </trkpt>
      <trkpt lat="47.99363" lon="-4.20581">
        <ele>114</ele>
        <time>2024-04-10T21:42:50.732Z</time>
      </trkpt>
      <trkpt lat="47.99483" lon="-4.2029">
        <ele>112.2</ele>
        <time>2024-04-10T21:43:25.492Z</time>
      </trkpt>
      <trkpt lat="47.99569" lon="-4.20085">
        <ele>112.5</ele>
        <time>2024-04-10T21:43:52.431Z</time>
      </trkpt>
      <trkpt lat="47.996" lon="-4.20017">
        <ele>114.3</ele>
        <time>2024-04-10T21:44:05.142Z</time>
      </trkpt>
      <trkpt lat="47.99635" lon="-4.19956">
        <ele>119</ele>
        <time>2024-04-10T21:44:30.432Z</time>
      </trkpt>
      <trkpt lat="47.99724" lon="-4.19825">
        <ele>126.6</ele>
        <time>2024-04-10T21:45:11.453Z</time>
      </trkpt>
      <trkpt lat="47.99757" lon="-4.19774">
        <ele>129.6</ele>
        <time>2024-04-10T21:45:27.539Z</time>
      </trkpt>
      <trkpt lat="47.9979" lon="-4.19713">
        <ele>132.6</ele>
        <time>2024-04-10T21:45:43.957Z</time>
      </trkpt>
      <trkpt lat="47.99811" lon="-4.19665">
        <ele>133.5</ele>
        <time>2024-04-10T21:45:51.936Z</time>
      </trkpt>
      <trkpt lat="47.99831" lon="-4.19608">
        <ele>135</ele>
        <time>2024-04-10T21:46:02.130Z</time>
      </trkpt>
      <trkpt lat="47.99835" lon="-4.19595">
        <ele>135.1</ele>
        <time>2024-04-10T21:46:03.865Z</time>
      </trkpt>
      <trkpt lat="47.99841" lon="-4.1957">
        <ele>135.6</ele>
        <time>2024-04-10T21:46:07.758Z</time>
      </trkpt>
      <trkpt lat="47.99863" lon="-4.19488">
        <ele>136.5</ele>
        <time>2024-04-10T21:46:19.008Z</time>
      </trkpt>
      <trkpt lat="47.99861" lon="-4.19467">
        <ele>136.8</ele>
        <time>2024-04-10T21:46:21.886Z</time>
      </trkpt>
      <trkpt lat="47.99857" lon="-4.1946">
        <ele>136.2</ele>
        <time>2024-04-10T21:46:22.490Z</time>
      </trkpt>
      <trkpt lat="47.99855" lon="-4.19451">
        <ele>135.9</ele>
        <time>2024-04-10T21:46:23.195Z</time>
      </trkpt>
      <trkpt lat="47.99854" lon="-4.19443">
        <ele>135.7</ele>
        <time>2024-04-10T21:46:23.848Z</time>
      </trkpt>
      <trkpt lat="47.99854" lon="-4.19442">
        <ele>135.7</ele>
        <time>2024-04-10T21:46:23.958Z</time>
        <extensions>
          <visugpx:TrkExtension xmlns:visugpx="https://www.visugpx.com/editgpx/">
            <visugpx:node>32</visugpx:node>
            </visugpx:TrkExtension>
        </extensions>
      </trkpt>
      <trkpt lat="47.99858" lon="-4.19427">
        <ele>135.9</ele>
        <time>2024-04-10T21:46:26.087Z</time>
      </trkpt>
      <trkpt lat="47.99863" lon="-4.19419">
        <ele>136</ele>
        <time>2024-04-10T21:46:27.458Z</time>
      </trkpt>
      <trkpt lat="47.99871" lon="-4.19397">
        <ele>135.5</ele>
        <time>2024-04-10T21:46:29.575Z</time>
      </trkpt>
      <trkpt lat="47.99888" lon="-4.19252">
        <ele>134.9</ele>
        <time>2024-04-10T21:46:44.787Z</time>
      </trkpt>
      <trkpt lat="47.99892" lon="-4.19228">
        <ele>134.3</ele>
        <time>2024-04-10T21:46:46.779Z</time>
      </trkpt>
      <trkpt lat="47.99904" lon="-4.19168">
        <ele>133.6</ele>
        <time>2024-04-10T21:46:52.671Z</time>
      </trkpt>
      <trkpt lat="47.9993" lon="-4.19072">
        <ele>137.2</ele>
        <time>2024-04-10T21:47:12.930Z</time>
      </trkpt>
      <trkpt lat="47.99962" lon="-4.18982">
        <ele>138.2</ele>
        <time>2024-04-10T21:47:25.833Z</time>
      </trkpt>
      <trkpt lat="47.99987" lon="-4.18898">
        <ele>137.3</ele>
        <time>2024-04-10T21:47:34.639Z</time>
      </trkpt>
      <trkpt lat="48.00045" lon="-4.18669">
        <ele>135.6</ele>
        <time>2024-04-10T21:47:58.983Z</time>
      </trkpt>
      <trkpt lat="48.00081" lon="-4.1852">
        <ele>136</ele>
        <time>2024-04-10T21:48:16.950Z</time>
      </trkpt>
      <trkpt lat="48.0016" lon="-4.18026">
        <ele>144.3</ele>
        <time>2024-04-10T21:49:28.371Z</time>
      </trkpt>
      <trkpt lat="48.00175" lon="-4.17924">
        <ele>146.7</ele>
        <time>2024-04-10T21:49:44.819Z</time>
      </trkpt>
      <trkpt lat="48.00181" lon="-4.17858">
        <ele>147.5</ele>
        <time>2024-04-10T21:49:53.548Z</time>
      </trkpt>
      <trkpt lat="48.00184" lon="-4.1776">
        <ele>149.6</ele>
        <time>2024-04-10T21:50:08.579Z</time>
      </trkpt>
      <trkpt lat="48.00182" lon="-4.17718">
        <ele>150</ele>
        <time>2024-04-10T21:50:13.884Z</time>
      </trkpt>
      <trkpt lat="48.00172" lon="-4.1762">
        <ele>148.5</ele>
        <time>2024-04-10T21:50:22.763Z</time>
      </trkpt>
      <trkpt lat="48.00161" lon="-4.17517">
        <ele>144.2</ele>
        <time>2024-04-10T21:50:29.825Z</time>
      </trkpt>
      <trkpt lat="48.00157" lon="-4.17495">
        <ele>143.1</ele>
        <time>2024-04-10T21:50:31.321Z</time>
      </trkpt>
      <trkpt lat="48.00149" lon="-4.17465">
        <ele>141.2</ele>
        <time>2024-04-10T21:50:33.440Z</time>
      </trkpt>
      <trkpt lat="48.0009" lon="-4.17281">
        <ele>136.4</ele>
        <time>2024-04-10T21:50:50.002Z</time>
      </trkpt>
      <trkpt lat="48.00088" lon="-4.17274">
        <ele>136.3</ele>
        <time>2024-04-10T21:50:50.701Z</time>
      </trkpt>
      <trkpt lat="48.00033" lon="-4.17092">
        <ele>130.6</ele>
        <time>2024-04-10T21:51:06.046Z</time>
      </trkpt>
      <trkpt lat="48.00003" lon="-4.16955">
        <ele>126.2</ele>
        <time>2024-04-10T21:51:16.893Z</time>
      </trkpt>
      <trkpt lat="47.99975" lon="-4.16864">
        <ele>121.5</ele>
        <time>2024-04-10T21:51:23.466Z</time>
      </trkpt>
      <trkpt lat="47.99964" lon="-4.16813">
        <ele>119.7</ele>
        <time>2024-04-10T21:51:27.374Z</time>
      </trkpt>
      <trkpt lat="47.99924" lon="-4.16561">
        <ele>110</ele>
        <time>2024-04-10T21:51:45.550Z</time>
      </trkpt>
      <trkpt lat="47.99913" lon="-4.16494">
        <ele>107.5</ele>
        <time>2024-04-10T21:51:50.450Z</time>
      </trkpt>
      <trkpt lat="47.99908" lon="-4.16433">
        <ele>106</ele>
        <time>2024-04-10T21:51:55.389Z</time>
      </trkpt>
      <trkpt lat="47.99907" lon="-4.16384">
        <ele>104.2</ele>
        <time>2024-04-10T21:51:58.855Z</time>
      </trkpt>
      <trkpt lat="47.99907" lon="-4.16365">
        <ele>104</ele>
        <time>2024-04-10T21:52:00.658Z</time>
      </trkpt>
      <trkpt lat="47.9991" lon="-4.16282">
        <ele>103.5</ele>
        <time>2024-04-10T21:52:09.025Z</time>
      </trkpt>
      <trkpt lat="47.99917" lon="-4.16187">
        <ele>100.5</ele>
        <time>2024-04-10T21:52:16.153Z</time>
      </trkpt>
      <trkpt lat="47.9992" lon="-4.16149">
        <ele>99</ele>
        <time>2024-04-10T21:52:18.793Z</time>
      </trkpt>
      <trkpt lat="47.99926" lon="-4.16117">
        <ele>98.1</ele>
        <time>2024-04-10T21:52:21.387Z</time>
      </trkpt>
      <trkpt lat="47.99938" lon="-4.1608">
        <ele>96</ele>
        <time>2024-04-10T21:52:24.086Z</time>
      </trkpt>
      <trkpt lat="47.99955" lon="-4.16046">
        <ele>94.7</ele>
        <time>2024-04-10T21:52:27.276Z</time>
      </trkpt>
      <trkpt lat="47.99984" lon="-4.16002">
        <ele>92.5</ele>
        <time>2024-04-10T21:52:31.689Z</time>
      </trkpt>
      <trkpt lat="48.00015" lon="-4.15965">
        <ele>90.1</ele>
        <time>2024-04-10T21:52:35.731Z</time>
      </trkpt>
      <trkpt lat="48.00091" lon="-4.15888">
        <ele>86.5</ele>
        <time>2024-04-10T21:52:46.541Z</time>
      </trkpt>
      <trkpt lat="48.00106" lon="-4.15871">
        <ele>85.7</ele>
        <time>2024-04-10T21:52:48.706Z</time>
      </trkpt>
      <trkpt lat="48.00115" lon="-4.15859">
        <ele>85.1</ele>
        <time>2024-04-10T21:52:50.024Z</time>
      </trkpt>
      <trkpt lat="48.00132" lon="-4.1583">
        <ele>85.7</ele>
        <time>2024-04-10T21:52:55.376Z</time>
      </trkpt>
      <trkpt lat="48.00144" lon="-4.15798">
        <ele>85.9</ele>
        <time>2024-04-10T21:52:59.720Z</time>
      </trkpt>
      <trkpt lat="48.00152" lon="-4.15763">
        <ele>87.3</ele>
        <time>2024-04-10T21:53:07.402Z</time>
      </trkpt>
      <trkpt lat="48.00151" lon="-4.15742">
        <ele>88.3</ele>
        <time>2024-04-10T21:53:12.705Z</time>
      </trkpt>
      <trkpt lat="48.00144" lon="-4.15727">
        <ele>88.8</ele>
        <time>2024-04-10T21:53:15.819Z</time>
      </trkpt>
      <trkpt lat="48.00142" lon="-4.15718">
        <ele>89</ele>
        <time>2024-04-10T21:53:17.264Z</time>
      </trkpt>
      <trkpt lat="48.00142" lon="-4.157">
        <ele>89</ele>
        <time>2024-04-10T21:53:19.233Z</time>
      </trkpt>
      <trkpt lat="48.00145" lon="-4.15689">
        <ele>89</ele>
        <time>2024-04-10T21:53:20.532Z</time>
      </trkpt>
      <trkpt lat="48.00149" lon="-4.15679">
        <ele>89</ele>
        <time>2024-04-10T21:53:21.806Z</time>
      </trkpt>
      <trkpt lat="48.00154" lon="-4.15672">
        <ele>89</ele>
        <time>2024-04-10T21:53:22.926Z</time>
      </trkpt>
      <trkpt lat="48.00165" lon="-4.15664">
        <ele>89.5</ele>
        <time>2024-04-10T21:53:26.039Z</time>
      </trkpt>
      <trkpt lat="48.00166" lon="-4.15664">
        <ele>89.5</ele>
        <time>2024-04-10T21:53:26.203Z</time>
        <extensions>
          <visugpx:TrkExtension xmlns:visugpx="https://www.visugpx.com/editgpx/">
            <visugpx:node>33</visugpx:node>
            </visugpx:TrkExtension>
        </extensions>
      </trkpt>
      <trkpt lat="48.0017" lon="-4.15663">
        <ele>89.6</ele>
        <time>2024-04-10T21:53:27.057Z</time>
      </trkpt>
      <trkpt lat="48.00176" lon="-4.15652">
        <ele>91.1</ele>
        <time>2024-04-10T21:53:33.709Z</time>
      </trkpt>
      <trkpt lat="48.00181" lon="-4.15639">
        <ele>92.4</ele>
        <time>2024-04-10T21:53:40.699Z</time>
      </trkpt>
      <trkpt lat="48.00181" lon="-4.15622">
        <ele>92.8</ele>
        <time>2024-04-10T21:53:43.402Z</time>
      </trkpt>
      <trkpt lat="48.00178" lon="-4.15609">
        <ele>93.2</ele>
        <time>2024-04-10T21:53:45.819Z</time>
      </trkpt>
      <trkpt lat="48.00161" lon="-4.15578">
        <ele>92.3</ele>
        <time>2024-04-10T21:53:49.112Z</time>
      </trkpt>
      <trkpt lat="48.00126" lon="-4.15527">
        <ele>93</ele>
        <time>2024-04-10T21:53:58.328Z</time>
      </trkpt>
      <trkpt lat="48.00111" lon="-4.15503">
        <ele>93</ele>
        <time>2024-04-10T21:54:01.919Z</time>
      </trkpt>
      <trkpt lat="48.00102" lon="-4.15484">
        <ele>93.5</ele>
        <time>2024-04-10T21:54:05.491Z</time>
      </trkpt>
      <trkpt lat="48.00092" lon="-4.15453">
        <ele>94.8</ele>
        <time>2024-04-10T21:54:12.628Z</time>
      </trkpt>
      <trkpt lat="48.00089" lon="-4.15435">
        <ele>95.1</ele>
        <time>2024-04-10T21:54:15.229Z</time>
      </trkpt>
      <trkpt lat="48.00086" lon="-4.15415">
        <ele>95.1</ele>
        <time>2024-04-10T21:54:17.470Z</time>
      </trkpt>
      <trkpt lat="48.00086" lon="-4.15337">
        <ele>97.7</ele>
        <time>2024-04-10T21:54:32.318Z</time>
      </trkpt>
      <trkpt lat="48.00084" lon="-4.15294">
        <ele>98.4</ele>
        <time>2024-04-10T21:54:38.369Z</time>
      </trkpt>
      <trkpt lat="48.00079" lon="-4.15226">
        <ele>100</ele>
        <time>2024-04-10T21:54:49.220Z</time>
      </trkpt>
      <trkpt lat="48.00077" lon="-4.15215">
        <ele>100.2</ele>
        <time>2024-04-10T21:54:50.855Z</time>
      </trkpt>
      <trkpt lat="48.0007" lon="-4.15205">
        <ele>100.5</ele>
        <time>2024-04-10T21:54:53.047Z</time>
      </trkpt>
      <trkpt lat="48.00061" lon="-4.15201">
        <ele>100.8</ele>
        <time>2024-04-10T21:54:55.196Z</time>
      </trkpt>
      <trkpt lat="48.00057" lon="-4.15196">
        <ele>100.9</ele>
        <time>2024-04-10T21:54:56.231Z</time>
      </trkpt>
      <trkpt lat="48.00054" lon="-4.15183">
        <ele>100.9</ele>
        <time>2024-04-10T21:54:57.735Z</time>
      </trkpt>
      <trkpt lat="48.00054" lon="-4.15176">
        <ele>100.9</ele>
        <time>2024-04-10T21:54:58.501Z</time>
      </trkpt>
      <trkpt lat="48.00057" lon="-4.15167">
        <ele>101</ele>
        <time>2024-04-10T21:54:59.776Z</time>
      </trkpt>
      <trkpt lat="48.00062" lon="-4.1516">
        <ele>101</ele>
        <time>2024-04-10T21:55:00.896Z</time>
      </trkpt>
      <trkpt lat="48.00064" lon="-4.15137">
        <ele>101</ele>
        <time>2024-04-10T21:55:03.433Z</time>
      </trkpt>
      <trkpt lat="48.00063" lon="-4.15122">
        <ele>101</ele>
        <time>2024-04-10T21:55:05.082Z</time>
      </trkpt>
      <trkpt lat="48.00043" lon="-4.14975">
        <ele>101</ele>
        <time>2024-04-10T21:55:21.488Z</time>
      </trkpt>
      <trkpt lat="48.0004" lon="-4.14959">
        <ele>101</ele>
        <time>2024-04-10T21:55:23.306Z</time>
      </trkpt>
      <trkpt lat="48.00032" lon="-4.14931">
        <ele>100.6</ele>
        <time>2024-04-10T21:55:26.101Z</time>
      </trkpt>
      <trkpt lat="48.00019" lon="-4.14908">
        <ele>97.6</ele>
        <time>2024-04-10T21:55:28.076Z</time>
      </trkpt>
      <trkpt lat="48.00005" lon="-4.14884">
        <ele>94</ele>
        <time>2024-04-10T21:55:30.166Z</time>
      </trkpt>
      <trkpt lat="47.99985" lon="-4.14857">
        <ele>96.3</ele>
        <time>2024-04-10T21:55:42.496Z</time>
      </trkpt>
      <trkpt lat="47.99951" lon="-4.14824">
        <ele>98.5</ele>
        <time>2024-04-10T21:55:54.708Z</time>
      </trkpt>
      <trkpt lat="47.99944" lon="-4.14827">
        <ele>98.2</ele>
        <time>2024-04-10T21:55:55.553Z</time>
      </trkpt>
      <trkpt lat="47.99938" lon="-4.14827">
        <ele>98</ele>
        <time>2024-04-10T21:55:56.291Z</time>
      </trkpt>
      <trkpt lat="47.99932" lon="-4.14824">
        <ele>97.9</ele>
        <time>2024-04-10T21:55:57.188Z</time>
      </trkpt>
      <trkpt lat="47.99926" lon="-4.14818">
        <ele>97.9</ele>
        <time>2024-04-10T21:55:58.368Z</time>
      </trkpt>
      <trkpt lat="47.99922" lon="-4.14811">
        <ele>98</ele>
        <time>2024-04-10T21:55:59.552Z</time>
      </trkpt>
      <trkpt lat="47.99919" lon="-4.14796">
        <ele>98.1</ele>
        <time>2024-04-10T21:56:01.433Z</time>
      </trkpt>
      <trkpt lat="47.99919" lon="-4.14788">
        <ele>98.1</ele>
        <time>2024-04-10T21:56:02.308Z</time>
      </trkpt>
      <trkpt lat="47.99921" lon="-4.14778">
        <ele>98.2</ele>
        <time>2024-04-10T21:56:03.624Z</time>
      </trkpt>
      <trkpt lat="47.99926" lon="-4.1477">
        <ele>98.2</ele>
        <time>2024-04-10T21:56:04.822Z</time>
      </trkpt>
      <trkpt lat="47.99931" lon="-4.14764">
        <ele>98.3</ele>
        <time>2024-04-10T21:56:06.047Z</time>
      </trkpt>
      <trkpt lat="47.99938" lon="-4.14761">
        <ele>98.3</ele>
        <time>2024-04-10T21:56:07.237Z</time>
      </trkpt>
      <trkpt lat="47.99946" lon="-4.14742">
        <ele>98.3</ele>
        <time>2024-04-10T21:56:09.692Z</time>
      </trkpt>
      <trkpt lat="47.99957" lon="-4.1471">
        <ele>99.2</ele>
        <time>2024-04-10T21:56:15.566Z</time>
      </trkpt>
      <trkpt lat="47.9997" lon="-4.14643">
        <ele>98.2</ele>
        <time>2024-04-10T21:56:21.876Z</time>
      </trkpt>
      <trkpt lat="47.99974" lon="-4.14612">
        <ele>97</ele>
        <time>2024-04-10T21:56:24.080Z</time>
      </trkpt>
      <trkpt lat="47.99975" lon="-4.14587">
        <ele>96.9</ele>
        <time>2024-04-10T21:56:26.671Z</time>
      </trkpt>
      <trkpt lat="47.99974" lon="-4.14558">
        <ele>96</ele>
        <time>2024-04-10T21:56:28.845Z</time>
      </trkpt>
      <trkpt lat="47.9997" lon="-4.14526">
        <ele>95.2</ele>
        <time>2024-04-10T21:56:31.457Z</time>
      </trkpt>
      <trkpt lat="47.99924" lon="-4.14306">
        <ele>91</ele>
        <time>2024-04-10T21:56:51.348Z</time>
      </trkpt>
      <trkpt lat="47.99915" lon="-4.1426">
        <ele>90</ele>
        <time>2024-04-10T21:56:55.359Z</time>
      </trkpt>
      <trkpt lat="47.99911" lon="-4.14231">
        <ele>89.3</ele>
        <time>2024-04-10T21:56:57.759Z</time>
      </trkpt>
      <trkpt lat="47.99907" lon="-4.1418">
        <ele>89</ele>
        <time>2024-04-10T21:57:02.940Z</time>
      </trkpt>
      <trkpt lat="47.99904" lon="-4.14112">
        <ele>89.5</ele>
        <time>2024-04-10T21:57:11.244Z</time>
      </trkpt>
      <trkpt lat="47.99903" lon="-4.14063">
        <ele>89</ele>
        <time>2024-04-10T21:57:15.915Z</time>
      </trkpt>
      <trkpt lat="47.99903" lon="-4.14035">
        <ele>89.4</ele>
        <time>2024-04-10T21:57:19.722Z</time>
      </trkpt>
      <trkpt lat="47.99906" lon="-4.13939">
        <ele>89.5</ele>
        <time>2024-04-10T21:57:30.391Z</time>
      </trkpt>
      <trkpt lat="47.99914" lon="-4.13792">
        <ele>85.7</ele>
        <time>2024-04-10T21:57:42.070Z</time>
      </trkpt>
      <trkpt lat="47.99913" lon="-4.13738">
        <ele>84.8</ele>
        <time>2024-04-10T21:57:46.819Z</time>
      </trkpt>
      <trkpt lat="47.99912" lon="-4.1373">
        <ele>84.6</ele>
        <time>2024-04-10T21:57:47.472Z</time>
      </trkpt>
      <trkpt lat="47.99909" lon="-4.13679">
        <ele>83.1</ele>
        <time>2024-04-10T21:57:51.375Z</time>
      </trkpt>
      <trkpt lat="47.99894" lon="-4.13522">
        <ele>81.8</ele>
        <time>2024-04-10T21:58:06.884Z</time>
      </trkpt>
      <trkpt lat="47.99893" lon="-4.13496">
        <ele>81.8</ele>
        <time>2024-04-10T21:58:09.733Z</time>
      </trkpt>
      <trkpt lat="47.99894" lon="-4.13472">
        <ele>82.3</ele>
        <time>2024-04-10T21:58:13.378Z</time>
      </trkpt>
      <trkpt lat="47.99898" lon="-4.1345">
        <ele>81.4</ele>
        <time>2024-04-10T21:58:14.948Z</time>
      </trkpt>
      <trkpt lat="47.99919" lon="-4.13382">
        <ele>80.7</ele>
        <time>2024-04-10T21:58:22.163Z</time>
      </trkpt>
      <trkpt lat="47.99924" lon="-4.13354">
        <ele>80</ele>
        <time>2024-04-10T21:58:24.499Z</time>
      </trkpt>
      <trkpt lat="47.99924" lon="-4.13337">
        <ele>79.7</ele>
        <time>2024-04-10T21:58:25.976Z</time>
      </trkpt>
      <trkpt lat="47.99921" lon="-4.13321">
        <ele>79.6</ele>
        <time>2024-04-10T21:58:27.649Z</time>
      </trkpt>
      <trkpt lat="47.99916" lon="-4.13305">
        <ele>80</ele>
        <time>2024-04-10T21:58:30.414Z</time>
      </trkpt>
      <trkpt lat="47.99884" lon="-4.13224">
        <ele>77.9</ele>
        <time>2024-04-10T21:58:38.154Z</time>
      </trkpt>
      <trkpt lat="47.9988" lon="-4.13205">
        <ele>77.3</ele>
        <time>2024-04-10T21:58:39.659Z</time>
      </trkpt>
      <trkpt lat="47.99879" lon="-4.13188">
        <ele>77</ele>
        <time>2024-04-10T21:58:41.143Z</time>
      </trkpt>
      <trkpt lat="47.99882" lon="-4.1317">
        <ele>76.6</ele>
        <time>2024-04-10T21:58:42.683Z</time>
      </trkpt>
      <trkpt lat="47.99886" lon="-4.13159">
        <ele>76</ele>
        <time>2024-04-10T21:58:43.505Z</time>
      </trkpt>
      <trkpt lat="47.99914" lon="-4.13094">
        <ele>74</ele>
        <time>2024-04-10T21:58:49.619Z</time>
      </trkpt>
      <trkpt lat="47.99927" lon="-4.13054">
        <ele>71.7</ele>
        <time>2024-04-10T21:58:52.537Z</time>
      </trkpt>
      <trkpt lat="47.99932" lon="-4.13028">
        <ele>70.6</ele>
        <time>2024-04-10T21:58:54.378Z</time>
      </trkpt>
      <trkpt lat="47.99934" lon="-4.12991">
        <ele>71</ele>
        <time>2024-04-10T21:58:59.149Z</time>
      </trkpt>
      <trkpt lat="47.99931" lon="-4.12948">
        <ele>69.6</ele>
        <time>2024-04-10T21:59:02.341Z</time>
      </trkpt>
      <trkpt lat="47.99923" lon="-4.12912">
        <ele>67.8</ele>
        <time>2024-04-10T21:59:04.830Z</time>
      </trkpt>
      <trkpt lat="47.99916" lon="-4.12891">
        <ele>68.2</ele>
        <time>2024-04-10T21:59:08.168Z</time>
      </trkpt>
      <trkpt lat="47.99906" lon="-4.12867">
        <ele>68</ele>
        <time>2024-04-10T21:59:10.974Z</time>
      </trkpt>
      <trkpt lat="47.99893" lon="-4.12842">
        <ele>66.7</ele>
        <time>2024-04-10T21:59:13.121Z</time>
      </trkpt>
      <trkpt lat="47.99856" lon="-4.128">
        <ele>64.1</ele>
        <time>2024-04-10T21:59:17.995Z</time>
      </trkpt>
      <trkpt lat="47.99849" lon="-4.1279">
        <ele>63.7</ele>
        <time>2024-04-10T21:59:19.118Z</time>
      </trkpt>
      <trkpt lat="47.99839" lon="-4.12765">
        <ele>62</ele>
        <time>2024-04-10T21:59:21.029Z</time>
      </trkpt>
      <trkpt lat="47.99837" lon="-4.12744">
        <ele>60.4</ele>
        <time>2024-04-10T21:59:22.421Z</time>
      </trkpt>
      <trkpt lat="47.9984" lon="-4.12725">
        <ele>58</ele>
        <time>2024-04-10T21:59:23.703Z</time>
      </trkpt>
      <trkpt lat="47.99848" lon="-4.12701">
        <ele>58.4</ele>
        <time>2024-04-10T21:59:27.386Z</time>
      </trkpt>
      <trkpt lat="47.9988" lon="-4.12644">
        <ele>57.7</ele>
        <time>2024-04-10T21:59:34.548Z</time>
      </trkpt>
      <trkpt lat="47.99894" lon="-4.12613">
        <ele>57.7</ele>
        <time>2024-04-10T21:59:38.639Z</time>
      </trkpt>
      <trkpt lat="47.99898" lon="-4.12592">
        <ele>58.1</ele>
        <time>2024-04-10T21:59:41.812Z</time>
      </trkpt>
      <trkpt lat="47.999" lon="-4.12571">
        <ele>57.8</ele>
        <time>2024-04-10T21:59:43.736Z</time>
      </trkpt>
      <trkpt lat="47.99899" lon="-4.12559">
        <ele>57.6</ele>
        <time>2024-04-10T21:59:44.800Z</time>
        <extensions>
          <visugpx:TrkExtension xmlns:visugpx="https://www.visugpx.com/editgpx/">
            <visugpx:node>34</visugpx:node>
            </visugpx:TrkExtension>
        </extensions>
      </trkpt>
      <trkpt lat="47.99898" lon="-4.12551">
        <ele>57.1</ele>
        <time>2024-04-10T21:59:45.335Z</time>
      </trkpt>
      <trkpt lat="47.9986" lon="-4.12319">
        <ele>50.7</ele>
        <time>2024-04-10T22:00:04.037Z</time>
      </trkpt>
      <trkpt lat="47.99851" lon="-4.12292">
        <ele>50.4</ele>
        <time>2024-04-10T22:00:06.920Z</time>
      </trkpt>
      <trkpt lat="47.99841" lon="-4.12271">
        <ele>49.8</ele>
        <time>2024-04-10T22:00:09.019Z</time>
      </trkpt>
      <trkpt lat="47.99829" lon="-4.12253">
        <ele>49.9</ele>
        <time>2024-04-10T22:00:11.961Z</time>
      </trkpt>
      <trkpt lat="47.99816" lon="-4.12232">
        <ele>48</ele>
        <time>2024-04-10T22:00:13.838Z</time>
      </trkpt>
      <trkpt lat="47.99786" lon="-4.12194">
        <ele>47.1</ele>
        <time>2024-04-10T22:00:19.091Z</time>
      </trkpt>
      <trkpt lat="47.99769" lon="-4.12164">
        <ele>46.7</ele>
        <time>2024-04-10T22:00:22.838Z</time>
      </trkpt>
      <trkpt lat="47.99763" lon="-4.12151">
        <ele>46.2</ele>
        <time>2024-04-10T22:00:24.012Z</time>
      </trkpt>
      <trkpt lat="47.99758" lon="-4.1213">
        <ele>45.2</ele>
        <time>2024-04-10T22:00:25.475Z</time>
      </trkpt>
      <trkpt lat="47.99752" lon="-4.12101">
        <ele>45.3</ele>
        <time>2024-04-10T22:00:28.957Z</time>
      </trkpt>
      <trkpt lat="47.99748" lon="-4.12057">
        <ele>44.3</ele>
        <time>2024-04-10T22:00:32.603Z</time>
      </trkpt>
      <trkpt lat="47.99745" lon="-4.11962">
        <ele>42.4</ele>
        <time>2024-04-10T22:00:40.643Z</time>
      </trkpt>
      <trkpt lat="47.99744" lon="-4.11945">
        <ele>42.2</ele>
        <time>2024-04-10T22:00:42.238Z</time>
      </trkpt>
      <trkpt lat="47.99744" lon="-4.11935">
        <ele>41.9</ele>
        <time>2024-04-10T22:00:42.995Z</time>
      </trkpt>
      <trkpt lat="47.99744" lon="-4.1192">
        <ele>41.3</ele>
        <time>2024-04-10T22:00:44.022Z</time>
      </trkpt>
      <trkpt lat="47.99751" lon="-4.11847">
        <ele>39.9</ele>
        <time>2024-04-10T22:00:50.330Z</time>
      </trkpt>
      <trkpt lat="47.99754" lon="-4.11818">
        <ele>39.1</ele>
        <time>2024-04-10T22:00:52.616Z</time>
      </trkpt>
      <trkpt lat="47.99759" lon="-4.11796">
        <ele>38.4</ele>
        <time>2024-04-10T22:00:54.372Z</time>
      </trkpt>
      <trkpt lat="47.99771" lon="-4.11765">
        <ele>37.5</ele>
        <time>2024-04-10T22:00:57.228Z</time>
      </trkpt>
      <trkpt lat="47.99784" lon="-4.11737">
        <ele>36.4</ele>
        <time>2024-04-10T22:00:59.746Z</time>
      </trkpt>
      <trkpt lat="47.99806" lon="-4.11701">
        <ele>35.7</ele>
        <time>2024-04-10T22:01:04.155Z</time>
      </trkpt>
      <trkpt lat="47.99865" lon="-4.11632">
        <ele>33.6</ele>
        <time>2024-04-10T22:01:13.757Z</time>
      </trkpt>
      <trkpt lat="47.99881" lon="-4.11608">
        <ele>32.6</ele>
        <time>2024-04-10T22:01:16.333Z</time>
      </trkpt>
      <trkpt lat="47.99894" lon="-4.11576">
        <ele>31.7</ele>
        <time>2024-04-10T22:01:19.355Z</time>
      </trkpt>
      <trkpt lat="47.99901" lon="-4.11553">
        <ele>31.6</ele>
        <time>2024-04-10T22:01:21.970Z</time>
      </trkpt>
      <trkpt lat="47.99912" lon="-4.11524">
        <ele>31.2</ele>
        <time>2024-04-10T22:01:25.074Z</time>
      </trkpt>
      <trkpt lat="47.99939" lon="-4.11454">
        <ele>29.4</ele>
        <time>2024-04-10T22:01:31.726Z</time>
      </trkpt>
      <trkpt lat="47.9995" lon="-4.11432">
        <ele>28.4</ele>
        <time>2024-04-10T22:01:33.674Z</time>
      </trkpt>
      <trkpt lat="47.99952" lon="-4.11427">
        <ele>28.2</ele>
        <time>2024-04-10T22:01:34.095Z</time>
      </trkpt>
      <trkpt lat="47.99975" lon="-4.11369">
        <ele>26.7</ele>
        <time>2024-04-10T22:01:39.648Z</time>
      </trkpt>
      <trkpt lat="47.99982" lon="-4.1135">
        <ele>26.1</ele>
        <time>2024-04-10T22:01:41.330Z</time>
      </trkpt>
      <trkpt lat="48.00003" lon="-4.11294">
        <ele>24.2</ele>
        <time>2024-04-10T22:01:46.208Z</time>
      </trkpt>
      <trkpt lat="48.00012" lon="-4.11256">
        <ele>21.8</ele>
        <time>2024-04-10T22:01:48.853Z</time>
      </trkpt>
      <trkpt lat="48.00013" lon="-4.11239">
        <ele>21.6</ele>
        <time>2024-04-10T22:01:50.448Z</time>
      </trkpt>
      <trkpt lat="48.00047" lon="-4.11264">
        <ele>18.3</ele>
        <time>2024-04-10T22:01:54.164Z</time>
      </trkpt>
      <trkpt lat="48.00056" lon="-4.11273">
        <ele>17.1</ele>
        <time>2024-04-10T22:01:55.226Z</time>
      </trkpt>
      <trkpt lat="48.00084" lon="-4.11294">
        <ele>15</ele>
        <time>2024-04-10T22:01:58.299Z</time>
      </trkpt>
      <trkpt lat="48.00095" lon="-4.11303">
        <ele>14.2</ele>
        <time>2024-04-10T22:01:59.551Z</time>
      </trkpt>
      <trkpt lat="48.00103" lon="-4.1131">
        <ele>13.7</ele>
        <time>2024-04-10T22:02:00.536Z</time>
      </trkpt>
      <trkpt lat="48.00136" lon="-4.11337">
        <ele>11.4</ele>
        <time>2024-04-10T22:02:04.354Z</time>
      </trkpt>
      <trkpt lat="48.00156" lon="-4.11352">
        <ele>10</ele>
        <time>2024-04-10T22:02:06.605Z</time>
      </trkpt>
      <trkpt lat="48.0019" lon="-4.1138">
        <ele>6.6</ele>
        <time>2024-04-10T22:02:10.412Z</time>
      </trkpt>
      <trkpt lat="48.00197" lon="-4.11383">
        <ele>6.2</ele>
        <time>2024-04-10T22:02:11.181Z</time>
      </trkpt>
      <trkpt lat="48.00203" lon="-4.11387">
        <ele>6</ele>
        <time>2024-04-10T22:02:12.008Z</time>
      </trkpt>
      <trkpt lat="48.00213" lon="-4.11394">
        <ele>6</ele>
        <time>2024-04-10T22:02:13.813Z</time>
      </trkpt>
      <trkpt lat="48.00222" lon="-4.11393">
        <ele>6</ele>
        <time>2024-04-10T22:02:15.288Z</time>
      </trkpt>
      <trkpt lat="48.00224" lon="-4.11391">
        <ele>5.9</ele>
        <time>2024-04-10T22:02:15.566Z</time>
      </trkpt>
      <trkpt lat="48.00232" lon="-4.11389">
        <ele>5.6</ele>
        <time>2024-04-10T22:02:16.537Z</time>
      </trkpt>
      <trkpt lat="48.00235" lon="-4.1139">
        <ele>5.5</ele>
        <time>2024-04-10T22:02:16.917Z</time>
      </trkpt>
      <trkpt lat="48.00237" lon="-4.11393">
        <ele>5.5</ele>
        <time>2024-04-10T22:02:17.380Z</time>
      </trkpt>
      <trkpt lat="48.0024" lon="-4.11404">
        <ele>5.4</ele>
        <time>2024-04-10T22:02:18.539Z</time>
      </trkpt>
      <trkpt lat="48.00246" lon="-4.11417">
        <ele>5.1</ele>
        <time>2024-04-10T22:02:19.889Z</time>
      </trkpt>
      <trkpt lat="48.00254" lon="-4.11426">
        <ele>5</ele>
        <time>2024-04-10T22:02:21.382Z</time>
      </trkpt>
      <trkpt lat="48.0027" lon="-4.11438">
        <ele>5</ele>
        <time>2024-04-10T22:02:24.308Z</time>
      </trkpt>
      <trkpt lat="48.00294" lon="-4.1146">
        <ele>4.7</ele>
        <time>2024-04-10T22:02:28.481Z</time>
      </trkpt>
      <trkpt lat="48.003" lon="-4.1147">
        <ele>4.9</ele>
        <time>2024-04-10T22:02:30.325Z</time>
      </trkpt>
      <trkpt lat="48.00304" lon="-4.11477">
        <ele>5</ele>
        <time>2024-04-10T22:02:31.510Z</time>
      </trkpt>
      <trkpt lat="48.00343" lon="-4.1157">
        <ele>5.8</ele>
        <time>2024-04-10T22:02:44.874Z</time>
      </trkpt>
      <trkpt lat="48.00343" lon="-4.11572">
        <ele>5.9</ele>
        <time>2024-04-10T22:02:45.404Z</time>
      </trkpt>
      <trkpt lat="48.00348" lon="-4.1158">
        <ele>5.9</ele>
        <time>2024-04-10T22:02:46.601Z</time>
      </trkpt>
      <trkpt lat="48.00355" lon="-4.11594">
        <ele>6</ele>
        <time>2024-04-10T22:02:48.679Z</time>
      </trkpt>
      <trkpt lat="48.00359" lon="-4.11607">
        <ele>6</ele>
        <time>2024-04-10T22:02:50.244Z</time>
      </trkpt>
      <trkpt lat="48.00361" lon="-4.11614">
        <ele>6</ele>
        <time>2024-04-10T22:02:51.076Z</time>
      </trkpt>
      <trkpt lat="48.00362" lon="-4.11617">
        <ele>6</ele>
        <time>2024-04-10T22:02:51.443Z</time>
      </trkpt>
      <trkpt lat="48.00384" lon="-4.11673">
        <ele>7</ele>
        <time>2024-04-10T22:03:00.433Z</time>
      </trkpt>
      <trkpt lat="48.00393" lon="-4.1169">
        <ele>7</ele>
        <time>2024-04-10T22:03:02.804Z</time>
      </trkpt>
      <trkpt lat="48.00418" lon="-4.11721">
        <ele>8</ele>
        <time>2024-04-10T22:03:10.140Z</time>
      </trkpt>
      <trkpt lat="48.00422" lon="-4.11723">
        <ele>8</ele>
        <time>2024-04-10T22:03:10.829Z</time>
      </trkpt>
      <trkpt lat="48.00423" lon="-4.11727">
        <ele>8.2</ele>
        <time>2024-04-10T22:03:11.890Z</time>
      </trkpt>
      <trkpt lat="48.00423" lon="-4.11729">
        <ele>8.2</ele>
        <time>2024-04-10T22:03:12.109Z</time>
      </trkpt>
      <trkpt lat="48.00459" lon="-4.11758">
        <ele>9.1</ele>
        <time>2024-04-10T22:03:20.478Z</time>
      </trkpt>
      <trkpt lat="48.00469" lon="-4.11731">
        <ele>8</ele>
        <time>2024-04-10T22:03:22.682Z</time>
      </trkpt>
      <trkpt lat="48.00478" lon="-4.11721">
        <ele>7.7</ele>
        <time>2024-04-10T22:03:24.134Z</time>
      </trkpt>
      <trkpt lat="48.00484" lon="-4.11719">
        <ele>7.5</ele>
        <time>2024-04-10T22:03:24.895Z</time>
      </trkpt>
      <trkpt lat="48.00511" lon="-4.11712">
        <ele>6.6</ele>
        <time>2024-04-10T22:03:28.278Z</time>
      </trkpt>
      <trkpt lat="48.00537" lon="-4.117">
        <ele>6.5</ele>
        <time>2024-04-10T22:03:32.575Z</time>
      </trkpt>
      <trkpt lat="48.00596" lon="-4.11658">
        <ele>6.3</ele>
        <time>2024-04-10T22:03:42.953Z</time>
      </trkpt>
      <trkpt lat="48.00613" lon="-4.11648">
        <ele>6.3</ele>
        <time>2024-04-10T22:03:45.940Z</time>
      </trkpt>
      <trkpt lat="48.00619" lon="-4.11646">
        <ele>6.2</ele>
        <time>2024-04-10T22:03:46.807Z</time>
      </trkpt>
      <trkpt lat="48.00624" lon="-4.11637">
        <ele>6</ele>
        <time>2024-04-10T22:03:47.830Z</time>
      </trkpt>
      <trkpt lat="48.0063" lon="-4.11634">
        <ele>6</ele>
        <time>2024-04-10T22:03:48.865Z</time>
      </trkpt>
      <trkpt lat="48.00636" lon="-4.11632">
        <ele>6</ele>
        <time>2024-04-10T22:03:49.869Z</time>
      </trkpt>
      <trkpt lat="48.00643" lon="-4.11635">
        <ele>6.1</ele>
        <time>2024-04-10T22:03:51.234Z</time>
      </trkpt>
      <trkpt lat="48.00649" lon="-4.11631">
        <ele>6.3</ele>
        <time>2024-04-10T22:03:52.712Z</time>
      </trkpt>
      <trkpt lat="48.00657" lon="-4.11625">
        <ele>6.3</ele>
        <time>2024-04-10T22:03:54.175Z</time>
      </trkpt>
      <trkpt lat="48.00683" lon="-4.11606">
        <ele>6.5</ele>
        <time>2024-04-10T22:03:59.234Z</time>
      </trkpt>
      <trkpt lat="48.00698" lon="-4.11599">
        <ele>6.6</ele>
        <time>2024-04-10T22:04:01.966Z</time>
      </trkpt>
      <trkpt lat="48.0071" lon="-4.11595">
        <ele>6.4</ele>
        <time>2024-04-10T22:04:03.702Z</time>
      </trkpt>
      <trkpt lat="48.00721" lon="-4.11592">
        <ele>6.3</ele>
        <time>2024-04-10T22:04:05.385Z</time>
      </trkpt>
      <trkpt lat="48.0073" lon="-4.11588">
        <ele>6.1</ele>
        <time>2024-04-10T22:04:06.655Z</time>
        <extensions>
          <visugpx:TrkExtension xmlns:visugpx="https://www.visugpx.com/editgpx/">
            <visugpx:node>35</visugpx:node>
            </visugpx:TrkExtension>
        </extensions>
      </trkpt>
    </trkseg>
  </trk>
</gpx>